Date StartTime U_cm/s V_cm/s W_cm/s Ustd_cm/s Vstd_cm/s Wstd_cm/s Uvar_(cm/s)^2 Vvar_(cm/s)^2 Wvar_(cm/s)^2 KE_(m/s)^2 TurbulentKE_(m/s)^2 HorizWindSpeed_cm/s FrictionSpeec_cm/s DragCoef SpeedOfSound_m/s SonicTemperature_C Pressure_mb 
07/17/2013  00:00:00     -149.155     -123.128       16.896      112.242       90.384       58.350    12598.349     8169.199     3404.726        3.093        1.209      193.411       67.549        0.122      344.691       21.686      862.706
07/17/2013  00:01:00     -238.814     -172.260       -2.439      120.986       88.335       49.052    14637.710     7803.090     2406.142        5.577        1.242      294.458       47.086        0.026      344.648       21.612      862.715
07/17/2013  00:02:00     -115.107      -95.681        7.058       84.634       60.355       40.091     7162.850     3642.745     1607.326        1.743        0.621      149.682       47.141        0.099      344.614       21.555      862.736
07/17/2013  00:03:00     -106.984     -132.062       -3.607       69.697       45.957       37.413     4857.620     2112.024     1399.725        1.863        0.418      169.958       36.531        0.046      344.609       21.547      862.752
07/17/2013  00:04:00      -43.579     -136.105       12.114       46.714       88.682       33.659     2182.162     7864.502     1132.937        1.587        0.559      142.912       23.051        0.026      344.565       21.471      862.758
07/17/2013  00:05:00      -96.528     -101.326       -6.308       59.297       71.738       33.978     3516.078     5146.389     1154.487        1.472        0.491      139.945       16.432        0.014      344.566       21.474      862.765
07/17/2013  00:06:00      -68.586     -111.560        8.018       78.837       77.127       42.089     6215.331     5948.602     1771.473        1.557        0.697      130.957       37.963        0.084      344.529       21.410      862.772
07/17/2013  00:07:00      -71.309     -235.623       -5.939       61.140      111.519       34.984     3738.121    12436.396     1223.861        3.901        0.870      246.177       42.032        0.029      344.634       21.590      862.780
07/17/2013  00:08:00      -82.672      -88.711        2.347       62.581       65.679       23.723     3916.398     4313.671      562.784        1.175        0.440      121.261       30.705        0.064      344.499       21.361      862.804
07/17/2013  00:09:00      -61.685      -51.478        3.630       43.632       65.859       22.068     1903.736     4337.457      486.984        0.660        0.336       80.343       16.039        0.040      344.463       21.299      862.843
07/17/2013  00:10:00      -63.179      -90.242        9.008       69.756       72.277       41.651     4865.857     5224.035     1734.802        1.202        0.591      110.160       44.430        0.163      344.444       21.264      862.861
07/17/2013  00:11:00     -109.506      -81.184        0.905       65.224       45.465       33.404     4254.168     2067.053     1115.801        1.301        0.372      136.318       16.946        0.015      344.394       21.181      862.866
07/17/2013  00:12:00      -51.187      -50.679        0.314       54.216       30.018       22.783     2939.354      901.099      519.087        0.477        0.218       72.031       15.606        0.047      344.402       21.195      862.865
07/17/2013  00:13:00      -13.042      -28.878       11.696       45.246       38.636       26.776     2047.199     1492.767      716.931        0.270        0.213       31.687        3.459        0.012      344.402       21.195      862.866
07/17/2013  00:14:00      -75.195      -21.701       -4.749       25.603       26.927       19.655      655.537      725.079      386.315        0.396        0.088       78.264       10.250        0.017      344.413       21.214      862.866
07/17/2013  00:15:00     -113.785      -84.076       -4.025       85.534       62.737       31.465     7316.128     3935.928      990.047        1.613        0.612      141.477       38.877        0.076      344.414       21.215      862.870
07/17/2013  00:16:00     -174.586     -123.711      -11.813       75.134       89.909       42.970     5645.177     8083.660     1846.415        3.075        0.779      213.974       48.681        0.052      344.539       21.425      862.845
07/17/2013  00:17:00     -154.022      -97.352       -2.383       74.100       79.248       32.521     5490.811     6280.211     1057.636        2.301        0.641      182.209       38.007        0.044      344.492       21.345      862.836
07/17/2013  00:18:00     -176.462     -140.641       -2.783       94.177       67.497       41.027     8869.361     4555.832     1683.219        3.301        0.755      225.652       45.612        0.041      344.506       21.369      862.833
07/17/2013  00:19:00      -89.404     -199.586       -6.289       64.632       72.874       36.734     4177.319     5310.567     1349.418        2.935        0.542      218.695       30.472        0.019      344.570       21.480      862.843
07/17/2013  00:20:00      -93.288     -102.622       15.260       89.174       62.255       47.536     7951.920     3875.684     2259.695        1.677        0.704      138.686       45.288        0.107      344.444       21.266      862.845
07/17/2013  00:21:00     -153.174     -115.520       -2.497       82.593       63.479       37.366     6821.671     4029.534     1396.221        2.453        0.612      191.852       30.319        0.025      344.437       21.252      862.859
07/17/2013  00:22:00      -59.151      -96.705        3.829       62.732       41.775       30.663     3935.316     1745.186      940.212        0.974        0.331      113.361       29.479        0.068      344.398       21.188      862.877
07/17/2013  00:23:00      -28.866      -87.006       -6.851       52.319       44.611       25.963     2737.263     1990.146      674.068        0.692        0.270       91.669       17.492        0.036      344.399       21.189      862.894
07/17/2013  00:24:00      -69.023      -93.717       -0.977       83.771       58.309       38.934     7017.561     3399.975     1515.832        1.274        0.597      116.392       19.083        0.027      344.408       21.206      862.908
07/17/2013  00:25:00      -32.670      -40.028       13.644       46.440       32.985       25.925     2156.629     1088.009      672.122        0.339        0.196       51.668       25.638        0.246      344.329       21.070      862.942
07/17/2013  00:26:00      -26.028      -55.533       10.342       38.259       31.989       21.231     1463.713     1023.324      450.753        0.340        0.147       61.330       17.873        0.085      344.341       21.091      862.957
07/17/2013  00:27:00       -2.043      -40.659        0.824       25.210       46.765       21.083      635.533     2186.945      444.481        0.246        0.163       40.710       21.001        0.266      344.316       21.046      862.955
07/17/2013  00:28:00       15.230      -45.883        6.214       26.844       45.084       22.693      720.593     2032.574      514.979        0.282        0.163       48.344       15.418        0.102      344.163       20.788      862.950
07/17/2013  00:29:00      -10.709      -36.069        0.494       19.420       20.609       18.822      377.125      424.748      354.282        0.129        0.058       37.625       12.008        0.102      344.202       20.854      862.951
07/17/2013  00:30:00       56.818      -48.943       13.054       45.846       43.983       31.294     2101.826     1934.485      979.335        0.540        0.251       74.991       35.874        0.229      344.122       20.716      862.952
07/17/2013  00:31:00      -65.433      -47.150      -12.750       76.468       42.751       29.895     5847.280     1827.670      893.729        0.762        0.428       80.651       17.879        0.049      344.188       20.829      862.959
07/17/2013  00:32:00      -67.894      -39.403       -4.206       36.090       30.601       19.113     1302.507      936.411      365.315        0.439        0.130       78.500       12.946        0.027      344.170       20.797      862.969
07/17/2013  00:33:00      -19.020      -69.927       -3.272       30.143       26.798       16.586      908.592      718.147      275.084        0.358        0.095       72.467        9.253        0.016      344.170       20.799      862.969
07/17/2013  00:34:00        6.756      -14.265       15.841       21.006       33.914       26.670      441.264     1150.166      711.315        0.140        0.115       15.784       26.425        2.803      344.100       20.679      862.981
07/17/2013  00:35:00       48.757      -93.570        9.379       49.952       60.705       43.038     2495.193     3685.096     1852.300        0.962        0.402      105.511       45.916        0.189      344.226       20.897      862.986
07/17/2013  00:36:00       -3.998       12.392       54.795       18.391       34.597       21.146      338.243     1196.981      447.166        0.258        0.099       13.021       19.718        2.293      344.192       20.836      862.993
07/17/2013  00:37:00        3.055       -1.621       16.110       17.207       27.459       27.267      296.087      754.018      743.513        0.103        0.090        3.458       20.645       35.634      344.190       20.832      863.015
07/17/2013  00:38:00       36.084       17.219        5.537       15.696        9.801       12.721      246.370       96.065      161.836        0.107        0.025       39.982        9.495        0.056      344.208       20.863      863.025
07/17/2013  00:39:00       54.158       68.648       14.458       28.441       37.368       19.254      808.908     1396.352      370.699        0.521        0.129       87.439       18.918        0.047      344.134       20.738      863.038
07/17/2013  00:40:00       44.144       53.478        7.321       19.957       24.748       16.533      398.283      612.488      273.348        0.307        0.064       69.344       15.254        0.048      344.011       20.527      863.072
07/17/2013  00:41:00       39.029       20.166       24.825       26.995       37.015       18.790      728.743     1370.080      353.054        0.250        0.123       43.931       10.068        0.053      343.912       20.358      863.085
07/17/2013  00:42:00      -20.115      -41.271        6.226       16.941       38.699       16.672      287.003     1497.628      277.959        0.210        0.103       45.912       17.986        0.153      344.087       20.657      863.125
07/17/2013  00:43:00        6.100        6.076        3.972       11.646       18.968       19.396      135.628      359.778      376.187        0.048        0.044        8.610       14.711        2.919      343.953       20.428      863.163
07/17/2013  00:44:00       25.965       20.788        1.252       17.646       22.014       13.751      311.364      484.605      189.090        0.105        0.049       33.261       11.239        0.114      343.703       20.002      863.186
07/17/2013  00:45:00       63.153       31.880        3.478       20.332       24.107       18.111      413.406      581.137      328.026        0.317        0.066       70.744        9.901        0.020      343.537       19.718      863.206
07/17/2013  00:46:00       12.312       35.957       30.244       19.112       19.918       15.805      365.279      396.711      249.801        0.169        0.051       38.007       11.257        0.088      343.436       19.545      863.227
07/17/2013  00:47:00       45.454       40.361       29.988       18.473       16.747       19.568      341.235      280.477      382.890        0.280        0.050       60.787        9.616        0.025      343.546       19.735      863.247
07/17/2013  00:48:00       46.595       17.183        6.649       35.019       44.702       18.005     1226.304     1998.296      324.184        0.303        0.177       49.662       10.302        0.043      343.591       19.810      863.260
07/17/2013  00:49:00      -11.030      -38.525        0.905       36.836       19.337       14.169     1356.866      373.902      200.748        0.177        0.097       40.073        8.603        0.046      343.806       20.176      863.276
07/17/2013  00:50:00      -43.487       -9.597       -3.861       30.846       11.371       12.012      951.483      129.298      144.300        0.161        0.061       44.533       14.196        0.102      343.954       20.432      863.271
07/17/2013  00:51:00       17.664      -20.298        8.065       16.191       15.187       10.724      262.137      230.651      115.005        0.070        0.030       26.908        7.715        0.082      343.862       20.272      863.267
07/17/2013  00:52:00      -42.428       24.208       -1.688       14.590       21.563       12.820      212.860      464.964      164.340        0.162        0.042       48.848       11.938        0.060      343.814       20.191      863.250
07/17/2013  00:53:00        6.621       42.880       -8.598       16.294       15.470       15.063      265.482      239.317      226.906        0.134        0.037       43.388       12.446        0.082      343.573       19.779      863.253
07/17/2013  00:54:00        3.206       21.591       -6.344       11.582       20.123       10.421      134.143      404.935      108.590        0.058        0.032       21.828       14.559        0.445      343.579       19.789      863.252
07/17/2013  00:55:00       36.545       11.888        4.649       19.847       10.526       13.039      393.917      110.795      170.029        0.109        0.034       38.430        6.566        0.029      343.490       19.639      863.252
07/17/2013  00:56:00       18.048       19.404       12.678       21.032       14.361       14.144      442.338      206.226      200.041        0.086        0.042       26.500       12.022        0.206      343.462       19.591      863.244
07/17/2013  00:57:00      -48.339      -28.496       -8.363       20.177       41.199       16.491      407.112     1697.383      271.947        0.280        0.119       56.113       13.596        0.059      343.666       19.937      863.250
07/17/2013  00:58:00      -71.570      -80.287       -5.336       41.795       35.245       21.004     1746.816     1242.218      441.161        0.751        0.172      107.556       19.222        0.032      343.782       20.136      863.251
07/17/2013  00:59:00      -16.284      -21.230       13.011       32.173       23.477       19.770     1035.114      551.173      390.867        0.143        0.099       26.756       22.659        0.717      343.611       19.845      863.256
07/17/2013  01:00:00        5.839      -15.894        6.314       20.122       14.686       12.637      404.884      215.684      159.689        0.055        0.039       16.933        8.106        0.229      343.677       19.957      863.265
07/17/2013  01:01:00      -34.445       -4.908       -0.560       30.897       22.008       15.086      954.609      484.344      227.574        0.144        0.083       34.793       13.850        0.158      343.630       19.878      863.272
07/17/2013  01:02:00      -24.311      -27.519       -4.350       25.226       15.291       17.567      636.369      233.805      308.617        0.127        0.059       36.720       16.343        0.198      343.687       19.975      863.287
07/17/2013  01:03:00       13.510       -1.948       12.463       25.967       34.916       20.264      674.300     1219.155      410.640        0.132        0.115       13.650       13.965        1.047      343.562       19.762      863.287
07/17/2013  01:04:00      -13.751       11.440       15.103       32.126       29.245       23.966     1032.082      855.276      574.385        0.150        0.123       17.887       18.071        1.021      343.467       19.599      863.296
07/17/2013  01:05:00      -47.299       15.096        8.769       39.997       23.562       15.595     1599.744      555.163      243.197        0.247        0.120       49.649       14.810        0.089      343.731       20.049      863.332
07/17/2013  01:06:00      -15.187       -1.002       -2.649       17.129       17.981       10.548      293.404      323.334      111.268        0.048        0.036       15.220        8.108        0.284      343.564       19.763      863.351
07/17/2013  01:07:00       31.164        2.633        7.481       17.307       20.025       13.842      299.536      401.018      191.597        0.096        0.045       31.275       10.925        0.122      343.695       19.987      863.342
07/17/2013  01:08:00       49.211       38.694       43.200       27.703       19.973       19.966      767.436      398.907      398.643        0.367        0.078       62.602       15.356        0.060      343.503       19.661      863.327
07/17/2013  01:09:00       -5.650        0.980       38.994       12.585       22.223       18.200      158.393      493.847      331.236        0.127        0.049        5.734       15.188        7.015      343.471       19.605      863.350
07/17/2013  01:10:00        0.680       14.602       25.156       10.347       15.600       13.694      107.052      243.373      187.521        0.069        0.027       14.618        8.041        0.303      343.377       19.447      863.379
07/17/2013  01:11:00       14.637        4.524       34.323       21.583       25.034       23.169      465.835      626.706      536.792        0.152        0.081       15.320       20.985        1.876      343.505       19.665      863.404
07/17/2013  01:12:00        4.010       39.390       62.556       23.941       33.587       20.444      573.161     1128.084      417.972        0.380        0.106       39.594       18.525        0.219      343.628       19.873      863.401
07/17/2013  01:13:00       51.298       35.903       35.568       40.599       28.896       27.783     1648.313      834.957      771.874        0.422        0.163       62.614       22.735        0.132      343.624       19.867      863.396
07/17/2013  01:14:00       54.646       50.898       32.371       37.303       46.426       41.338     1391.517     2155.364     1708.837        0.594        0.263       74.678       33.284        0.199      343.687       19.974      863.398
07/17/2013  01:15:00       18.434       31.231       54.202       34.887       39.360       25.983     1217.077     1549.208      675.098        0.385        0.172       36.266       22.219        0.375      343.583       19.797      863.415
07/17/2013  01:16:00       44.921       49.847       41.492       34.136       30.544       30.622     1165.276      932.916      937.732        0.463        0.152       67.101       18.064        0.072      343.418       19.516      863.428
07/17/2013  01:17:00       58.221       35.686       36.390       17.776       13.568       12.536      315.993      184.095      157.162        0.332        0.033       68.288        3.716        0.003      343.530       19.706      863.442
07/17/2013  01:18:00       31.631        1.279       21.680       19.248       33.094       15.257      370.480     1095.191      232.787        0.158        0.085       31.657       17.089        0.291      343.531       19.708      863.468
07/17/2013  01:19:00       50.111      -32.473        9.487       29.307       27.881       26.685      858.915      777.370      712.071        0.300        0.117       59.712       21.910        0.135      343.598       19.822      863.482
07/17/2013  01:20:00       97.026       36.040       32.765       35.145       42.820       28.748     1235.137     1833.563      826.451        0.784        0.195      103.503       30.346        0.086      343.534       19.713      863.479
07/17/2013  01:21:00       25.417       13.731       34.645       35.592       35.724       23.686     1266.772     1276.224      561.032        0.257        0.155       28.889       12.933        0.200      343.599       19.825      863.491
07/17/2013  01:22:00       10.511       17.422       27.900       17.144       20.599       16.203      293.929      424.339      262.537        0.109        0.049       20.347       13.377        0.432      343.618       19.856      863.494
07/17/2013  01:23:00       13.812       18.300       29.145       18.111       17.078        9.798      328.012      291.659       96.002        0.105        0.036       22.927        5.057        0.049      343.519       19.688      863.499
07/17/2013  01:24:00       50.914        6.886        9.801       19.946       13.578       14.090      397.836      184.356      198.532        0.176        0.039       51.378       11.694        0.052      343.558       19.755      863.500
07/17/2013  01:25:00       34.070       16.970        4.147       16.949       13.394       10.031      287.256      179.412      100.612        0.102        0.028       38.062        7.572        0.040      343.545       19.733      863.514
07/17/2013  01:26:00       11.915        8.837        3.811        9.686       17.401       11.194       93.811      302.787      125.313        0.038        0.026       14.834        9.028        0.370      343.528       19.703      863.530
07/17/2013  01:27:00        1.043        0.951        5.357        9.342        9.950        7.093       87.276       99.002       50.312        0.013        0.012        1.411        7.222       26.201      343.457       19.583      863.543
07/17/2013  01:28:00        5.976       18.963        7.630       11.364        9.998        7.349      129.140       99.956       54.013        0.037        0.014       19.883        5.879        0.087      343.537       19.717      863.556
07/17/2013  01:29:00      -29.462       26.826       -5.868       10.403        9.548        5.603      108.231       91.157       31.398        0.093        0.012       39.845        2.469        0.004      343.525       19.696      863.564
07/17/2013  01:30:00        5.574       21.447        6.554       13.241       10.813        9.347      175.312      116.921       87.366        0.046        0.019       22.159        5.499        0.062      343.373       19.440      863.564
07/17/2013  01:31:00       30.096       29.172       -1.912       12.273       10.599        7.415      150.629      112.334       54.985        0.104        0.016       41.914        7.837        0.035      343.457       19.580      863.572
07/17/2013  01:32:00       21.424        8.339        2.646        6.108       11.532        7.069       37.305      132.977       49.973        0.038        0.011       22.990        5.018        0.048      343.382       19.455      863.581
07/17/2013  01:33:00       17.159      -10.023       -0.600       12.116       13.254        6.552      146.790      175.675       42.932        0.038        0.018       19.872        1.563        0.006      343.414       19.509      863.589
07/17/2013  01:34:00       -3.495      -20.307       -2.636       13.275       19.145        9.351      176.231      366.533       87.448        0.053        0.032       20.606        4.597        0.050      343.451       19.574      863.604
07/17/2013  01:35:00      -11.561      -23.750       -7.538       19.840       22.894       16.263      393.615      524.113      264.472        0.097        0.059       26.415       12.711        0.232      343.552       19.744      863.618
07/17/2013  01:36:00       24.039      -13.682        5.790       18.975       19.591       15.226      360.057      383.807      231.833        0.089        0.049       27.660       16.408        0.352      343.575       19.783      863.621
07/17/2013  01:37:00       -9.308      -18.486        3.992       21.022       20.107       18.009      441.943      404.297      324.336        0.081        0.059       20.697        9.223        0.199      343.509       19.669      863.616
07/17/2013  01:38:00      -37.467      -90.615       -5.336       32.860       39.306       20.856     1079.793     1544.951      434.965        0.635        0.153       98.056       19.462        0.039      343.618       19.857      863.623
07/17/2013  01:39:00      -21.613      -77.807       -5.309       34.219       47.875       24.523     1170.906     2291.983      601.356        0.531        0.203       80.753       17.627        0.048      343.636       19.886      863.634
07/17/2013  01:40:00        0.315      -48.983        2.211       11.996       16.068       11.759      143.904      258.190      138.283        0.147        0.027       48.984        4.213        0.007      343.612       19.848      863.642
07/17/2013  01:41:00      -28.221       -7.075        1.041       12.033       17.343        7.811      144.798      300.792       61.018        0.068        0.025       29.094        5.420        0.035      343.627       19.871      863.637
07/17/2013  01:42:00      -31.632        3.680       -4.195        7.043        7.278        8.208       49.602       52.962       67.364        0.060        0.008       31.846        5.193        0.027      343.521       19.692      863.636
07/17/2013  01:43:00      -62.719       -0.787       -6.503       18.201       15.855       10.932      331.272      251.391      119.506        0.234        0.035       62.724        8.079        0.017      343.513       19.677      863.636
07/17/2013  01:44:00      -84.548       -8.194      -14.232       16.172       11.681       12.067      261.523      136.454      145.604        0.398        0.027       84.944        7.447        0.008      343.496       19.645      863.645
07/17/2013  01:45:00      -55.396      -17.250       -0.474       25.839       11.266       10.220      667.679      126.918      104.454        0.213        0.045       58.020       12.799        0.049      343.318       19.344      863.655
07/17/2013  01:46:00      -66.016        4.464       -6.185       10.588       13.964        7.652      112.097      194.985       58.554        0.239        0.018       66.167        1.949        0.001      343.369       19.431      863.667
07/17/2013  01:47:00      -40.360      -12.836        2.807       18.408       17.061        8.944      338.856      291.079       79.993        0.126        0.035       42.352        5.545        0.017      343.318       19.345      863.670
07/17/2013  01:48:00      -23.281      -19.733       -0.372       29.007       15.358        9.468      841.426      235.872       89.650        0.105        0.058       30.519        7.119        0.054      343.286       19.290      863.673
07/17/2013  01:49:00       -7.898       -8.014       -3.485        9.773       10.696        6.866       95.515      114.396       47.137        0.020        0.013       11.252        5.600        0.248      343.372       19.435      863.678
07/17/2013  01:50:00       -3.354       12.418        0.875        3.997        6.599        2.749       15.973       43.545        7.554        0.012        0.003       12.863        1.411        0.012      343.432       19.539      863.689
07/17/2013  01:51:00      -25.680        4.444        0.886       13.539        5.480        4.785      183.305       30.029       22.901        0.046        0.012       26.062        4.166        0.026      343.528       19.703      863.704
07/17/2013  01:52:00      -50.217        0.069       -4.255       13.287        6.040        5.150      176.532       36.478       26.524        0.139        0.012       50.217        3.421        0.005      343.488       19.636      863.715
07/17/2013  01:53:00      -80.923        9.537       -4.286       12.411       11.956        6.714      154.025      142.945       45.072        0.350        0.017       81.483        4.153        0.003      343.500       19.657      863.705
07/17/2013  01:54:00      -39.600       -3.016        1.990       23.278        9.702       11.025      541.858       94.121      121.558        0.117        0.038       39.715        9.927        0.062      343.347       19.392      863.699
07/17/2013  01:55:00        7.074      -34.235        5.834       10.037       13.542       12.446      100.747      183.396      154.911        0.085        0.022       34.958        8.179        0.055      343.335       19.374      863.698
07/17/2013  01:56:00      -14.455      -38.275       -1.723       20.090       21.835       10.846      403.627      476.787      117.627        0.134        0.050       40.913        5.962        0.021      343.399       19.485      863.699
07/17/2013  01:57:00      -15.897      -36.672       -3.096       13.683       21.047        4.781      187.234      442.962       22.862        0.113        0.033       39.969        5.954        0.022      343.515       19.679      863.715
07/17/2013  01:58:00       -4.468      -35.798       -2.578       11.804       20.958       12.841      139.344      439.217      164.888        0.103        0.037       36.075       12.847        0.127      343.454       19.578      863.725
07/17/2013  01:59:00      -30.062      -21.752       -6.764       26.695       16.560        9.757      712.648      274.226       95.204        0.125        0.054       37.106        6.858        0.034      343.408       19.497      863.739
07/17/2013  02:00:00      -60.389      -14.735       -6.675       12.213       13.859        6.166      149.157      192.073       38.023        0.214        0.019       62.160        4.958        0.006      343.125       19.016      863.749
07/17/2013  02:01:00      -86.511      -29.904       -8.618       16.235        9.979        7.834      263.565       99.581       61.378        0.444        0.021       91.533        3.428        0.001      343.103       18.980      863.756
07/17/2013  02:02:00      -80.577      -35.266       -1.266       15.761       13.581        8.762      248.420      184.443       76.770        0.412        0.025       87.956        6.882        0.006      343.039       18.870      863.764
07/17/2013  02:03:00      -51.847      -20.874        4.040       24.842       14.314       14.180      617.137      204.899      201.059        0.208        0.051       55.891       10.768        0.037      342.912       18.654      863.776
07/17/2013  02:04:00      -48.360      -14.033        6.093       13.421       15.732       10.399      180.122      247.484      108.131        0.155        0.027       50.355        7.434        0.022      342.842       18.534      863.778
07/17/2013  02:05:00      -43.552      -14.686       -1.572       17.552       12.319        8.668      308.085      151.760       75.135        0.132        0.027       45.962        3.817        0.007      342.874       18.589      863.783
07/17/2013  02:06:00      -34.361      -19.436       -0.668       19.873       14.152        8.952      394.928      200.279       80.146        0.112        0.034       39.477        7.085        0.032      342.862       18.567      863.792
07/17/2013  02:07:00      -54.879      -17.041       -6.317        6.995        7.976        5.450       48.923       63.611       29.704        0.174        0.007       57.464        3.269        0.003      342.892       18.619      863.787
07/17/2013  02:08:00      -18.341      -14.409       -1.376       13.770       14.375        6.477      189.625      206.628       41.953        0.049        0.022       23.324        3.749        0.026      342.786       18.439      863.786
07/17/2013  02:09:00      -19.996      -24.069       -6.297       25.901       19.937       17.150      670.846      397.495      294.107        0.119        0.068       31.292       14.102        0.203      342.728       18.339      863.795
07/17/2013  02:10:00        8.805       -8.087       10.596       19.167       13.627       12.290      367.363      185.685      151.047        0.048        0.035       11.955        2.682        0.050      342.631       18.174      863.800
07/17/2013  02:11:00      -36.508      -20.343       -4.889       34.061       16.775       10.709     1160.150      281.384      114.680        0.166        0.078       41.793       12.435        0.089      342.543       18.027      863.810
07/17/2013  02:12:00       -6.271      -18.793       -0.707       12.826       13.308        8.779      164.497      177.096       77.069        0.041        0.021       19.812        6.179        0.097      342.556       18.048      863.833
07/17/2013  02:13:00       -4.810      -28.741       -0.194       12.148       10.085        8.231      147.570      101.701       67.743        0.058        0.016       29.141        5.248        0.032      342.673       18.245      863.850
07/17/2013  02:14:00      -18.539       -1.675       -2.823        7.502        6.962        5.557       56.282       48.466       30.882        0.025        0.007       18.614        2.759        0.022      342.693       18.280      863.849
07/17/2013  02:15:00      -37.919        6.158       -2.598       11.623        7.977        8.306      135.084       63.629       68.993        0.088        0.013       38.416        8.843        0.053      342.602       18.126      863.852
07/17/2013  02:16:00      -38.495       -4.472       -2.538       10.223        9.865        5.168      104.513       97.320       26.708        0.087        0.011       38.754        5.003        0.017      342.488       17.933      863.865
07/17/2013  02:17:00      -63.899      -16.971      -10.099       19.190       10.595        8.302      368.238      112.244       68.916        0.251        0.027       66.115        3.504        0.003      342.470       17.902      863.869
07/17/2013  02:18:00      -69.217       -5.420       -7.396       24.074       14.399       12.825      579.566      207.324      164.481        0.291        0.048       69.429       10.661        0.024      342.350       17.698      863.878
07/17/2013  02:19:00     -101.347       13.367       -9.861       16.112       17.138       12.650      259.595      293.701      160.027        0.563        0.036      102.224        7.195        0.005      342.321       17.648      863.885
07/17/2013  02:20:00     -118.313       -0.086      -10.691       14.940       18.892        8.561      223.197      356.893       73.297        0.738        0.033      118.313        2.659        0.001      342.396       17.778      863.898
07/17/2013  02:21:00     -127.212        6.655      -14.552       26.871       21.646       12.540      722.040      468.546      157.251        0.889        0.067      127.386       11.327        0.008      342.075       17.230      863.897
07/17/2013  02:22:00     -115.971        0.307      -11.706       29.315       13.935       11.746      859.397      194.183      137.966        0.739        0.060      115.971       10.037        0.007      342.015       17.130      863.896
07/17/2013  02:23:00      -91.287       -8.815       -9.582       27.760       20.689       15.729      770.635      428.025      247.395        0.497        0.072       91.712       13.334        0.021      342.040       17.173      863.890
07/17/2013  02:24:00      -82.794      -21.233      -10.075       26.018       21.149       13.931      676.912      447.267      194.060        0.436        0.066       85.474       11.651        0.019      341.942       17.005      863.884
07/17/2013  02:25:00      -80.905      -12.857       -3.392       29.553       27.541       14.002      873.401      758.487      196.048        0.427        0.091       81.920       12.253        0.022      341.920       16.968      863.894
07/17/2013  02:26:00     -122.965       -2.795      -18.747       22.655       13.083       14.484      513.256      171.168      209.793        0.819        0.045      122.997       14.861        0.015      341.966       17.046      863.889
07/17/2013  02:27:00     -115.055        9.136      -10.585       21.237       17.899       15.023      450.998      320.386      225.691        0.721        0.050      115.417       10.236        0.008      342.027       17.148      863.888
07/17/2013  02:28:00     -101.102        9.409      -10.136       20.402       25.352        9.862      416.243      642.710       97.252        0.578        0.058      101.539        4.480        0.002      341.981       17.071      863.888
07/17/2013  02:29:00     -106.249      -13.254       -6.144       25.646       23.997       17.227      657.701      575.840      296.779        0.652        0.077      107.072       13.175        0.015      341.861       16.868      863.882
07/17/2013  02:30:00      -90.581      -52.200      -12.252       21.006       24.018       16.162      441.256      576.875      261.208        0.618        0.064      104.546        6.752        0.004      341.909       16.947      863.868
07/17/2013  02:31:00      -93.699      -39.274       -5.706       21.003       26.742       16.329      441.110      715.113      266.641        0.589        0.071      101.597        9.151        0.008      341.846       16.843      863.866
07/17/2013  02:32:00      -78.822      -43.890       -6.995       23.201       22.932       19.444      538.281      525.897      378.087        0.481        0.072       90.217       15.192        0.028      341.782       16.733      863.873
07/17/2013  02:33:00      -83.162      -33.483      -23.190       19.383       25.012       11.457      375.683      625.582      131.273        0.485        0.057       89.650       10.448        0.014      341.916       16.961      863.860
07/17/2013  02:34:00      -16.914      -32.164       -1.377       39.105       25.240       16.373     1529.232      637.069      268.072        0.188        0.122       36.340       17.357        0.228      341.887       16.910      863.866
07/17/2013  02:35:00     -122.519      -67.927      -14.146       31.390       28.800       18.267      985.355      829.459      333.678        1.099        0.107      140.089       14.194        0.010      341.835       16.824      863.888
07/17/2013  02:36:00      -42.276      -40.939       -3.141       36.122       28.927       28.564     1304.812      836.777      815.902        0.321        0.148       58.849       23.352        0.157      341.801       16.766      863.894
07/17/2013  02:37:00      -46.937      -23.773        5.879       46.076       28.179       20.837     2122.961      794.036      434.196        0.308        0.168       52.614       16.846        0.103      341.750       16.681      863.912
07/17/2013  02:38:00     -102.781      -32.963       -2.598       34.284       25.956       17.195     1175.406      673.711      295.668        0.690        0.107      107.937       14.532        0.018      341.631       16.478      863.917
07/17/2013  02:39:00     -109.971      -51.221      -11.547       23.014       19.511       14.300      529.664      380.695      204.492        0.798        0.056      121.314        5.957        0.002      341.686       16.571      863.911
07/17/2013  02:40:00      -95.206      -49.403       -2.356       22.309       27.467       16.277      497.687      754.436      264.945        0.651        0.076      107.261       11.878        0.012      341.701       16.596      863.916
07/17/2013  02:41:00     -104.580      -70.317       -6.035       30.844       32.584       22.335      951.366     1061.723      498.861        0.921        0.126      126.021       21.417        0.029      341.653       16.516      863.917
07/17/2013  02:42:00     -124.369      -56.124       -3.708       43.142       30.633       23.215     1861.236      938.378      538.923        1.098        0.167      136.446       25.910        0.036      341.608       16.440      863.924
07/17/2013  02:43:00     -138.633      -37.573      -16.043       21.202       26.035       14.316      449.514      677.795      204.935        1.111        0.067      143.635        6.578        0.002      341.719       16.626      863.935
07/17/2013  02:44:00      -87.904      -41.844      -12.096       23.509       20.138       10.728      552.674      405.537      115.087        0.535        0.054       97.355        5.836        0.004      341.677       16.556      863.935
07/17/2013  02:45:00      -82.889      -34.921       -7.641       37.566       20.981       12.043     1411.231      440.200      145.035        0.507        0.100       89.945       14.639        0.026      341.699       16.594      863.945
07/17/2013  02:46:00     -136.635      -33.429      -16.348       24.664       22.543       15.489      608.324      508.171      239.914        1.070        0.068      140.665       12.587        0.008      341.677       16.556      863.955
07/17/2013  02:47:00     -118.673      -33.792       -4.576       34.576       32.162       20.194     1195.531     1034.425      407.796        0.894        0.132      123.390       18.510        0.023      341.643       16.498      863.961
07/17/2013  02:48:00     -102.363      -35.146       -6.124       40.042       32.184       21.267     1603.327     1035.787      452.302        0.742        0.155      108.228       21.466        0.039      341.552       16.341      863.970
07/17/2013  02:49:00     -133.141      -24.400       -7.213       38.608       36.174       24.872     1490.561     1308.591      618.602        1.090        0.171      135.359       15.600        0.013      341.398       16.083      863.968
07/17/2013  02:50:00     -131.012      -34.704       -9.587       45.451       23.676       21.408     2065.763      560.558      458.284        1.077        0.154      135.531       23.092        0.029      341.398       16.081      863.980
07/17/2013  02:51:00     -143.074      -35.868      -11.455       43.115       28.895       23.811     1858.911      834.926      566.943        1.257        0.163      147.501       26.014        0.031      341.372       16.040      863.982
07/17/2013  02:52:00     -105.159      -63.270       -0.173       44.317       33.707       24.631     1964.001     1136.178      606.676        0.938        0.185      122.725       22.800        0.035      341.344       15.992      863.981
07/17/2013  02:53:00     -110.560      -24.182      -13.785       33.448       41.198       19.230     1118.751     1697.234      369.801        0.809        0.159      113.174       11.558        0.010      341.423       16.126      863.985
07/17/2013  02:54:00      -81.616      -20.868       -6.307       37.551       30.949       20.750     1410.091      957.856      430.581        0.497        0.140       84.241       20.029        0.057      341.275       15.874      863.976
07/17/2013  02:55:00      -31.535      -26.583       -1.640       47.105       25.176       21.317     2218.888      633.842      454.397        0.250        0.165       41.244       25.784        0.391      341.376       16.047      863.985
07/17/2013  02:56:00      -20.752      -16.497       -1.576       54.763       33.594       23.410     2998.943     1128.539      548.029        0.269        0.234       26.511       18.256        0.474      341.435       16.145      863.975
07/17/2013  02:57:00      -99.172      -50.472        0.247       45.003       35.965       21.131     2025.283     1293.492      446.519        0.807        0.188      111.276       11.378        0.010      341.370       16.034      863.977
07/17/2013  02:58:00      -97.831      -66.428       -7.786       52.263       33.470       23.805     2731.456     1120.255      566.667        0.923        0.221      118.252       13.868        0.014      341.341       15.985      863.972
07/17/2013  02:59:00     -154.187      -70.592       -6.869       30.781       39.050       21.070      947.473     1524.923      443.942        1.586        0.146      169.578        9.965        0.003      341.331       15.968      863.976
07/17/2013  03:00:00     -121.988      -29.693       -8.919       50.246       34.407       24.420     2524.667     1183.837      596.354        1.007        0.215      125.550       24.110        0.037      341.242       15.822      863.982
07/17/2013  03:01:00      -84.133      -17.377       -7.251       37.177       28.228       18.584     1382.116      796.820      345.349        0.498        0.126       85.909       14.104        0.027      341.299       15.915      863.996
07/17/2013  03:02:00     -101.251      -20.258      -13.429       30.140       22.825       16.869      908.392      520.966      284.578        0.628        0.086      103.257       11.230        0.012      341.324       15.958      863.987
07/17/2013  03:03:00      -94.386      -16.612      -20.145       43.489       33.103       22.513     1891.262     1095.839      506.841        0.654        0.175       95.837       23.780        0.062      341.292       15.903      863.986
07/17/2013  03:04:00      -90.172        0.624      -12.862       47.773       39.818       25.246     2282.280     1585.434      637.368        0.640        0.225       90.174       28.685        0.101      341.321       15.953      863.972
07/17/2013  03:05:00      -76.379       12.469      -22.383       26.146       33.529       16.646      683.625     1124.219      277.105        0.429        0.104       77.391       11.996        0.024      341.390       16.069      863.970
07/17/2013  03:06:00      -81.277        2.000       -7.759       35.554       24.652       18.257     1264.090      607.727      333.313        0.444        0.110       81.302       17.002        0.044      341.354       16.006      863.959
07/17/2013  03:07:00      -40.835       -8.621       -8.914       19.869       24.240       14.293      394.793      587.568      204.281        0.150        0.059       41.735       11.132        0.071      341.464       16.194      863.957
07/17/2013  03:08:00      -78.293      -28.283       -4.530       15.027       23.129       16.794      225.822      534.929      282.053        0.400        0.052       83.245        9.904        0.014      341.556       16.350      863.947
07/17/2013  03:09:00      -84.595      -23.912       -8.509       20.334       20.086       17.032      413.457      403.431      290.105        0.445        0.055       87.910        8.643        0.010      341.488       16.235      863.953
07/17/2013  03:10:00     -114.821      -13.293      -10.513       39.683       40.528       25.845     1574.733     1642.537      667.987        0.868        0.194      115.588       14.746        0.016      341.449       16.169      863.956
07/17/2013  03:11:00     -114.469       -0.734       -7.136       31.059       49.756       25.645      964.653     2475.617      657.673        0.863        0.205      114.472       17.796        0.024      341.354       16.007      863.961
07/17/2013  03:12:00      -91.211       18.618       -6.359       49.070       33.675       20.287     2407.861     1133.993      411.562        0.633        0.198       93.092       21.471        0.053      341.441       16.156      863.955
07/17/2013  03:13:00     -141.060       40.009       -7.330       53.393       26.209       25.115     2850.813      686.895      630.757        1.286        0.208      146.624       27.482        0.035      341.516       16.281      863.964
07/17/2013  03:14:00      -97.940       40.311       -8.714       55.737       26.754       22.497     3106.592      715.754      506.101        0.781        0.216      105.912       19.057        0.032      341.544       16.329      863.956
07/17/2013  03:15:00      -77.929       33.744       -4.469       33.569       22.690       21.472     1126.877      514.846      461.064        0.467        0.105       84.921       19.368        0.052      341.732       16.648      863.947
07/17/2013  03:16:00      -88.696      -15.541      -12.419       24.002       26.395       15.667      576.074      696.695      245.460        0.489        0.076       90.047        9.181        0.010      341.670       16.543      863.945
07/17/2013  03:17:00     -108.822      -44.410       -7.233       23.212       25.267       15.492      538.805      638.405      240.005        0.764        0.071      117.535        9.801        0.007      341.440       16.152      863.961
07/17/2013  03:18:00      -70.795      -23.037        5.521       39.414       28.642       21.554     1553.469      820.357      464.567        0.421        0.142       74.449       21.774        0.086      341.378       16.048      863.956
07/17/2013  03:19:00      -94.833       -4.714      -10.034       33.913       23.601       16.481     1150.087      556.998      271.622        0.555        0.099       94.950       16.846        0.031      341.377       16.048      863.956
07/17/2013  03:20:00      -89.461      -13.720       -7.422       26.672       21.624       13.631      711.384      467.580      185.811        0.481        0.068       90.507       11.121        0.015      341.354       16.007      863.951
07/17/2013  03:21:00      -82.759      -11.819       -9.311       27.993       17.572       11.260      783.629      308.781      126.778        0.415        0.061       83.599       13.375        0.026      341.386       16.062      863.948
07/17/2013  03:22:00      -66.970      -10.681       -4.016       29.835       21.599       16.303      890.099      466.527      265.804        0.312        0.081       67.816       17.026        0.063      341.247       15.828      863.954
07/17/2013  03:23:00      -14.408        3.814       -4.613       28.688       23.487       12.980      823.028      551.650      168.475        0.089        0.077       14.904       12.281        0.679      341.289       15.896      863.937
07/17/2013  03:24:00      -32.461        2.888       -5.606       24.087       18.289       16.824      580.197      334.478      283.057        0.115        0.060       32.590        6.204        0.036      341.361       16.018      863.930
07/17/2013  03:25:00      -51.506        6.809       -5.735       35.450       29.237       18.466     1256.696      854.788      340.996        0.259        0.123       51.954        9.272        0.032      341.395       16.078      863.946
07/17/2013  03:26:00     -134.271       32.997       -8.747       56.831       32.101       24.451     3229.744     1030.454      597.847        1.203        0.243      138.266       24.911        0.032      341.368       16.034      863.947
07/17/2013  03:27:00     -153.352       40.949      -13.266       45.915       32.281       24.526     2108.228     1042.046      601.520        1.456        0.188      158.725       18.935        0.014      341.339       15.983      863.934
07/17/2013  03:28:00     -141.179       23.156       -9.824       47.066       27.490       21.978     2215.224      755.724      483.014        1.201        0.173      143.065       23.668        0.027      341.339       15.983      863.931
07/17/2013  03:29:00     -158.091       40.654      -20.593       30.335       33.442       21.142      920.195     1118.338      446.985        1.478        0.124      163.235        7.750        0.002      341.342       15.987      863.918
07/17/2013  03:30:00     -137.410       34.622      -11.289       37.414       33.451       21.320     1399.827     1118.962      454.530        1.159        0.149      141.705       12.069        0.007      341.343       15.990      863.908
07/17/2013  03:31:00     -100.772       13.083       -8.127       28.100       28.738       16.945      789.590      825.850      287.118        0.615        0.095      101.618       10.032        0.010      341.307       15.928      863.897
07/17/2013  03:32:00      -86.976      -24.514        0.768       37.153       38.942       19.960     1380.368     1516.488      398.421        0.573        0.165       90.364       17.065        0.036      341.306       15.928      863.910
07/17/2013  03:33:00     -109.365        0.067       -0.399       61.276       29.459       24.135     3754.757      867.812      582.503        0.858        0.260      109.365       27.167        0.062      341.164       15.687      863.917
07/17/2013  03:34:00      -86.901      -13.954       -1.569       52.651       32.205       26.509     2772.130     1037.168      702.715        0.613        0.226       88.014       27.926        0.101      341.141       15.649      863.926
07/17/2013  03:35:00     -100.545      -10.430       -2.845       50.978       37.581       22.772     2598.803     1412.341      518.586        0.738        0.226      101.085       22.733        0.051      341.119       15.611      863.938
07/17/2013  03:36:00      -42.876      -12.976        2.550       49.432       29.031       24.819     2443.510      842.778      615.990        0.296        0.195       44.796       24.880        0.308      341.064       15.518      863.945
07/17/2013  03:37:00     -133.663       38.162      -12.827       65.124       40.580       24.016     4241.186     1646.771      576.761        1.297        0.323      139.004       18.171        0.017      341.243       15.820      863.941
07/17/2013  03:38:00     -170.163       56.757      -17.893       59.945       36.171       28.750     3593.401     1308.335      826.555        1.911        0.286      179.379       22.782        0.016      341.276       15.874      863.948
07/17/2013  03:39:00     -142.105       46.544       -8.338       54.568       37.042       26.649     2977.621     1372.107      710.178        1.374        0.253      149.533       22.336        0.022      341.235       15.807      863.960
07/17/2013  03:40:00     -176.676       37.301      -11.585       29.528       20.794       13.704      871.896      432.381      187.803        1.712        0.075      180.571       10.837        0.004      341.264       15.856      863.963
07/17/2013  03:41:00     -108.964       -1.755      -15.157       29.245       32.201       16.093      855.294     1036.934      259.000        0.713        0.108      108.978       12.507        0.013      341.231       15.801      863.966
07/17/2013  03:42:00      -77.979      -28.326       -3.120       50.020       37.844       20.951     2501.985     1432.170      438.926        0.563        0.219       82.964       19.892        0.057      341.290       15.902      863.968
07/17/2013  03:43:00      -74.373        0.789      -14.577       30.281       23.638       22.591      916.928      558.747      510.337        0.386        0.099       74.378       19.816        0.071      341.425       16.128      863.963
07/17/2013  03:44:00      -63.796        7.609       -5.813       26.638       25.476       15.782      709.597      649.031      249.074        0.288        0.080       64.248        9.713        0.023      341.433       16.142      863.961
07/17/2013  03:45:00      -63.648       13.968       -7.444       21.958       23.751       15.280      482.139      564.104      233.466        0.279        0.064       65.163       10.612        0.027      341.528       16.303      863.947
07/17/2013  03:46:00      -67.868        7.360      -11.723       26.883       20.466       11.739      722.690      418.861      137.797        0.304        0.064       68.266        8.293        0.015      341.549       16.338      863.938
07/17/2013  03:47:00      -77.549       15.280      -16.248       23.725       28.499       21.414      562.897      812.214      458.565        0.417        0.092       79.040       18.414        0.054      341.628       16.470      863.947
07/17/2013  03:48:00      -71.246      -34.897       -9.523       32.761       39.693       18.901     1073.296     1575.525      357.267        0.469        0.150       79.334       14.136        0.032      341.389       16.067      863.955
07/17/2013  03:49:00      -78.126      -28.020       -1.401       27.716       19.667       14.846      768.161      386.781      220.399        0.413        0.069       82.999       14.480        0.030      341.284       15.891      863.963
07/17/2013  03:50:00      -96.134      -28.105      -12.665       17.221       16.244        9.485      296.555      263.862       89.970        0.542        0.033      100.158        6.835        0.005      341.274       15.873      863.987
07/17/2013  03:51:00      -95.434      -23.881      -11.701       15.723       15.037        9.110      247.204      226.101       82.990        0.519        0.028       98.377        5.244        0.003      341.259       15.848      863.991
07/17/2013  03:52:00      -94.962       -9.943       -9.697       23.007       15.349       14.167      529.301      235.590      200.703        0.509        0.048       95.481       10.411        0.012      341.197       15.744      864.007
07/17/2013  03:53:00     -142.983       -5.206      -13.945       25.006       20.046       21.599      625.287      401.825      466.510        1.108        0.075      143.077       18.592        0.017      341.120       15.613      864.024
07/17/2013  03:54:00     -115.129        4.308      -15.999       36.536       24.504       23.841     1334.884      600.469      568.377        0.802        0.125      115.210       20.108        0.030      341.170       15.697      864.032
07/17/2013  03:55:00     -147.661        4.242      -19.137       39.032       31.812       19.209     1523.535     1012.010      368.980        1.255        0.145      147.722       15.187        0.011      341.133       15.634      864.039
07/17/2013  03:56:00     -144.814       -3.659      -12.923       33.566       25.357       20.286     1126.663      643.000      411.534        1.167        0.109      144.860       15.048        0.011      341.048       15.490      864.060
07/17/2013  03:57:00     -118.136        3.287       -3.040       44.126       26.053       18.065     1947.124      678.762      326.348        0.846        0.148      118.181       18.658        0.025      341.070       15.527      864.064
07/17/2013  03:58:00      -47.502        8.035       -0.271       40.884       31.950       22.266     1671.483     1020.831      495.787        0.275        0.159       48.177       23.449        0.237      340.961       15.342      864.056
07/17/2013  03:59:00      -25.260      -37.078       -1.229       34.841       23.161       17.220     1213.910      536.451      296.512        0.203        0.102       44.865       17.217        0.147      341.123       15.618      864.048
07/17/2013  04:00:00       -4.949      -29.619       -5.290       20.499       12.989        8.390      420.206      168.703       70.394        0.079        0.033       30.030        4.151        0.019      341.235       15.808      864.064
07/17/2013  04:01:00      -25.571      -23.579       -1.974       17.008       15.280       10.228      289.268      233.483      104.617        0.092        0.031       34.783        6.713        0.037      341.213       15.770      864.088
07/17/2013  04:02:00      -27.016      -11.160       -1.499        9.674       10.073        8.317       93.596      101.465       69.165        0.056        0.013       29.230        5.557        0.036      341.228       15.795      864.080
07/17/2013  04:03:00      -22.679      -19.752       -3.648       12.850        7.983        6.709      165.129       63.724       45.015        0.060        0.014       30.074        2.924        0.009      341.331       15.968      864.073
07/17/2013  04:04:00      -41.850        1.770       -4.443       23.968        6.434        8.261      574.473       41.400       68.241        0.123        0.034       41.887       10.103        0.058      341.327       15.962      864.060
07/17/2013  04:05:00      -68.869      -12.641       -3.644        8.943       10.209        6.134       79.975      104.223       37.622        0.257        0.011       70.020        3.391        0.002      341.395       16.076      864.053
07/17/2013  04:06:00     -117.470      -38.919       -8.790       21.397       21.437       12.748      457.847      459.524      162.511        0.824        0.054      123.749        5.812        0.002      341.222       15.785      864.056
07/17/2013  04:07:00     -147.976      -61.190       -1.075       18.660       25.837       14.886      348.179      667.538      221.584        1.344        0.062      160.129        5.741        0.001      341.140       15.648      864.058
07/17/2013  04:08:00     -152.897      -61.746        0.874       34.439       25.992       20.376     1186.067      675.579      415.195        1.473        0.114      164.894       18.667        0.013      340.970       15.358      864.066
07/17/2013  04:09:00     -157.036      -46.000        0.050       49.466       34.166       20.701     2446.850     1167.328      428.552        1.541        0.202      163.635       22.740        0.019      340.900       15.239      864.080
07/17/2013  04:10:00     -123.500      -78.686       -5.836       42.625       26.371       18.160     1816.850      695.444      329.773        1.216        0.142      146.437        5.335        0.001      341.033       15.466      864.084
07/17/2013  04:11:00      -91.028      -59.828        2.036       57.416       36.726       23.129     3296.577     1348.832      534.955        0.852        0.259      108.929       27.046        0.062      340.967       15.354      864.102
07/17/2013  04:12:00     -145.766      -66.747      -10.988       29.366       19.200       17.942      862.367      368.638      321.907        1.369        0.078      160.321       12.850        0.006      340.945       15.316      864.122
07/17/2013  04:13:00     -158.706      -57.312       -7.768       33.043       25.544       22.743     1091.831      652.520      517.237        1.540        0.113      168.737       20.332        0.015      340.829       15.119      864.134
07/17/2013  04:14:00     -156.953      -46.081      -10.817       58.055       31.435       24.950     3370.420      988.178      622.515        1.593        0.249      163.578       26.048        0.025      340.763       15.008      864.143
07/17/2013  04:15:00     -158.712       -3.776      -20.998       34.234       27.997       19.550     1171.948      783.841      382.214        1.399        0.117      158.757       16.372        0.011      340.835       15.131      864.149
07/17/2013  04:16:00     -182.766        8.943      -17.153       34.489       23.357       18.461     1189.494      545.563      340.806        1.793        0.104      182.984       13.066        0.005      340.908       15.252      864.143
07/17/2013  04:17:00     -119.904       -3.161       -6.705       39.580       29.505       21.417     1566.559      870.557      458.670        0.866        0.145      119.945       20.181        0.028      340.909       15.255      864.142
07/17/2013  04:18:00     -126.468      -24.424       -8.751       32.716       34.918       18.136     1070.353     1219.236      328.901        0.964        0.131      128.805       16.228        0.016      340.847       15.149      864.142
07/17/2013  04:19:00      -96.248      -12.354       -5.282       39.682       25.880       21.938     1574.652      669.757      481.287        0.608        0.136       97.038       22.771        0.055      340.873       15.194      864.137
07/17/2013  04:20:00     -135.088       -6.369      -11.715       20.599       21.871       15.571      424.299      478.361      242.469        0.979        0.057      135.238       11.172        0.007      340.964       15.349      864.133
07/17/2013  04:21:00     -114.024      -23.045       -6.600       35.204       24.973       16.279     1239.291      623.668      265.021        0.785        0.106      116.330       19.699        0.029      340.889       15.219      864.140
07/17/2013  04:22:00     -118.770       -7.113      -12.178       17.845       13.914       14.050      318.454      193.593      197.401        0.751        0.035      118.983        8.580        0.005      340.962       15.345      864.133
07/17/2013  04:23:00     -101.385      -18.083       -6.027       27.248       17.057       13.740      742.480      290.939      188.782        0.593        0.061      102.985       11.840        0.013      340.967       15.353      864.132
07/17/2013  04:24:00      -88.649      -52.598       -2.700       27.773       26.379       16.861      771.344      695.850      284.294        0.619        0.088      103.079       11.319        0.012      340.977       15.368      864.138
07/17/2013  04:25:00      -85.338      -47.996       -7.551       25.736       20.535       16.351      662.351      421.689      267.344        0.550        0.068       97.909        9.287        0.009      340.993       15.398      864.141
07/17/2013  04:26:00      -80.179      -42.689        0.245       39.896       25.006       15.523     1591.703      625.282      240.965        0.535        0.123       90.835       19.469        0.046      340.995       15.400      864.149
07/17/2013  04:27:00     -100.573      -19.629       -4.673       35.582       29.907       19.277     1266.097      894.425      371.604        0.653        0.127      102.471       16.465        0.026      340.912       15.260      864.162
07/17/2013  04:28:00      -91.663      -29.970       -8.935       33.838       28.109       18.312     1145.029      790.094      335.343        0.582        0.114       96.438       14.541        0.023      340.835       15.130      864.171
07/17/2013  04:29:00     -104.188        9.475       -6.659       38.906       33.694       22.391     1513.666     1135.256      501.363        0.707        0.158      104.618       17.570        0.028      340.850       15.154      864.186
07/17/2013  04:30:00     -132.413       26.851       -6.858       41.895       22.622       22.495     1755.193      511.760      506.031        1.054        0.139      135.108       18.260        0.018      340.903       15.244      864.207
07/17/2013  04:31:00     -158.266       30.554      -10.123       32.246       29.651       16.784     1039.796      879.171      281.715        1.414        0.110      161.189       15.371        0.009      340.938       15.304      864.230
07/17/2013  04:32:00     -125.007       -6.043        0.187       50.976       45.339       26.041     2598.578     2055.628      678.111        1.050        0.267      125.153       28.754        0.053      340.887       15.218      864.245
07/17/2013  04:33:00     -148.735        3.494      -15.480       38.717       28.000       24.169     1499.015      783.994      584.121        1.262        0.143      148.776       18.252        0.015      340.747       14.982      864.271
07/17/2013  04:34:00      -85.346        2.238       -6.303       34.587       31.009       20.481     1196.252      961.538      419.481        0.495        0.129       85.375       19.746        0.053      340.695       14.893      864.280
07/17/2013  04:35:00     -123.728      -48.946      -11.272       24.469       32.998       20.866      598.739     1088.897      435.378        0.998        0.106      133.058       11.032        0.007      340.678       14.864      864.275
07/17/2013  04:36:00     -130.471      -58.804      -12.105       22.231       28.864       17.041      494.231      833.103      290.383        1.112        0.081      143.110        8.488        0.004      340.633       14.789      864.288
07/17/2013  04:37:00     -104.818      -79.868      -11.363       39.263       23.300       20.270     1541.603      542.912      410.878        0.999        0.125      131.779       14.385        0.012      340.615       14.757      864.294
07/17/2013  04:38:00     -113.126      -52.710      -11.792       47.276       40.300       25.644     2234.997     1624.093      657.639        1.011        0.226      124.803       25.958        0.043      340.569       14.680      864.304
07/17/2013  04:39:00      -99.737      -17.991       -4.053       25.383       30.937       18.996      644.280      957.079      360.864        0.612        0.098      101.347       14.452        0.020      340.621       14.769      864.305
07/17/2013  04:40:00      -91.768      -36.546      -11.124       33.903       17.167       12.453     1149.416      294.692      155.083        0.574        0.080       98.777       14.066        0.020      340.664       14.839      864.321
07/17/2013  04:41:00     -105.329      -10.546       -9.520       33.992       27.406       22.542     1155.468      751.087      508.163        0.685        0.121      105.855       22.065        0.043      340.545       14.640      864.330
07/17/2013  04:42:00      -94.179       -9.724       -2.492       17.737       25.369       13.275      314.606      643.569      176.234        0.505        0.057       94.680        9.655        0.010      340.544       14.638      864.339
07/17/2013  04:43:00      -96.668      -44.985       -6.807       29.553       26.551       14.091      873.379      704.930      198.550        0.660        0.089      106.622       10.039        0.009      340.682       14.870      864.346
07/17/2013  04:44:00      -76.272      -49.041       -3.239       38.420       30.517       21.568     1476.123      931.259      465.194        0.555        0.144       90.677       15.284        0.028      340.624       14.773      864.359
07/17/2013  04:45:00      -68.253      -40.092       -1.073       31.672       44.335       22.275     1003.118     1965.550      496.178        0.487        0.173       79.157       11.532        0.021      340.584       14.704      864.353
07/17/2013  04:46:00      -24.925      -25.951       -4.232       36.108       30.011       12.029     1303.757      900.670      144.706        0.183        0.117       35.982       10.535        0.086      340.541       14.633      864.358
07/17/2013  04:47:00       -4.451      -23.026       -3.608       20.133       13.301       12.655      405.338      176.923      160.137        0.065        0.037       23.452        9.040        0.149      340.610       14.750      864.367
07/17/2013  04:48:00      -38.163      -17.882       -2.585       22.722       15.889       16.929      516.296      252.459      286.576        0.142        0.053       42.145       12.945        0.094      340.703       14.907      864.359
07/17/2013  04:49:00      -71.832      -22.665       -3.555       23.085       17.113       15.410      532.909      292.850      237.469        0.337        0.053       75.323        9.030        0.014      340.663       14.840      864.369
07/17/2013  04:50:00      -53.541      -41.316       -3.658       29.348       11.869       12.752      861.333      140.874      162.623        0.288        0.058       67.629       11.442        0.029      340.667       14.845      864.381
07/17/2013  04:51:00      -47.623      -25.378        0.353       31.149       19.910       15.543      970.284      396.416      241.586        0.226        0.080       53.963       14.956        0.077      340.638       14.796      864.392
07/17/2013  04:52:00      -93.080       -9.433      -14.221       15.829       13.273        9.103      250.556      176.182       82.864        0.473        0.025       93.557        5.745        0.004      340.595       14.724      864.395
07/17/2013  04:53:00     -107.022      -12.624      -16.042       23.098       17.694       12.510      533.540      313.082      156.504        0.644        0.050      107.764        9.563        0.008      340.549       14.645      864.402
07/17/2013  04:54:00      -84.670      -23.272      -11.132       35.124       18.871       13.481     1233.681      356.096      181.731        0.480        0.089       87.810       14.830        0.029      340.473       14.519      864.404
07/17/2013  04:55:00     -101.518      -37.052      -12.559       15.691       11.051       10.327      246.210      122.127      106.639        0.616        0.024      108.068        6.759        0.004      340.484       14.536      864.402
07/17/2013  04:56:00      -89.019      -22.369       -3.656       22.289       21.900       13.669      496.797      479.606      186.838        0.480        0.058       91.787       13.286        0.021      340.472       14.516      864.422
07/17/2013  04:57:00      -82.442      -30.701       -7.766       24.562       16.635       12.720      603.307      276.717      161.788        0.442        0.052       87.974       12.349        0.020      340.536       14.624      864.438
07/17/2013  04:58:00      -90.370      -33.125       -7.146       19.635       13.807       11.043      385.535      190.640      121.943        0.501        0.035       96.250       10.343        0.012      340.546       14.641      864.443
07/17/2013  04:59:00      -79.819      -22.599       -9.332       13.351       13.187       10.438      178.255      173.886      108.961        0.371        0.023       82.956        6.464        0.006      340.558       14.662      864.460
07/17/2013  05:00:00      -84.781       -6.815      -15.216       13.947       13.168       10.969      194.524      173.409      120.326        0.398        0.024       85.055        9.167        0.012      340.495       14.555      864.482
07/17/2013  05:01:00      -79.599      -16.193      -10.260       13.286        9.774        9.348      176.509       95.537       87.382        0.353        0.018       81.230        2.938        0.001      340.520       14.597      864.495
07/17/2013  05:02:00      -89.875      -24.447      -17.324        7.041        9.208        6.049       49.582       84.784       36.596        0.457        0.009       93.141        3.910        0.002      340.381       14.363      864.503
07/17/2013  05:03:00     -112.636      -11.168      -16.954       12.800       10.662       10.438      163.833      113.682      108.957        0.674        0.019      113.188        4.830        0.002      340.402       14.397      864.524
07/17/2013  05:04:00      -96.716      -27.853      -15.750       24.661       12.568        9.628      608.156      157.959       92.703        0.562        0.043      100.647       11.506        0.013      340.354       14.316      864.534
07/17/2013  05:05:00      -73.844      -35.276      -15.788       15.765       14.211        8.796      248.526      201.961       77.369        0.374        0.026       81.837        7.074        0.007      340.429       14.443      864.532
07/17/2013  05:06:00      -72.367      -34.012      -13.153        8.631        7.894        7.102       74.493       62.317       50.439        0.338        0.009       79.962        4.857        0.004      340.414       14.418      864.544
07/17/2013  05:07:00      -54.172      -11.847       -6.404        9.763       11.701        7.966       95.321      136.920       63.450        0.171        0.015       55.452        6.945        0.016      340.490       14.547      864.571
07/17/2013  05:08:00      -45.381       -1.484       -5.619       10.661        9.761        9.507      113.650       95.280       90.379        0.120        0.015       45.406        4.683        0.011      340.545       14.642      864.584
07/17/2013  05:09:00      -49.879       -7.028      -10.284        9.812        9.083        6.824       96.277       82.509       46.562        0.143        0.011       50.372        3.799        0.006      340.535       14.624      864.605
07/17/2013  05:10:00      -48.261      -11.224       -4.763       10.869       10.633        7.513      118.144      113.051       56.440        0.138        0.014       49.549        5.909        0.014      340.441       14.462      864.613
07/17/2013  05:11:00      -73.393      -19.652       -9.638       14.141       17.250       11.291      199.967      297.560      127.482        0.325        0.031       75.979        3.986        0.003      340.422       14.432      864.628
07/17/2013  05:12:00      -94.496      -31.173       -7.312       15.565       15.436       10.390      242.262      238.258      107.955        0.527        0.029       99.505        4.197        0.002      340.410       14.410      864.625
07/17/2013  05:13:00      -91.874      -24.062       -7.570       15.642       12.904        9.977      244.681      166.505       99.536        0.479        0.026       94.972        5.171        0.003      340.423       14.434      864.614
07/17/2013  05:14:00      -85.077      -33.625       -4.393       18.551       14.188       12.131      344.149      201.310      147.149        0.454        0.035       91.481       10.763        0.014      340.390       14.378      864.613
07/17/2013  05:15:00      -76.598      -34.016       -6.983       11.356        8.745        7.122      128.956       76.476       50.723        0.366        0.013       83.812        3.671        0.002      340.463       14.502      864.622
07/17/2013  05:16:00      -60.515      -25.292       -0.198       13.668       10.550        6.306      186.816      111.295       39.762        0.232        0.017       65.588        2.791        0.002      340.436       14.455      864.626
07/17/2013  05:17:00      -47.518      -33.285        0.741       19.100       10.215       11.070      364.803      104.337      122.541        0.198        0.030       58.016        7.543        0.017      340.523       14.602      864.636
07/17/2013  05:18:00      -70.561      -31.351       -4.197       12.913       12.197       10.120      166.751      148.768      102.413        0.320        0.021       77.213        1.344        0.000      340.495       14.554      864.645
07/17/2013  05:19:00      -72.575      -36.407       -7.269       14.059       15.210       10.762      197.666      231.346      115.825        0.360        0.027       81.195        6.472        0.006      340.493       14.552      864.668
07/17/2013  05:20:00      -91.675      -42.119       -9.399       15.245       17.271       12.060      232.411      298.290      145.453        0.547        0.034      100.888        8.033        0.006      340.414       14.419      864.681
07/17/2013  05:21:00      -93.887      -49.350       -8.087       21.412       16.255       10.110      458.479      264.239      102.202        0.607        0.041      106.066       10.273        0.009      340.393       14.382      864.696
07/17/2013  05:22:00     -108.272      -23.829      -16.095       11.233       13.283       12.319      126.187      176.430      151.761        0.650        0.023      110.863        5.670        0.003      340.270       14.174      864.709
07/17/2013  05:23:00     -120.524      -28.476       -9.640       23.067       17.394       13.460      532.088      302.567      181.159        0.822        0.051      123.842        8.337        0.005      340.222       14.092      864.721
07/17/2013  05:24:00     -124.199      -35.403       -8.905       27.187       20.047       16.897      739.118      401.868      285.515        0.909        0.071      129.146       15.806        0.015      340.137       13.952      864.751
07/17/2013  05:25:00     -127.311      -47.686      -16.476       19.647       14.622       10.474      386.010      213.812      109.695        0.973        0.035      135.949        8.297        0.004      340.108       13.901      864.777
07/17/2013  05:26:00      -96.850      -48.154       -4.737       29.262       33.811       20.222      856.284     1143.170      408.940        0.706        0.120      108.161       15.593        0.021      340.132       13.942      864.796
07/17/2013  05:27:00      -97.722      -37.080       -5.970       25.807       23.454       14.736      666.018      550.082      217.149        0.620        0.072      104.521       11.075        0.011      340.107       13.900      864.821
07/17/2013  05:28:00      -53.109      -45.822       11.893       41.370       27.981       20.600     1711.449      782.954      424.354        0.399        0.146       70.144       19.843        0.080      340.079       13.852      864.846
07/17/2013  05:29:00     -124.116      -26.029      -10.632       40.658       34.214       17.960     1653.068     1170.583      322.545        0.967        0.157      126.816       14.493        0.013      339.984       13.692      864.869
07/17/2013  05:30:00     -102.866      -27.276       -3.696       37.834       30.089       21.682     1431.427      905.325      470.126        0.707        0.140      106.421       19.809        0.035      340.028       13.767      864.873
07/17/2013  05:31:00     -101.221      -17.421       -5.660       59.204       41.723       21.928     3505.054     1740.782      480.833        0.815        0.286      102.709       27.682        0.073      339.991       13.703      864.887
07/17/2013  05:32:00     -136.162      -11.265      -17.110       39.093       41.990       23.329     1528.279     1763.145      544.242        1.140        0.192      136.627       11.913        0.008      340.008       13.731      864.889
07/17/2013  05:33:00     -101.952       -1.700       -1.738       39.519       39.452       23.559     1561.772     1556.439      555.004        0.704        0.184      101.966       19.992        0.038      340.051       13.805      864.892
07/17/2013  05:34:00      -93.400       -2.427       -5.010       46.296       35.739       26.369     2143.353     1277.281      695.307        0.643        0.206       93.431       30.013        0.103      340.054       13.811      864.906
07/17/2013  05:35:00     -111.658       11.309       -6.865       49.038       40.536       25.697     2404.744     1643.127      660.354        0.867        0.235      112.229       17.570        0.025      340.251       14.141      864.915
07/17/2013  05:36:00     -122.969       21.482      -10.912       55.669       48.216       32.258     3099.070     2324.758     1040.558        1.108        0.323      124.832       34.003        0.074      340.268       14.170      864.915
07/17/2013  05:37:00      -72.321       -2.596       -2.662       45.637       39.839       22.839     2082.779     1587.108      521.609        0.472        0.210       72.367       21.598        0.089      340.349       14.308      864.925
07/17/2013  05:38:00      -43.986        6.366        0.338       35.160       54.876       24.975     1236.192     3011.322      623.734        0.342        0.244       44.444       21.107        0.226      340.269       14.172      864.938
07/17/2013  05:39:00      -78.494      -44.868        3.908       41.523       41.614       22.221     1724.179     1731.704      493.751        0.607        0.197       90.412       21.477        0.056      340.258       14.154      864.948
07/17/2013  05:40:00      -74.495      -77.801       -0.786       40.152       38.016       26.268     1612.175     1445.187      690.009        0.767        0.187      107.715       21.051        0.038      340.197       14.052      864.964
07/17/2013  05:41:00     -131.013      -47.225       -6.938       39.926       27.261       16.460     1594.092      743.149      270.932        1.102        0.130      139.265       13.528        0.009      340.171       14.006      864.982
07/17/2013  05:42:00      -60.197      -40.702        0.457       40.965       32.736       20.332     1678.136     1071.668      413.374        0.422        0.158       72.666       18.168        0.063      340.239       14.122      864.990
07/17/2013  05:43:00      -92.187      -33.900        7.565       32.988       33.615       20.827     1088.186     1129.998      433.773        0.618        0.133       98.223       18.503        0.035      340.228       14.103      864.994
07/17/2013  05:44:00      -82.693       -6.992       -4.299       29.812       28.607       20.173      888.781      818.368      406.951        0.451        0.106       82.988       11.184        0.018      340.473       14.518      865.007
07/17/2013  05:45:00      -64.476        8.424        5.010       56.914       34.034       27.348     3239.163     1158.319      747.899        0.470        0.257       65.024       33.827        0.271      340.305       14.233      865.019
07/17/2013  05:46:00      -89.729      -38.575       -3.522       40.335       47.932       23.746     1626.937     2297.450      563.875        0.702        0.224       97.670       22.740        0.054      340.258       14.154      865.030
07/17/2013  05:47:00     -139.483      -51.996       -7.906       25.333       25.634       19.143      641.759      657.102      366.463        1.194        0.083      148.860       17.367        0.014      340.176       14.016      865.036
07/17/2013  05:48:00     -117.623      -39.730       -6.980       33.204       20.684       21.788     1102.532      427.840      474.724        0.873        0.100      124.152       20.320        0.027      340.189       14.038      865.045
07/17/2013  05:49:00     -126.653      -51.576      -18.074       22.251       22.656       11.070      495.117      513.307      122.539        1.008        0.057      136.752        5.525        0.002      340.216       14.082      865.068
07/17/2013  05:50:00     -132.943      -35.913       -9.892       23.764       24.309       18.103      564.733      590.912      327.715        1.027        0.074      137.708       11.321        0.007      340.237       14.119      865.101
07/17/2013  05:51:00      -91.691      -46.722       -4.153       27.529       29.209       17.018      757.851      853.179      289.610        0.625        0.095      102.909       14.652        0.020      340.147       13.968      865.119
07/17/2013  05:52:00      -54.643      -53.027       -0.093       45.184       32.714       20.727     2041.621     1070.188      429.601        0.467        0.177       76.142       13.236        0.030      340.236       14.116      865.121
07/17/2013  05:53:00      -21.281      -67.411       14.765       53.230       40.663       35.346     2833.435     1653.491     1249.353        0.547        0.287       70.691       33.760        0.228      340.172       14.010      865.126
07/17/2013  05:54:00      -39.267      -87.398       -6.004       44.722       37.099       21.818     2000.036     1376.365      476.006        0.653        0.193       95.814       11.128        0.013      340.146       13.965      865.131
07/17/2013  05:55:00     -124.809      -85.829      -11.395       47.359       49.720       25.836     2242.870     2472.123      667.507        1.423        0.269      151.472       22.788        0.023      340.057       13.815      865.137
07/17/2013  05:56:00     -149.674     -104.006       -7.857       46.433       54.467       27.499     2156.046     2966.623      756.196        1.958        0.294      182.263       23.009        0.016      339.993       13.705      865.144
07/17/2013  05:57:00     -148.210     -152.096       -7.183       61.011       46.123       33.862     3722.293     2127.307     1146.667        2.607        0.350      212.366       37.156        0.031      339.942       13.617      865.161
07/17/2013  05:58:00     -176.503     -149.959      -12.584       51.763       57.967       33.838     2679.446     3360.191     1144.980        3.049        0.359      231.605       33.782        0.021      339.971       13.666      865.173
07/17/2013  05:59:00     -160.108     -128.025       -4.640       67.761       53.289       37.628     4591.491     2839.689     1415.861        2.545        0.442      205.000       40.610        0.039      339.937       13.610      865.190
07/17/2013  06:00:00     -160.924      -98.920       -6.545       57.030       47.759       33.837     3252.398     2280.877     1144.959        2.120        0.334      188.896       31.731        0.028      339.964       13.656      865.202
07/17/2013  06:01:00     -163.726      -55.274      -12.231       60.578       39.578       26.156     3669.668     1566.394      684.156        1.796        0.296      172.805       28.270        0.027      340.024       13.757      865.206
07/17/2013  06:02:00     -134.476      -60.804        5.857       47.918       36.209       26.095     2296.098     1311.070      680.963        1.305        0.214      147.584       28.035        0.036      340.028       13.764      865.213
07/17/2013  06:03:00     -107.269      -85.206        0.205       47.063       46.078       28.592     2214.911     2123.196      817.503        1.196        0.258      136.991       29.180        0.045      340.038       13.783      865.228
07/17/2013  06:04:00     -136.106      -38.058       -4.898       52.956       56.318       32.644     2804.388     3171.744     1065.615        1.352        0.352      141.327       29.610        0.044      340.084       13.860      865.248
07/17/2013  06:05:00     -184.867      -38.526      -11.390       55.959       38.176       30.349     3131.447     1457.424      921.048        2.065        0.275      188.839       26.869        0.020      340.019       13.749      865.266
07/17/2013  06:06:00     -200.511      -68.113      -12.993       60.401       48.809       30.176     3648.258     2382.333      910.595        2.598        0.347      211.764       25.307        0.014      340.064       13.822      865.270
07/17/2013  06:07:00     -179.023      -54.637        0.045       56.702       48.268       35.061     3215.081     2329.848     1229.243        2.090        0.339      187.175       31.100        0.028      340.063       13.824      865.266
07/17/2013  06:08:00     -201.743      -43.349       -7.496       47.793       39.320       26.360     2284.209     1546.029      694.853        2.358        0.226      206.348       25.585        0.015      340.059       13.816      865.256
07/17/2013  06:09:00     -212.185      -62.695      -17.947       33.316       32.316       21.188     1109.957     1044.339      448.935        2.594        0.130      221.253       15.546        0.005      340.084       13.857      865.254
07/17/2013  06:10:00     -160.839      -63.889       -1.285       43.918       49.491       25.269     1928.768     2449.334      638.524        1.748        0.251      173.063       19.719        0.013      340.145       13.962      865.255
07/17/2013  06:11:00     -201.726      -59.615       -8.471       56.012       37.845       34.305     3137.300     1432.271     1176.806        2.503        0.287      210.350       33.339        0.025      340.168       14.000      865.268
07/17/2013  06:12:00     -215.352      -51.247      -12.383       39.579       42.553       32.751     1566.469     1810.782     1072.605        2.680        0.222      221.366       27.473        0.015      340.210       14.069      865.281
07/17/2013  06:13:00     -192.317      -42.231       -4.341       71.598       66.486       30.449     5126.262     4420.393      927.140        2.463        0.524      196.900       31.403        0.025      340.348       14.303      865.298
07/17/2013  06:14:00     -173.763       -4.676      -15.678       64.625       53.026       36.793     4176.354     2811.783     1353.724        1.940        0.417      173.826       34.142        0.039      340.701       14.901      865.313
07/17/2013  06:15:00     -170.882      -14.523      -11.435       37.813       35.412       24.448     1429.822     1254.024      597.722        1.641        0.164      171.498       15.842        0.009      340.667       14.845      865.313
07/17/2013  06:16:00     -102.228      -24.210      -15.737       62.621       25.672       20.924     3921.337      659.045      437.797        0.815        0.251      105.055       25.353        0.058      340.455       14.488      865.310
07/17/2013  06:17:00     -129.545      -35.466       -8.796       28.859       35.936       22.246      832.842     1291.429      494.876        1.037        0.131      134.312       17.216        0.016      340.579       14.697      865.312
07/17/2013  06:18:00     -136.695      -51.155      -13.185       30.007       32.836       18.332      900.446     1078.201      336.059        1.190        0.116      145.953       14.667        0.010      340.374       14.349      865.306
07/17/2013  06:19:00     -139.862      -44.190       -9.669       28.256       30.644       18.442      798.386      939.045      340.104        1.184        0.104      146.677       14.212        0.009      340.412       14.414      865.314
07/17/2013  06:20:00     -172.420      -19.589      -18.595       33.456       29.754       18.742     1119.279      885.292      351.247        1.641        0.118      173.529       16.023        0.009      340.511       14.581      865.331
07/17/2013  06:21:00     -136.013      -35.362      -16.575       48.001       48.991       21.557     2304.049     2400.131      464.698        1.260        0.258      140.535       20.446        0.021      340.463       14.502      865.343
07/17/2013  06:22:00     -181.897      -61.496      -19.337       28.875       29.180       22.913      833.751      851.457      524.999        1.973        0.111      192.011       18.828        0.010      340.443       14.467      865.340
07/17/2013  06:23:00     -159.417      -41.635       -0.873       41.051       33.527       19.567     1685.169     1124.030      382.866        1.517        0.160      164.764       16.848        0.010      340.479       14.526      865.346
07/17/2013  06:24:00     -174.771      -28.128       -3.998       31.983       29.525       20.266     1022.914      871.699      410.696        1.683        0.115      177.020       16.353        0.009      340.531       14.615      865.347
07/17/2013  06:25:00     -129.496      -34.971       -2.387       41.084       34.773       25.551     1687.874     1209.184      652.847        1.077        0.177      134.135       22.073        0.027      340.539       14.630      865.346
07/17/2013  06:26:00     -134.971      -33.217       -3.734       36.465       34.143       17.291     1329.726     1165.750      298.966        1.106        0.140      138.998       14.603        0.011      340.555       14.657      865.363
07/17/2013  06:27:00      -76.497      -60.294        2.497       33.549       28.506       17.607     1125.551      812.574      310.002        0.587        0.112       97.402        5.081        0.003      340.613       14.755      865.366
07/17/2013  06:28:00     -103.666      -26.205        4.069       34.313       34.256       19.218     1177.406     1173.469      369.313        0.708        0.136      106.927       19.336        0.033      340.656       14.829      865.377
07/17/2013  06:29:00     -101.625      -15.757       -8.319       32.672       33.110       15.666     1067.446     1096.293      245.415        0.653        0.120      102.839       13.889        0.018      340.705       14.911      865.384
07/17/2013  06:30:00       11.672      -11.647       22.116       13.344       13.478       11.737      178.072      181.651      137.751        0.063        0.025       16.489        7.271        0.194      340.833       15.124      865.394
07/17/2013  06:31:00      -21.349      -30.421       -4.398       34.320       22.269       14.381     1177.845      495.913      206.799        0.164        0.094       37.165       11.762        0.100      340.766       15.014      865.415
07/17/2013  06:32:00       -0.865      -25.674       -5.300       21.785       13.359       11.414      474.594      178.457      130.272        0.074        0.039       25.688        9.630        0.141      340.690       14.885      865.427
07/17/2013  06:33:00       -0.779      -23.228       13.529       28.318       18.167       17.298      801.935      330.031      299.209        0.108        0.072       23.241       11.907        0.262      340.799       15.069      865.438
07/17/2013  06:34:00      -49.263      -32.636        6.916       32.233       26.174       19.621     1038.993      685.086      384.974        0.282        0.105       59.093       19.148        0.105      340.869       15.188      865.444
07/17/2013  06:35:00      -48.032      -52.218       -7.812       18.419       18.810       13.810      339.255      353.824      190.727        0.299        0.044       70.949       11.174        0.025      340.793       15.060      865.455
07/17/2013  06:36:00      -58.780      -44.459      -12.939       17.545       13.963       13.423      307.836      194.963      180.170        0.314        0.034       73.700        9.002        0.015      340.808       15.085      865.461
07/17/2013  06:37:00      -44.508      -50.404        6.001       21.150       13.229       10.866      447.315      175.006      118.062        0.265        0.037       67.242        4.989        0.006      340.794       15.060      865.480
07/17/2013  06:38:00      -85.599      -49.370       -9.878       18.757       14.503       11.952      351.814      210.345      142.861        0.528        0.035       98.815        8.256        0.007      340.752       14.989      865.485
07/17/2013  06:39:00      -47.583      -35.338        2.029       41.073       19.856       19.550     1686.961      394.246      382.205        0.299        0.123       59.270       17.662        0.089      340.772       15.024      865.494
07/17/2013  06:40:00      -46.793      -42.502       10.250       48.721       33.969       21.012     2373.692     1153.919      441.508        0.403        0.198       63.214       20.823        0.109      340.839       15.136      865.504
07/17/2013  06:41:00     -109.345      -94.685       -5.297       47.197       25.932       24.042     2227.513      672.480      578.035        1.221        0.174      144.643       24.327        0.028      340.581       14.700      865.510
07/17/2013  06:42:00     -105.848     -110.859       -6.611       43.973       36.341       29.652     1933.597     1320.667      879.241        1.383        0.207      153.276       25.013        0.027      340.518       14.594      865.524
07/17/2013  06:43:00     -121.142      -93.931       -3.428       64.713       47.974       31.309     4187.708     2301.515      980.240        1.549        0.373      153.292       35.881        0.055      340.629       14.780      865.534
07/17/2013  06:44:00      -78.621      -85.927        7.508       56.790       48.484       36.052     3225.054     2350.715     1299.768        1.025        0.344      116.467       35.023        0.090      340.676       14.862      865.544
07/17/2013  06:45:00      -79.167      -84.557        0.851       50.701       28.003       28.419     2570.553      784.184      807.617        0.879        0.208      115.833       33.396        0.083      340.701       14.903      865.578
07/17/2013  06:46:00      -67.353      -85.961        1.667       38.632       28.478       22.922     1492.454      810.989      525.403        0.738        0.141      109.205       23.861        0.048      340.731       14.954      865.607
07/17/2013  06:47:00      -73.048      -86.011       -3.814       25.381       24.958       17.265      644.209      622.906      298.066        0.716        0.078      112.845       17.528        0.024      340.738       14.967      865.630
07/17/2013  06:48:00      -66.444      -85.178       -1.543       27.836       27.084       20.076      774.838      733.526      403.042        0.679        0.096      108.028       18.348        0.029      340.792       15.057      865.656
07/17/2013  06:49:00      -62.958     -118.402       -5.541       26.679       21.415       14.484      711.777      458.620      209.785        0.970        0.069      134.100       12.556        0.009      340.754       14.993      865.668
07/17/2013  06:50:00      -63.659      -82.704       -5.891       43.690       37.776       21.708     1908.845     1426.994      471.238        0.737        0.190      104.367       22.889        0.048      340.767       15.015      865.681
07/17/2013  06:51:00      -50.506      -55.857       14.983       56.606       38.003       32.040     3204.239     1444.263     1026.586        0.578        0.284       75.305       21.463        0.081      340.727       14.947      865.683
07/17/2013  06:52:00      -94.465      -68.871       -4.882       51.327       35.479       32.238     2634.430     1258.790     1039.307        0.931        0.247      116.905       27.517        0.055      340.665       14.843      865.681
07/17/2013  06:53:00      -98.410      -91.092       -3.207       53.278       49.084       29.039     2838.541     2409.228      843.270        1.204        0.305      134.098       28.109        0.044      340.681       14.870      865.687
07/17/2013  06:54:00     -111.912     -107.559       -9.028       37.812       31.197       27.825     1429.772      973.267      774.225        1.368        0.159      155.220       19.185        0.015      340.671       14.853      865.685
07/17/2013  06:55:00     -120.423     -104.300       -1.725       42.130       45.169       26.817     1774.924     2040.225      719.125        1.496        0.227      159.312       25.851        0.026      340.648       14.812      865.680
07/17/2013  06:56:00     -118.833     -120.668       -5.709       32.859       39.905       24.342     1079.707     1592.421      592.519        1.599        0.163      169.358       15.630        0.009      340.656       14.828      865.677
07/17/2013  06:57:00     -123.403     -116.950       -5.562       37.169       53.687       23.930     1381.538     2882.244      572.665        1.689        0.242      170.016       15.215        0.008      340.668       14.847      865.686
07/17/2013  06:58:00     -113.437     -121.395       -3.379       44.311       40.207       28.759     1963.459     1616.600      827.068        1.601        0.220      166.147       28.871        0.030      340.683       14.873      865.690
07/17/2013  06:59:00     -126.354     -114.269        0.585       53.196       44.355       29.134     2829.763     1967.384      848.798        1.733        0.282      170.361       29.292        0.030      340.726       14.944      865.707
07/17/2013  07:00:00      -68.635      -75.029       11.382       40.785       59.966       27.947     1663.444     3595.980      781.045        0.825        0.302      101.687       22.309        0.048      340.841       15.140      865.702
07/17/2013  07:01:00      -88.237      -64.608       -0.133       64.515       44.413       25.853     4162.195     1972.519      668.357        0.938        0.340      109.362       28.623        0.068      340.913       15.262      865.691
07/17/2013  07:02:00     -102.178      -92.932       -6.462       59.732       46.752       32.182     3567.945     2185.748     1035.685        1.295        0.339      138.118       34.342        0.062      340.931       15.292      865.683
07/17/2013  07:03:00     -114.547     -111.913        5.681       83.782       69.357       50.890     7019.411     4810.441     2589.776        2.005        0.721      160.142       50.329        0.099      340.934       15.296      865.676
07/17/2013  07:04:00     -155.057     -111.078        5.199       80.597       59.120       38.654     6495.812     3495.226     1494.160        2.394        0.574      190.738       33.175        0.030      340.947       15.316      865.680
07/17/2013  07:05:00      -99.380     -113.573        4.347       66.327       66.320       44.196     4399.223     4398.362     1953.283        1.677        0.538      150.915       45.041        0.089      341.005       15.415      865.681
07/17/2013  07:06:00     -142.523     -115.877       -3.830       66.508       49.707       34.254     4423.290     2470.779     1173.349        2.091        0.403      183.685       34.015        0.034      341.037       15.470      865.697
07/17/2013  07:07:00     -131.848     -131.622       -3.763       59.779       37.127       40.667     3573.535     1378.425     1653.817        2.066        0.330      186.301       35.589        0.036      341.095       15.568      865.703
07/17/2013  07:08:00      -24.659     -108.722        4.059       51.994       53.963       27.272     2703.423     2911.955      743.762        0.940        0.318      111.484       27.164        0.059      341.149       15.660      865.719
07/17/2013  07:09:00      -60.859      -69.614       -6.488       41.678       69.104       29.653     1737.071     4775.405      879.289        0.799        0.370       92.466       24.963        0.073      341.118       15.608      865.724
07/17/2013  07:10:00        4.984       -4.985       15.280       38.327       26.274       22.249     1468.956      690.345      495.011        0.147        0.133        7.049       12.784        3.289      341.359       16.017      865.745
07/17/2013  07:11:00      -26.523       -8.825        5.824       26.966       29.415       19.939      727.170      865.215      397.554        0.140        0.099       27.953       16.318        0.341      341.193       15.736      865.752
07/17/2013  07:12:00       -4.614       11.684       26.191       24.305       19.275       14.840      590.717      371.541      220.230        0.101        0.059       12.563        9.582        0.582      341.430       16.137      865.771
07/17/2013  07:13:00       50.375        2.710       23.964       36.653       35.471       27.876     1343.464     1258.211      777.050        0.325        0.169       50.448       21.105        0.175      340.994       15.399      865.779
07/17/2013  07:14:00       41.823      -23.353        7.995       33.120       33.740       27.098     1096.964     1138.386      734.314        0.266        0.148       47.901       16.767        0.123      341.091       15.564      865.797
07/17/2013  07:15:00       21.383      -11.936       33.552       36.321       32.838       26.081     1319.250     1078.309      680.239        0.240        0.154       24.489       17.060        0.485      341.265       15.857      865.805
07/17/2013  07:16:00      -25.930       18.469       10.511       23.379       35.101       23.371      546.581     1232.050      546.205        0.172        0.116       31.835       18.302        0.331      341.190       15.732      865.822
07/17/2013  07:17:00       14.864       -3.137       32.104       25.851       19.418       21.617      668.285      377.058      467.273        0.139        0.076       15.192       15.566        1.050      341.714       16.620      865.827
07/17/2013  07:18:00       10.352      -30.149       22.332       24.366       39.235       28.506      593.709     1539.407      812.610        0.223        0.147       31.877       10.418        0.107      341.333       15.972      865.832
07/17/2013  07:19:00      -26.997      -23.491       -9.998       24.514       19.590       21.363      600.949      383.758      456.370        0.141        0.072       35.786        8.372        0.055      341.162       15.683      865.843
07/17/2013  07:20:00      -34.207      -12.635        4.188       26.325       21.696       18.127      693.025      470.704      328.581        0.142        0.075       36.466       13.611        0.139      341.376       16.047      865.850
07/17/2013  07:21:00      -34.981      -17.450       -5.885       26.046       27.485       12.535      678.415      755.412      157.130        0.158        0.080       39.092       13.063        0.112      341.340       15.985      865.858
07/17/2013  07:22:00      -26.335       -2.311       -2.446       28.093       16.620       10.619      789.221      276.223      112.763        0.094        0.059       26.437        9.039        0.117      341.282       15.888      865.865
07/17/2013  07:23:00      -63.637      -37.749       -7.548       30.650       14.421       12.391      939.442      207.979      153.548        0.342        0.065       73.991        6.104        0.007      341.222       15.785      865.878
07/17/2013  07:24:00      -37.302       15.510       21.020       28.376       15.809       22.029      805.217      249.921      485.273        0.181        0.077       40.398       20.028        0.246      341.556       16.350      865.878
07/17/2013  07:25:00       31.612       -5.001       18.658       28.917       23.205       26.908      836.175      538.476      724.050        0.174        0.105       32.005       13.621        0.181      341.591       16.411      865.890
07/17/2013  07:26:00        7.105       -0.100       25.434       27.036       27.502       26.117      730.963      756.355      682.079        0.143        0.108        7.106       13.954        3.856      341.644       16.501      865.898
07/17/2013  07:27:00       37.055       14.113       33.096       45.095       26.420       24.872     2033.553      698.042      618.626        0.301        0.168       39.651       22.408        0.319      341.517       16.285      865.908
07/17/2013  07:28:00       24.505       23.118       45.551       29.561       34.082       24.722      873.881     1161.568      611.183        0.293        0.132       33.689       17.810        0.279      341.566       16.369      865.918
07/17/2013  07:29:00        6.529       41.947       56.378       33.809       30.723       24.732     1143.050      943.906      611.695        0.384        0.135       42.452       23.357        0.303      341.549       16.338      865.930
07/17/2013  07:30:00       24.118        2.373       34.228       34.470       26.927       26.133     1188.166      725.085      682.953        0.218        0.130       24.234       22.539        0.865      341.568       16.371      865.937
07/17/2013  07:31:00        6.826       -7.124       21.714       21.845       21.297       22.960      477.206      453.581      527.182        0.101        0.073        9.866       19.576        3.937      341.974       17.059      865.946
07/17/2013  07:32:00        1.760       -0.216        6.663       23.461       33.123       21.011      550.412     1097.166      441.461        0.107        0.104        1.773       17.533       97.780      341.496       16.248      865.951
07/17/2013  07:33:00      -17.631       -4.991       25.753       21.486       29.485       23.116      461.646      869.378      534.371        0.143        0.093       18.324       12.409        0.459      341.809       16.781      865.946
07/17/2013  07:34:00       10.115        4.330       27.157       23.489       18.952       28.142      551.747      359.192      791.945        0.128        0.085       11.003       16.429        2.230      342.170       17.393      865.939
07/17/2013  07:35:00       12.352       16.319       26.649       23.639       23.294       22.483      558.790      542.593      505.477        0.137        0.080       20.467       12.607        0.379      341.796       16.758      865.935
07/17/2013  07:36:00       41.267        3.782       27.779       39.643       26.478       29.484     1571.587      701.093      869.329        0.281        0.157       41.440       24.036        0.336      341.802       16.768      865.940
07/17/2013  07:37:00       31.170      -12.769       26.218       29.000       26.488       24.152      840.992      701.606      583.341        0.197        0.106       33.684       13.034        0.150      341.712       16.615      865.934
07/17/2013  07:38:00       29.648      -35.175        6.529       30.978       27.376       26.821      959.623      749.433      719.369        0.229        0.121       46.003       22.370        0.236      341.418       16.118      865.942
07/17/2013  07:39:00       15.907        9.549       19.064       16.783       23.745       16.801      281.658      563.824      282.258        0.092        0.056       18.554        9.419        0.258      341.970       17.053      865.950
07/17/2013  07:40:00       25.395        9.878       22.353       25.111       29.932       20.455      630.569      895.933      418.398        0.159        0.097       27.248       10.489        0.148      341.856       16.860      865.956
07/17/2013  07:41:00       39.795       -0.780       21.495       20.160       16.281       21.161      406.431      265.066      447.777        0.158        0.056       39.803       10.455        0.069      342.032       17.159      865.962
07/17/2013  07:42:00       56.591      -20.617       11.730       27.642       41.291       26.832      764.055     1704.950      719.955        0.348        0.159       60.230       19.219        0.102      341.681       16.561      865.963
07/17/2013  07:43:00       35.874      -16.411       21.765       26.717       34.500       25.207      713.809     1190.262      635.388        0.228        0.127       39.450       24.152        0.375      341.838       16.830      865.966
07/17/2013  07:44:00       12.557       18.560       27.877       20.154       18.941       18.332      406.202      358.768      336.061        0.119        0.055       22.408       13.153        0.345      341.992       17.091      865.973
07/17/2013  07:45:00       19.439       -4.080       14.936       26.840       26.016       26.276      720.385      676.818      690.413        0.135        0.104       19.862       19.821        0.996      341.922       16.973      865.982
07/17/2013  07:46:00       23.888       21.073       31.388       35.048       23.644       20.972     1228.372      559.023      439.823        0.211        0.111       31.855       14.316        0.202      342.429       17.833      865.979
07/17/2013  07:47:00       29.021        1.355       26.445       21.957       16.444       17.814      482.130      270.391      317.338        0.131        0.053       29.052        4.147        0.020      342.286       17.588      865.984
07/17/2013  07:48:00       32.400       37.872       14.542       24.067       20.539       21.162      579.223      421.850      447.840        0.207        0.072       49.840       13.923        0.078      342.123       17.312      865.991
07/17/2013  07:49:00       76.305       48.344       12.936       14.573       15.714       18.352      212.363      246.934      336.807        0.456        0.040       90.330        6.199        0.005      341.879       16.898      865.988
07/17/2013  07:50:00       39.994       45.311       -3.004       16.459       19.627       18.553      270.909      385.207      344.201        0.233        0.050       60.437       13.732        0.052      342.028       17.150      866.004
07/17/2013  07:51:00       25.208       25.193       26.338       26.876       25.174       22.650      722.317      633.739      513.015        0.192        0.093       35.639       17.161        0.232      342.408       17.797      866.007
07/17/2013  07:52:00       10.704       23.960       49.020       24.047       32.343       13.240      578.244     1046.044      175.309        0.245        0.090       26.242        6.973        0.071      342.471       17.905      866.008
07/17/2013  07:53:00       30.647      -11.830        5.076       23.317       25.316       22.149      543.684      640.900      490.578        0.139        0.084       32.851       15.354        0.218      342.046       17.183      866.019
07/17/2013  07:54:00      -18.732       -9.536        4.638       12.827       23.842       19.342      164.524      568.429      374.103        0.078        0.055       21.020       19.339        0.846      342.180       17.411      866.018
07/17/2013  07:55:00      -28.336        3.692       11.184        8.320        7.546        7.146       69.217       56.939       51.072        0.056        0.009       28.576        4.898        0.029      342.183       17.414      866.015
07/17/2013  07:56:00       -3.637        6.794       15.180       24.900       22.040       23.505      620.028      485.771      552.473        0.097        0.083        7.706       12.522        2.640      342.740       18.362      866.016
07/17/2013  07:57:00       -1.721       22.319       42.222       24.369       20.442       22.737      593.832      417.875      516.976        0.191        0.076       22.385       16.688        0.556      342.655       18.220      866.014
07/17/2013  07:58:00       14.431        0.179       33.000       38.039       30.059       25.819     1446.943      903.537      666.597        0.216        0.151       14.432       24.851        2.965      342.715       18.319      866.009
07/17/2013  07:59:00       -0.570      -35.573       10.915       20.579       29.810       25.160      423.502      888.635      633.012        0.166        0.097       35.577       12.358        0.121      342.452       17.874      866.015
07/17/2013  08:00:00      -14.292       13.016       18.446       18.630       19.799       17.803      347.068      391.984      316.935        0.088        0.053       19.331       13.357        0.477      342.774       18.421      866.011
07/17/2013  08:01:00      -12.798        4.182       20.963       10.225       11.314       12.113      104.544      128.018      146.732        0.050        0.019       13.464        6.924        0.264      343.086       18.952      866.018
07/17/2013  08:02:00       -0.984        7.236       21.236       17.559       20.020       19.390      308.326      400.796      375.960        0.079        0.054        7.303       12.517        2.938      343.102       18.977      866.026
07/17/2013  08:03:00        0.702       -2.503       27.273       18.329       17.531       14.379      335.964      307.321      206.761        0.080        0.043        2.600        8.368       10.359      343.108       18.987      866.026
07/17/2013  08:04:00       37.006       32.323       14.241       23.173       17.319       17.560      536.994      299.943      308.361        0.188        0.057       49.135       11.834        0.058      342.598       18.120      866.036
07/17/2013  08:05:00       46.179       19.746       20.334       43.374       27.804       24.585     1881.277      773.061      604.403        0.310        0.163       50.224       12.343        0.060      343.231       19.200      866.043
07/17/2013  08:06:00       68.979       55.759       10.866       65.275       33.306       28.229     4260.782     1109.318      796.895        0.707        0.308       88.697       23.610        0.071      342.814       18.487      866.054
07/17/2013  08:07:00       32.851       35.883       17.360       39.362       35.985       29.155     1549.403     1294.935      849.999        0.318        0.185       48.650       24.342        0.250      343.220       19.179      866.062
07/17/2013  08:08:00        3.224        8.807       35.258       19.897       18.739       23.577      395.906      351.141      555.892        0.132        0.065        9.379       13.356        2.028      343.718       20.029      866.063
07/17/2013  08:09:00       25.618      -28.219       35.481       32.832       40.627       25.510     1077.908     1650.532      650.784        0.304        0.169       38.113       28.842        0.573      342.808       18.478      866.070
07/17/2013  08:10:00       21.746       32.135       12.511       25.814       28.833       26.589      666.346      831.353      706.988        0.193        0.110       38.801       17.711        0.208      342.709       18.308      866.071
07/17/2013  08:11:00        0.103        1.445       16.107       16.364       12.860       11.591      267.773      165.388      134.348        0.041        0.028        1.449        9.904       46.727      343.467       19.601      866.076
07/17/2013  08:12:00       29.883       39.085       14.497       40.693       44.631       28.077     1655.910     1991.960      788.314        0.353        0.222       49.200       28.728        0.341      343.321       19.350      866.070
07/17/2013  08:13:00       30.929       27.550       21.667       34.032       31.479       26.003     1158.165      990.917      676.139        0.250        0.141       41.419       13.002        0.099      343.365       19.427      866.071
07/17/2013  08:14:00       90.416       64.890       23.440       38.116       49.795       24.374     1452.832     2479.494      594.100        0.873        0.226      111.291       17.475        0.025      342.861       18.568      866.070
07/17/2013  08:15:00       40.591       29.331        8.460       25.107       22.003       18.496      630.350      484.151      342.101        0.202        0.073       50.079        9.767        0.038      342.649       18.206      866.070
07/17/2013  08:16:00       64.243       50.509       20.389       41.673       27.099       31.072     1736.665      734.348      965.450        0.526        0.172       81.721       20.643        0.064      342.994       18.793      866.062
07/17/2013  08:17:00       56.403       56.188       20.257       37.418       27.273       27.993     1400.132      743.810      783.604        0.484        0.146       79.614       18.705        0.055      342.966       18.746      866.064
07/17/2013  08:18:00       50.751       55.145       -1.106       28.066       31.552       25.769      787.719      995.554      664.043        0.403        0.122       74.944       16.131        0.046      342.880       18.601      866.060
07/17/2013  08:19:00       37.302      -45.704       11.193       33.768       51.377       36.917     1140.279     2639.550     1362.854        0.437        0.257       58.994       30.903        0.274      342.586       18.100      866.055
07/17/2013  08:20:00       30.231      -64.160       15.303       39.342       42.183       30.320     1547.825     1779.371      919.314        0.475        0.212       70.926       22.827        0.104      342.377       17.745      866.061
07/17/2013  08:21:00       25.180      -20.895        7.464       38.462       29.701       30.329     1479.352      882.139      919.831        0.220        0.164       32.720       23.609        0.521      342.655       18.217      866.068
07/17/2013  08:22:00       23.263        5.443       31.896       30.485       33.922       31.784      929.308     1150.735     1010.254        0.234        0.155       23.891       30.516        1.632      342.871       18.587      866.081
07/17/2013  08:23:00       19.124      -15.551       20.518       22.709       23.078       20.589      515.693      532.606      423.894        0.125        0.074       24.649       14.609        0.351      342.998       18.802      866.096
07/17/2013  08:24:00       -3.935       -8.868       27.349       21.811       27.822       21.679      475.711      774.076      469.993        0.128        0.086        9.702       16.122        2.762      343.325       19.359      866.088
07/17/2013  08:25:00       38.078       -5.008       41.592       44.756       35.457       25.114     2003.103     1257.184      630.738        0.355        0.195       38.406       22.297        0.337      343.214       19.168      866.097
07/17/2013  08:26:00       27.092        1.702       22.899       33.148       21.299       23.238     1098.763      453.639      540.010        0.168        0.105       27.145       15.002        0.305      343.272       19.268      866.101
07/17/2013  08:27:00       17.915       14.169       20.297       34.916       15.442       18.785     1219.099      238.468      352.877        0.137        0.091       22.841       17.364        0.578      343.710       20.014      866.096
07/17/2013  08:28:00       62.383       56.038       12.859       56.443       33.015       33.791     3185.859     1090.015     1141.813        0.631        0.271       83.857       23.806        0.081      343.211       19.162      866.091
07/17/2013  08:29:00       80.325       55.948       14.845       35.719       27.594       34.246     1275.833      761.438     1172.796        0.651        0.161       97.889       14.928        0.023      343.298       19.311      866.102
07/17/2013  08:30:00       82.536       61.314       33.719       31.624       25.215       36.266     1000.096      635.815     1315.248        0.733        0.148      102.818       18.164        0.031      343.132       19.029      866.101
07/17/2013  08:31:00       37.088       42.668       42.378       37.900       33.111       31.504     1436.428     1096.334      992.499        0.426        0.176       56.534       15.187        0.072      343.667       19.941      866.092
07/17/2013  08:32:00       31.249       60.900       59.864       41.734       40.319       32.279     1741.715     1625.657     1041.906        0.634        0.220       68.449       12.138        0.031      343.684       19.969      866.093
07/17/2013  08:33:00       52.013       63.644       11.242       30.951       28.503       40.224      957.992      812.422     1617.985        0.513        0.169       82.194       17.802        0.047      343.392       19.471      866.090
07/17/2013  08:34:00       66.595       48.101       14.311       28.008       27.662       26.234      784.427      765.192      688.245        0.460        0.112       82.150       12.337        0.023      343.382       19.453      866.089
07/17/2013  08:35:00       75.347       56.554        5.165       25.933       23.159       28.458      672.523      536.349      809.886        0.546        0.101       94.210       17.677        0.035      343.429       19.536      866.101
07/17/2013  08:36:00       62.211       65.560       13.191       34.132       29.518       31.556     1165.027      871.331      995.755        0.569        0.152       90.379       20.374        0.051      343.446       19.564      866.098
07/17/2013  08:37:00        6.328       32.915       16.386       19.102       27.998       18.679      364.873      783.908      348.890        0.144        0.075       33.518       18.386        0.301      343.904       20.344      866.102
07/17/2013  08:38:00       55.080       37.751        9.060       42.338       27.477       25.601     1792.539      754.992      655.424        0.387        0.160       66.776       13.992        0.044      343.566       19.769      866.106
07/17/2013  08:39:00       76.486       57.223       29.310       38.672       28.072       34.244     1495.515      788.046     1172.637        0.672        0.173       95.523       26.452        0.077      343.338       19.380      866.106
07/17/2013  08:40:00       22.398       19.317       42.741       40.748       34.953       29.528     1660.394     1221.688      871.912        0.323        0.188       29.578       14.667        0.246      343.888       20.318      866.108
07/17/2013  08:41:00       53.987       26.449       12.734       34.901       39.610       34.755     1218.088     1568.921     1207.943        0.388        0.200       60.118       20.706        0.119      343.681       19.965      866.111
07/17/2013  08:42:00       63.867       86.769       44.840       32.189       28.287       37.039     1036.154      800.147     1371.874        0.841        0.160      107.739       13.908        0.017      343.233       19.202      866.107
07/17/2013  08:43:00       72.959       56.573        9.672       43.401       26.641       29.981     1883.676      709.767      898.848        0.605        0.175       92.323        4.174        0.002      343.181       19.110      866.111
07/17/2013  08:44:00      103.094       79.595       24.448       51.168       49.564       49.732     2618.191     2456.625     2473.301        1.255        0.377      130.245       20.993        0.026      343.620       19.861      866.107
07/17/2013  08:45:00       89.183       71.358       34.511       48.833       43.482       39.311     2384.633     1890.690     1545.356        1.003        0.291      114.217       24.204        0.045      343.740       20.064      866.114
07/17/2013  08:46:00      122.295       96.542       23.850       37.151       32.562       30.291     1380.161     1060.287      917.548        1.410        0.168      155.809       20.839        0.018      343.395       19.477      866.126
07/17/2013  08:47:00       76.083       71.570       10.970       56.949       43.300       37.318     3243.190     1874.865     1392.600        0.877        0.326      104.455       13.814        0.017      343.584       19.798      866.128
07/17/2013  08:48:00      113.266       71.101       21.357       44.367       40.001       33.501     1968.414     1600.116     1122.293        1.151        0.235      133.733       24.096        0.032      343.700       19.995      866.137
07/17/2013  08:49:00       61.769       29.384       30.618       63.636       35.127       38.401     4049.587     1233.915     1474.613        0.619        0.338       68.402       37.084        0.294      344.056       20.605      866.142
07/17/2013  08:50:00       63.626       65.712       30.944       58.432       46.038       38.219     3414.277     2119.522     1460.676        0.816        0.350       91.468       28.729        0.099      344.016       20.536      866.147
07/17/2013  08:51:00      115.207       71.563       20.906       54.776       39.835       34.358     3000.422     1586.794     1180.482        1.230        0.288      135.625       26.815        0.039      343.760       20.099      866.153
07/17/2013  08:52:00      139.773       68.669        7.032       42.039       33.852       30.238     1767.310     1145.975      914.361        1.406        0.191      155.730       12.886        0.007      343.682       19.965      866.158
07/17/2013  08:53:00      139.118       82.920       26.266       42.024       34.722       33.036     1766.056     1205.640     1091.391        1.549        0.203      161.955       20.737        0.016      343.551       19.742      866.158
07/17/2013  08:54:00       92.941       62.607       24.188       39.063       36.539       32.572     1525.952     1335.080     1060.909        0.853        0.196      112.061       17.883        0.025      343.507       19.667      866.159
07/17/2013  08:55:00       53.733       61.264       53.522       40.862       33.751       27.365     1669.721     1139.108      748.869        0.653        0.178       81.489       15.544        0.036      343.690       19.979      866.161
07/17/2013  08:56:00       56.588       54.061       56.844       33.929       39.418       21.679     1151.177     1553.759      469.984        0.626        0.159       78.261       13.037        0.028      343.951       20.426      866.163
07/17/2013  08:57:00        8.468       24.754       33.012       34.331       45.128       23.338     1178.623     2036.535      544.663        0.277        0.188       26.162       19.384        0.549      344.365       21.134      866.173
07/17/2013  08:58:00        0.683       24.725        8.491       46.232       41.989       22.608     2137.380     1763.062      511.108        0.255        0.221       24.735       13.164        0.283      344.155       20.774      866.180
07/17/2013  08:59:00       54.922       79.527       13.535       52.468       49.142       38.591     2752.859     2414.974     1489.278        0.809        0.333       96.649       25.303        0.069      343.925       20.381      866.190
07/17/2013  09:00:00       13.050        6.000       -2.726       44.197       22.713       23.748     1953.344      515.891      563.982        0.162        0.152       14.364       15.978        1.237      343.607       19.838      866.194
07/17/2013  09:01:00       56.891       41.712       18.282       36.844       23.437       31.826     1357.498      549.280     1012.911        0.411        0.146       70.544       14.278        0.041      343.844       20.243      866.196
07/17/2013  09:02:00       26.809       -5.921        8.242       47.555       49.855       28.979     2261.503     2485.483      839.791        0.320        0.279       27.455       17.033        0.385      344.163       20.787      866.198
07/17/2013  09:03:00        8.951      -59.149       22.009       25.636       32.367       29.240      657.227     1047.606      855.004        0.331        0.128       59.822       13.638        0.052      343.901       20.340      866.191
07/17/2013  09:04:00       75.236      -71.614        7.945       42.448       44.681       41.410     1801.861     1996.425     1714.757        0.818        0.276      103.870       37.454        0.130      343.331       19.368      866.191
07/17/2013  09:05:00       33.458      -34.277        9.021       34.591       57.695       37.038     1196.555     3328.677     1371.786        0.414        0.295       47.899       26.092        0.297      344.004       20.516      866.196
07/17/2013  09:06:00        4.898       53.855       59.035       25.348       27.551       28.148      642.525      759.070      792.290        0.430        0.110       54.077       19.785        0.134      344.362       21.126      866.187
07/17/2013  09:07:00       28.089       18.773       31.580       36.899       39.271       26.768     1361.545     1542.221      716.535        0.288        0.181       33.785       24.871        0.542      344.350       21.106      866.190
07/17/2013  09:08:00       31.205       46.603       38.057       36.010       34.210       29.477     1296.700     1170.323      868.908        0.396        0.167       56.086       13.894        0.061      344.347       21.102      866.185
07/17/2013  09:09:00       23.134       14.157       29.120       36.809       26.658       19.013     1354.904      710.655      361.487        0.200        0.121       27.122       15.283        0.318      344.564       21.473      866.184
07/17/2013  09:10:00       40.637       60.934       59.962       56.236       34.882       30.334     3162.519     1216.779      920.162        0.713        0.265       73.242       24.198        0.109      344.446       21.270      866.181
07/17/2013  09:11:00      107.598       64.827        4.367       45.295       41.064       46.279     2051.645     1686.218     2141.707        1.084        0.294      125.618       19.082        0.023      344.122       20.718      866.173
07/17/2013  09:12:00       17.229       16.143       34.417       46.447       66.584       44.550     2157.316     4433.495     1984.733        0.516        0.429       23.610       44.074        3.485      344.444       21.268      866.170
07/17/2013  09:13:00       35.190       42.481       29.031       41.416       40.804       40.733     1715.295     1664.928     1659.193        0.446        0.252       55.164       20.321        0.136      344.616       21.561      866.171
07/17/2013  09:14:00      102.866       75.162       -1.182       43.920       31.181       32.271     1929.000      972.283     1041.405        1.009        0.197      127.400       21.362        0.028      344.227       20.896      866.163
07/17/2013  09:15:00       67.834       71.456      -10.285       20.477       20.521       21.991      419.293      421.116      483.606        0.557        0.066       98.526       13.405        0.019      344.037       20.572      866.161
07/17/2013  09:16:00       13.509       49.772        4.221       30.005       41.174       28.978      900.289     1695.330      839.744        0.306        0.172       51.572       23.706        0.211      344.253       20.941      866.152
07/17/2013  09:17:00      -15.612        0.849       -2.413       15.193       22.268       24.086      230.822      495.882      580.116        0.078        0.065       15.635       12.086        0.598      344.478       21.326      866.154
07/17/2013  09:18:00      -26.973       -5.793       -7.830       16.687       10.842       12.519      278.459      117.554      156.724        0.069        0.028       27.588       10.205        0.137      344.087       20.656      866.158
07/17/2013  09:19:00       -2.738       -7.469       11.687       12.733       14.134       18.636      162.137      199.756      347.295        0.045        0.035        7.955        8.088        1.034      344.619       21.568      866.151
07/17/2013  09:20:00       14.575       35.710       17.063       27.255       23.746       23.539      742.860      563.865      554.069        0.182        0.093       38.570       11.343        0.086      344.586       21.511      866.136
07/17/2013  09:21:00        0.953       52.775       14.935       33.600       43.447       27.131     1128.971     1887.603      736.086        0.338        0.188       52.784       30.843        0.341      344.781       21.845      866.129
07/17/2013  09:22:00       41.538       28.809       20.901       46.801       40.352       35.035     2190.305     1628.310     1227.439        0.402        0.252       50.551       23.915        0.224      344.916       22.074      866.113
07/17/2013  09:23:00       93.973       63.330        8.303       55.259       35.928       34.437     3053.507     1290.801     1185.914        0.922        0.277      113.320       22.954        0.041      344.527       21.411      866.105
07/17/2013  09:24:00       56.641       35.049       21.197       53.249       30.778       32.007     2835.456      947.296     1024.468        0.485        0.240       66.608       22.793        0.117      344.788       21.856      866.095
07/17/2013  09:25:00       29.330      105.920        5.103       49.131       46.320       38.116     2413.904     2145.569     1452.801        0.906        0.301      109.906       32.266        0.086      344.618       21.565      866.099
07/17/2013  09:26:00       -3.953       52.426       11.325       19.237       61.932       25.743      370.070     3835.517      662.712        0.388        0.243       52.575       22.958        0.191      345.235       22.622      866.099
07/17/2013  09:27:00       -2.374      -12.852       17.920       28.347       56.652       28.442      803.575     3209.492      808.937        0.266        0.241       13.070       24.531        3.523      344.584       21.509      866.103
07/17/2013  09:28:00       19.402      -47.102        2.285       26.385       22.718       24.278      696.188      516.111      589.411        0.220        0.090       50.942       18.942        0.138      343.989       20.489      866.098
07/17/2013  09:29:00       35.225       -9.830       24.282       39.382       38.287       31.358     1550.917     1465.918      983.342        0.296        0.200       36.571       26.825        0.538      344.211       20.869      866.097
07/17/2013  09:30:00       18.578      -26.067       11.265       21.519       24.963       26.041      463.062      623.164      678.156        0.146        0.088       32.010       12.677        0.157      344.270       20.971      866.087
07/17/2013  09:31:00       23.340       67.387        9.681       30.988       43.426       28.102      960.238     1885.780      789.700        0.441        0.182       71.314       23.458        0.108      344.585       21.510      866.090
07/17/2013  09:32:00       -9.221       55.080        3.411       31.231       39.640       29.559      975.354     1571.336      873.712        0.327        0.171       55.846       23.146        0.172      344.889       22.030      866.099
07/17/2013  09:33:00      -87.782       49.481       -7.252       27.604       23.844       19.768      761.989      568.527      390.773        0.596        0.086      100.768        7.925        0.006      344.148       20.761      866.092
07/17/2013  09:34:00       -7.490       10.972       26.690       28.760       26.465       29.575      827.136      700.390      874.677        0.165        0.120       13.285       17.445        1.724      345.135       22.452      866.085
07/17/2013  09:35:00       27.281        2.221       23.680       25.111       31.040       26.733      630.557      963.451      714.637        0.181        0.115       27.372       19.242        0.494      344.715       21.733      866.084
07/17/2013  09:36:00       47.791       59.607       41.319       54.133       35.111       39.870     2930.403     1232.769     1589.583        0.665        0.288       76.400       30.960        0.164      344.538       21.429      866.073
07/17/2013  09:37:00       14.634       59.764       68.334       40.634       48.288       43.741     1651.107     2331.750     1913.309        0.717        0.295       61.530       34.834        0.320      344.875       22.006      866.056
07/17/2013  09:38:00       81.528       64.585       13.805       32.627       34.259       34.586     1064.548     1173.665     1196.197        0.722        0.172      104.010        7.793        0.006      344.700       21.705      866.055
07/17/2013  09:39:00       27.740      -17.905       23.935       24.857       46.871       31.768      617.872     2196.919     1009.219        0.274        0.191       33.017       23.344        0.500      344.897       22.046      866.051
07/17/2013  09:40:00       95.039       74.316       32.257       35.053       35.682       39.996     1228.702     1273.171     1599.662        0.985        0.205      120.645       16.264        0.018      344.508       21.377      866.047
07/17/2013  09:41:00       42.913       64.328       11.228       30.411       31.926       25.224      924.835     1019.264      636.242        0.434        0.129       77.328       19.405        0.063      344.585       21.508      866.047
07/17/2013  09:42:00       48.984       58.703       44.076       47.909       37.469       36.015     2295.289     1403.890     1297.072        0.639        0.250       76.456       31.632        0.171      345.029       22.268      866.055
07/17/2013  09:43:00      105.814       46.060       38.740       92.274       45.315       41.959     8514.410     2053.431     1760.519        1.357        0.616      115.404       20.625        0.032      344.939       22.115      866.051
07/17/2013  09:44:00      134.186       95.906       50.388       67.137       57.908       59.216     4507.424     3353.352     3506.524        2.055        0.568      164.936       44.137        0.072      344.562       21.467      866.052
07/17/2013  09:45:00      131.807      101.458       39.319       66.495       50.752       48.999     4421.638     2575.777     2400.895        1.930        0.470      166.333       39.466        0.056      344.846       21.953      866.051
07/17/2013  09:46:00      140.628       89.309       39.920       50.164       41.235       32.861     2516.463     1700.290     1079.859        1.732        0.265      166.590       23.884        0.021      344.615       21.558      866.058
07/17/2013  09:47:00       11.186       54.317       15.820       36.022       45.619       38.001     1297.591     2081.130     1444.039        0.407        0.241       55.457       25.952        0.219      345.220       22.595      866.065
07/17/2013  09:48:00       12.139       15.976       20.838       19.874       18.077       21.330      394.981      326.765      454.973        0.101        0.059       20.065       13.465        0.450      345.278       22.696      866.059
07/17/2013  09:49:00        8.489       17.463       24.089       20.489       22.810       30.558      419.784      520.299      933.788        0.142        0.094       19.416       16.903        0.758      345.359       22.834      866.050
07/17/2013  09:50:00       26.440       35.696       34.549       33.725       30.309       35.007     1137.350      918.658     1225.515        0.322        0.164       44.422       27.507        0.383      344.710       21.724      866.057
07/17/2013  09:51:00      105.687       46.694        9.949       45.496       55.259       41.292     2069.864     3053.541     1705.022        1.014        0.341      115.543       15.580        0.018      344.651       21.621      866.058
07/17/2013  09:52:00       69.022      111.278       -4.614       50.991       41.612       40.159     2600.063     1731.577     1612.738        1.156        0.297      130.946       30.025        0.053      345.045       22.295      866.045
07/17/2013  09:53:00       76.030       56.850      -13.142       56.628       64.398       38.463     3206.738     4147.148     1479.428        0.901        0.442       94.934       12.566        0.018      344.829       21.924      866.049
07/17/2013  09:54:00       81.686       71.166       37.186       45.589       36.192       45.236     2078.401     1309.891     2046.317        0.928        0.272      108.339       30.270        0.078      344.988       22.201      866.039
07/17/2013  09:55:00       34.002      -13.285        9.456       36.482       61.553       34.353     1330.931     3788.800     1180.133        0.386        0.315       36.505       27.466        0.566      345.021       22.256      866.040
07/17/2013  09:56:00       16.668        6.558       28.047       37.224       36.953       19.279     1385.635     1365.504      371.695        0.211        0.156       17.912       11.346        0.401      345.245       22.638      866.038
07/17/2013  09:57:00       25.317      -11.618       20.849       35.525       78.197       30.786     1262.016     6114.839      947.780        0.477        0.416       27.855       28.130        1.020      345.156       22.486      866.036
07/17/2013  09:58:00       60.175      -34.676       14.128       46.452       40.105       39.581     2157.788     1608.411     1566.677        0.518        0.267       69.452       28.760        0.171      345.170       22.510      866.036
07/17/2013  09:59:00       25.232       17.701       30.668       34.519       39.628       32.465     1191.590     1570.364     1053.950        0.285        0.191       30.822       14.924        0.234      345.453       22.994      866.033
07/17/2013  10:00:00       43.480      -19.914       18.122       41.567       47.898       44.079     1727.792     2294.191     1942.916        0.429        0.298       47.823       38.937        0.663      345.456       23.001      866.043
07/17/2013  10:01:00       32.487        9.862       53.455       46.846       45.181       45.215     2194.554     2041.324     2044.406        0.514        0.314       33.950       24.213        0.509      345.365       22.844      866.038
07/17/2013  10:02:00       51.817      -29.705        4.805       25.311       28.563       27.162      640.658      815.859      737.783        0.289        0.110       59.728       23.162        0.150      345.036       22.282      866.055
07/17/2013  10:03:00       48.168       11.103       21.403       45.839       28.635       32.845     2101.251      819.947     1078.768        0.345        0.200       49.431       17.518        0.126      344.860       21.980      866.041
07/17/2013  10:04:00       21.617        6.355       16.026       28.519       24.311       25.298      813.332      591.045      639.983        0.140        0.102       22.532       22.764        1.021      345.621       23.284      866.034
07/17/2013  10:05:00       31.898      -18.672       24.884       32.734       46.031       25.701     1071.491     2118.861      660.519        0.292        0.193       36.962       24.393        0.436      345.295       22.723      866.025
07/17/2013  10:06:00      159.636       78.936       12.629       91.593       72.925       47.456     8389.299     5318.097     2252.072        2.391        0.798      178.086       10.645        0.004      345.226       22.602      866.011
07/17/2013  10:07:00      108.534       93.095       17.049       86.036       65.495       57.626     7402.151     4289.640     3320.711        1.787        0.751      142.991       31.363        0.048      345.434       22.961      866.010
07/17/2013  10:08:00       67.572       21.023       20.450       74.277       37.084       34.210     5517.010     1375.246     1170.345        0.674        0.403       70.766       19.169        0.073      345.331       22.786      866.008
07/17/2013  10:09:00       17.720       14.879       15.180       27.595       31.580       25.641      761.464      997.302      657.461        0.159        0.121       23.138        9.314        0.162      345.623       23.287      866.004
07/17/2013  10:10:00       38.101      106.110      -13.783       43.459       59.193       36.420     1888.684     3503.807     1326.438        0.981        0.336      112.744       25.429        0.051      345.436       22.966      866.001
07/17/2013  10:11:00       91.774       69.484       17.317       40.302       37.332       33.879     1624.279     1393.668     1147.791        0.886        0.208      115.111       23.214        0.041      345.005       22.228      865.990
07/17/2013  10:12:00       55.542       57.155       18.277       58.042       37.470       32.903     3368.905     1403.977     1082.598        0.627        0.293       79.696       24.543        0.095      345.333       22.789      865.987
07/17/2013  10:13:00      -34.008      118.095        2.288       36.521       63.243       32.051     1333.818     3999.629     1027.260        1.073        0.318      122.894       34.315        0.078      345.705       23.429      865.984
07/17/2013  10:14:00      -50.314       17.960        2.015       41.272       30.652       33.204     1703.386      939.530     1102.538        0.330        0.187       53.423       31.245        0.342      345.694       23.408      865.974
07/17/2013  10:15:00       12.106       31.056       26.560       64.857       36.000       29.284     4206.436     1296.029      857.560        0.409        0.318       33.332       17.622        0.280      346.146       24.184      865.964
07/17/2013  10:16:00       58.546       71.035       -9.739       57.813       64.494       31.362     3342.362     4159.439      983.573        0.853        0.424       92.052       21.785        0.056      345.507       23.086      865.966
07/17/2013  10:17:00      -22.821       39.824       14.750       34.410       37.241       25.726     1184.066     1386.912      661.830        0.278        0.162       45.899       12.997        0.080      345.878       23.725      865.965
07/17/2013  10:18:00        0.496        8.714       19.591       22.427       26.352       25.084      502.985      694.418      629.198        0.114        0.091        8.728       19.147        4.812      346.443       24.696      865.967
07/17/2013  10:19:00       23.915       32.191       34.903       29.730       31.724       24.068      883.874     1006.436      579.265        0.265        0.123       40.103       18.161        0.205      346.313       24.473      865.956
07/17/2013  10:20:00       33.804      -42.462       19.882       35.726       52.232       36.353     1276.340     2728.213     1321.540        0.433        0.266       54.274       31.702        0.341      345.582       23.218      865.961
07/17/2013  10:21:00        4.136       -7.242       25.676       35.594       56.247       38.686     1266.909     3163.735     1496.643        0.333        0.296        8.340       37.964       20.724      345.906       23.772      865.948
07/17/2013  10:22:00       70.138      100.248       77.895       51.651       40.042       40.648     2667.839     1603.389     1652.296        1.348        0.296      122.348       20.453        0.028      345.442       22.975      865.942
07/17/2013  10:23:00       41.888       79.502       48.951       48.614       48.956       50.823     2363.303     2396.712     2582.984        0.891        0.367       89.862       33.696        0.141      345.374       22.860      865.944
07/17/2013  10:24:00       54.774       72.744      -10.006       55.818       41.941       36.155     3115.643     1759.072     1307.168        0.729        0.309       91.060       22.609        0.062      345.356       22.829      865.939
07/17/2013  10:25:00       13.448       -7.052       15.831       40.884       38.094       32.037     1671.487     1451.161     1026.369        0.231        0.207       15.185       21.558        2.015      345.739       23.484      865.940
07/17/2013  10:26:00       31.844       13.945       30.867       51.653       33.758       30.300     2668.063     1139.602      918.093        0.344        0.236       34.764       22.685        0.426      345.595       23.239      865.923
07/17/2013  10:27:00       -4.450       23.646        3.451       26.678       35.706       27.055      711.718     1274.906      731.958        0.165        0.136       24.061       21.368        0.789      345.720       23.451      865.930
07/17/2013  10:28:00       20.041       57.164       21.120       33.768       36.742       31.226     1140.302     1349.938      975.062        0.379        0.173       60.575       29.185        0.232      346.038       23.999      865.916
07/17/2013  10:29:00       12.621       74.061       12.387       32.542       50.693       40.098     1059.011     2569.745     1607.856        0.552        0.262       75.129       31.926        0.181      346.184       24.250      865.907
07/17/2013  10:30:00       17.241        2.402       23.330       26.300       19.166       26.482      691.707      367.331      701.276        0.130        0.088       17.407       15.495        0.792      346.117       24.134      865.902
07/17/2013  10:31:00       -1.789       13.502       22.374       15.506       18.852       18.046      240.451      355.405      325.663        0.080        0.046       13.620       12.163        0.797      346.849       25.395      865.897
07/17/2013  10:32:00       21.234        6.630       23.138       40.569       16.907       21.596     1645.837      285.843      466.400        0.171        0.120       22.245       10.974        0.243      346.469       24.739      865.888
07/17/2013  10:33:00       18.196       57.381       33.351       47.349       38.741       36.038     2241.945     1500.873     1298.734        0.489        0.252       60.197       29.875        0.246      346.428       24.669      865.876
07/17/2013  10:34:00      -12.572       29.480       28.974       30.967       45.224       27.218      958.932     2045.231      740.840        0.281        0.187       32.049       28.032        0.765      346.865       25.423      865.874
07/17/2013  10:35:00      -24.988       62.450       12.200       29.575       42.522       31.262      874.683     1808.081      977.338        0.417        0.183       67.263       28.934        0.185      346.305       24.459      865.864
07/17/2013  10:36:00       12.827       12.514       35.673       21.674       14.470       16.944      469.749      209.390      287.111        0.128        0.048       17.920       11.225        0.392      347.204       26.005      865.863
07/17/2013  10:37:00      -47.146       19.584        6.539       44.692       27.469       29.936     1997.386      754.557      896.162        0.315        0.182       51.052       30.407        0.355      346.117       24.135      865.850
07/17/2013  10:38:00      -28.849      -13.313       12.681       30.580       25.799       23.714      935.108      665.610      562.373        0.167        0.108       31.772       20.975        0.436      346.149       24.190      865.845
07/17/2013  10:39:00       37.372      -21.665       17.552       29.404       38.248       30.568      864.567     1462.895      934.427        0.272        0.163       43.197       19.741        0.209      345.541       23.147      865.830
07/17/2013  10:40:00       70.769       91.020       46.890       54.860       51.218       41.079     3009.578     2623.252     1687.523        1.140        0.366      115.295       30.563        0.070      345.919       23.793      865.832
07/17/2013  10:41:00       78.099       56.729        7.112       36.244       32.205       22.837     1313.616     1037.178      521.534        0.612        0.144       96.528       17.058        0.031      345.568       23.191      865.828
07/17/2013  10:42:00       -7.132       40.820       -9.426       32.372       17.772       21.233     1047.951      315.843      450.846        0.181        0.091       41.439        5.905        0.020      345.880       23.728      865.821
07/17/2013  10:43:00       14.331       30.562       29.009       39.993       25.295       23.908     1599.473      639.840      571.602        0.240        0.141       33.755       12.085        0.128      346.735       25.197      865.811
07/17/2013  10:44:00       28.855       90.791      -13.289       37.416       60.289       40.620     1399.923     3634.760     1650.021        0.797        0.334       95.266       19.672        0.043      345.896       23.754      865.802
07/17/2013  10:45:00       23.946       50.705      -28.409       38.651       86.502       22.213     1493.929     7482.572      493.411        0.671        0.473       56.075       16.412        0.086      345.775       23.549      865.794
07/17/2013  10:46:00       51.470       18.332        5.523       36.624       37.410       31.444     1341.288     1399.477      988.725        0.337        0.186       54.637       16.541        0.092      345.919       23.795      865.792
07/17/2013  10:47:00      105.063       83.361       39.863       45.641       56.750       42.233     2083.109     3220.609     1783.618        1.333        0.354      134.117       12.070        0.008      345.675       23.374      865.782
07/17/2013  10:48:00       47.985      -34.393       12.374       29.934       38.419       30.268      896.025     1476.036      916.138        0.346        0.164       59.038       22.560        0.146      345.825       23.634      865.780
07/17/2013  10:49:00       24.373      -20.061       26.641       34.385       59.732       39.010     1182.350     3567.924     1521.810        0.399        0.314       31.567       41.988        1.769      346.370       24.569      865.763
07/17/2013  10:50:00      -16.851       -5.663       43.426       29.002       49.782       42.246      841.116     2478.201     1784.764        0.365        0.255       17.777       40.154        5.102      346.852       25.399      865.751
07/17/2013  10:51:00       17.859      -11.435       35.178       34.259       57.561       50.454     1173.700     3313.282     2545.588        0.436        0.352       21.206       46.767        4.864      346.711       25.155      865.751
07/17/2013  10:52:00      -39.812      -24.250       23.008       41.309       53.133       44.070     1706.475     2823.096     1942.142        0.459        0.324       46.616       42.213        0.820      346.487       24.769      865.741
07/17/2013  10:53:00        3.360      -51.724        8.914       34.176       53.390       46.376     1167.992     2850.541     2150.779        0.447        0.308       51.833       37.395        0.520      347.028       25.702      865.724
07/17/2013  10:54:00        2.182      -23.593       30.776       23.905       37.894       27.492      571.431     1435.931      755.784        0.214        0.138       23.693       20.582        0.755      347.181       25.963      865.726
07/17/2013  10:55:00       10.720     -102.688        3.721       40.804       76.518       41.542     1664.956     5855.014     1725.777        0.996        0.462      103.246       47.598        0.213      346.559       24.893      865.711
07/17/2013  10:56:00        2.971      -64.182       -1.820       53.710       56.673       35.661     2884.721     3211.772     1271.718        0.575        0.368       64.250       32.445        0.255      346.622       25.002      865.706
07/17/2013  10:57:00      -27.750       -7.011       14.789       31.536       23.114       23.418      994.517      534.274      548.410        0.156        0.104       28.622       19.629        0.470      347.190       25.981      865.687
07/17/2013  10:58:00      -58.743      -52.870       -7.114       38.734       30.275       21.097     1500.339      916.572      445.102        0.458        0.143       79.032       14.434        0.033      346.373       24.574      865.691
07/17/2013  10:59:00        1.509      -23.085       25.760       31.715       48.980       32.864     1005.812     2399.082     1080.063        0.284        0.224       23.134       23.907        1.068      347.220       26.033      865.687
07/17/2013  11:00:00       83.860     -100.939       25.754       84.125       95.069       71.935     7076.972     9038.179     5174.705        1.958        1.064      131.230       60.602        0.213      346.816       25.334      865.668
07/17/2013  11:01:00       33.555       29.897       58.387       61.400       81.019       33.462     3769.999     6564.023     1119.730        0.844        0.573       44.942       37.899        0.711      346.904       25.487      865.675
07/17/2013  11:02:00      124.809       81.544       38.067       50.088       50.761       51.904     2508.822     2576.645     2694.069        1.573        0.389      149.086       27.159        0.033      346.539       24.858      865.672
07/17/2013  11:03:00      179.101      107.005       41.311       62.414       46.156       40.070     3895.523     2130.389     1605.591        2.643        0.382      208.632       29.392        0.020      346.347       24.525      865.662
07/17/2013  11:04:00      168.816       79.423       40.052       55.371       67.316       53.362     3065.937     4531.494     2847.470        2.343        0.522      186.566       43.328        0.054      346.174       24.229      865.666
07/17/2013  11:05:00       61.386       58.919       29.858       35.686       29.437       43.735     1273.485      866.562     1912.743        0.609        0.203       85.087       17.938        0.044      346.290       24.431      865.662
07/17/2013  11:06:00       45.570      -19.920       10.839       39.529       86.419       34.539     1562.563     7468.176     1192.911        0.641        0.511       49.734       43.903        0.779      346.716       25.164      865.653
07/17/2013  11:07:00        6.118      -45.937       26.481       44.549       60.179       51.452     1984.600     3621.526     2647.283        0.555        0.413       46.343       28.425        0.376      347.323       26.212      865.631
07/17/2013  11:08:00       35.644       18.870       64.050       49.552       69.009       50.477     2455.424     4762.223     2547.970        0.775        0.488       40.331       50.106        1.543      347.186       25.973      865.626
07/17/2013  11:09:00       21.387      -65.838       29.982       56.992       76.104       59.638     3248.047     5791.782     3556.667        0.914        0.630       69.225       44.254        0.409      347.080       25.789      865.606
07/17/2013  11:10:00       34.681      -73.383       -5.963       61.971       95.153       63.346     3840.363     9054.176     4012.677        1.176        0.845       81.165       54.217        0.446      346.921       25.516      865.618
07/17/2013  11:11:00       33.026     -131.265        3.246       62.986       66.569       52.850     3967.233     4431.476     2793.103        1.476        0.560      135.356       38.339        0.080      346.702       25.140      865.610
07/17/2013  11:12:00       30.146     -179.123      -12.690       95.689       99.438       48.403     9156.289     9887.824     2342.874        2.727        1.069      181.642       40.500        0.050      346.626       25.007      865.615
07/17/2013  11:13:00       33.482      -41.313       37.368       60.514       89.666       73.756     3662.000     8039.975     5439.919        1.068        0.857       53.177       67.092        1.592      346.922       25.519      865.611
07/17/2013  11:14:00      -29.626     -133.004       13.714       65.898       88.998       50.254     4342.609     7920.601     2525.425        1.677        0.739      136.264       43.649        0.103      346.805       25.315      865.610
07/17/2013  11:15:00       77.726     -214.993      -56.997       87.677       72.798       45.836     7687.218     5299.502     2100.972        3.530        0.754      228.611       19.851        0.008      346.651       25.048      865.609
07/17/2013  11:16:00       26.519       14.417       40.339       53.830       65.333       44.423     2897.665     4268.373     1973.375        0.584        0.457       30.185       51.661        2.929      346.955       25.575      865.645
07/17/2013  11:17:00       28.845       40.226       44.044       37.861       25.055       30.725     1433.482      627.742      944.008        0.370        0.150       49.499       18.818        0.145      346.773       25.262      865.630
07/17/2013  11:18:00      -10.117       43.343        5.716       28.842       39.751       31.205      831.859     1580.119      973.731        0.270        0.169       44.508       13.511        0.092      346.899       25.479      865.630
07/17/2013  11:19:00      -74.961        1.779       -8.724       44.379       33.166       22.208     1969.489     1099.955      493.200        0.463        0.178       74.982       15.378        0.042      346.757       25.236      865.622
07/17/2013  11:20:00     -147.348      -64.242       -5.685       45.572       35.200       23.460     2076.809     1239.050      550.352        1.487        0.193      160.744       17.023        0.011      346.347       24.530      865.617
07/17/2013  11:21:00     -158.860      -62.898       -6.069       61.405       50.258       31.231     3770.593     2525.825      975.389        1.825        0.364      170.859       31.737        0.035      346.452       24.708      865.611
07/17/2013  11:22:00     -113.829      -46.220       -4.123       76.165       44.021       31.900     5801.038     1937.816     1017.591        1.193        0.438      122.855       40.552        0.109      346.414       24.644      865.615
07/17/2013  11:23:00      -27.295     -100.715      -10.707       40.068       31.357       18.152     1605.422      983.240      329.513        0.696        0.146      104.348       13.402        0.016      346.251       24.366      865.610
07/17/2013  11:24:00      -96.156      -34.826        3.771       71.001       49.070       34.455     5041.185     2407.836     1187.116        0.955        0.432      102.269       28.564        0.078      346.457       24.718      865.611
07/17/2013  11:25:00      -12.229      -70.132       20.262       66.690       48.240       38.909     4447.595     2327.145     1513.927        0.688        0.414       71.190       38.951        0.299      346.881       25.451      865.593
07/17/2013  11:26:00      -13.445     -102.783        9.793       51.641       58.173       32.466     2666.842     3384.121     1054.044        0.897        0.355      103.659       30.072        0.084      346.656       25.061      865.588
07/17/2013  11:27:00     -107.861      -85.333       -3.269       92.523       59.653       36.947     8560.562     3558.491     1365.061        1.620        0.674      137.534       37.537        0.074      346.532       24.845      865.589
07/17/2013  11:28:00      -55.237      -42.862       17.053       69.764       35.467       31.516     4867.010     1257.935      993.244        0.615        0.356       69.916       35.125        0.252      346.941       25.551      865.577
07/17/2013  11:29:00      -71.573      -15.251        7.561       60.785       44.158       22.800     3694.784     1949.955      519.859        0.579        0.308       73.180       24.935        0.116      346.696       25.131      865.588
07/17/2013  11:30:00      -78.012       -6.179       -6.936       50.249       20.740       19.113     2524.961      430.144      365.291        0.475        0.166       78.256       16.332        0.044      346.447       24.702      865.581
07/17/2013  11:31:00      -19.702       -7.776       20.129       16.879       12.600       15.718      284.912      158.765      247.061        0.077        0.035       21.180       12.861        0.369      347.259       26.098      865.582
07/17/2013  11:32:00       36.809       11.541       24.387       46.109       20.084       25.776     2126.067      403.355      664.386        0.264        0.160       38.576       28.312        0.539      347.598       26.684      865.575
07/17/2013  11:33:00      -12.930      -17.774       24.537       29.303       24.257       21.122      858.658      588.391      446.159        0.149        0.095       21.980       15.329        0.486      347.504       26.522      865.575
07/17/2013  11:34:00      -71.157      -30.124       -6.782       41.711       22.583       21.587     1739.804      509.994      465.994        0.437        0.136       77.271       12.585        0.027      346.654       25.056      865.579
07/17/2013  11:35:00      -20.291      -23.084        2.971       37.343       47.448       27.631     1394.492     2251.358      763.457        0.268        0.220       30.734       23.143        0.567      347.256       26.094      865.572
07/17/2013  11:36:00       24.367       43.769       17.431       44.250       29.047       32.840     1958.068      843.731     1078.497        0.335        0.194       50.095       17.042        0.116      347.529       26.564      865.577
07/17/2013  11:37:00       80.882       60.593       24.614       65.304       43.851       38.306     4264.608     1922.904     1467.384        0.924        0.383      101.061       27.870        0.076      347.150       25.912      865.557
07/17/2013  11:38:00       55.934       46.635       13.725       51.060       39.280       35.284     2607.125     1542.927     1244.947        0.544        0.270       72.825       26.286        0.130      347.009       25.668      865.557
07/17/2013  11:39:00       51.924       29.982        5.241       35.708       43.174       32.721     1275.033     1863.961     1070.637        0.392        0.210       59.958       20.169        0.113      346.829       25.358      865.543
07/17/2013  11:40:00       -5.939       83.930       14.758       45.656       71.525       35.641     2084.455     5115.842     1270.254        0.788        0.424       84.139       40.782        0.235      347.317       26.200      865.537
07/17/2013  11:41:00       57.742       47.295       13.182       88.567       50.888       44.664     7844.117     2589.546     1994.898        0.908        0.621       74.639       30.336        0.165      347.608       26.702      865.519
07/17/2013  11:42:00       99.397       94.169       -0.008       87.924       67.458       44.589     7730.544     4550.609     1988.181        1.651        0.713      136.922       28.395        0.043      347.023       25.691      865.515
07/17/2013  11:43:00       13.676      191.733      -27.646       36.619       60.481       34.532     1340.940     3657.905     1192.464        2.195        0.310      192.221       33.442        0.030      346.828       25.355      865.494
07/17/2013  11:44:00       16.816      201.720      -14.761       61.437       75.563       51.168     3774.463     5709.704     2618.151        2.664        0.605      202.420       46.455        0.053      347.113       25.843      865.482
07/17/2013  11:45:00      163.526      124.368       18.480       95.322       58.369       41.205     9086.333     3406.950     1697.833        2.837        0.710      205.446       27.376        0.018      346.978       25.612      865.481
07/17/2013  11:46:00      101.617       68.231       24.564       78.601       68.573       52.694     6178.159     4702.222     2776.643        1.462        0.683      122.399       29.251        0.057      347.407       26.352      865.466
07/17/2013  11:47:00      139.154      143.769        1.905       88.490       75.455       62.526     7830.524     5693.442     3909.530        2.873        0.872      200.083       50.926        0.065      347.019       25.683      865.472
07/17/2013  11:48:00       43.586      120.040       -8.705       57.948       64.786       49.474     3358.019     4197.200     2447.684        1.319        0.500      127.708       42.104        0.109      347.093       25.813      865.472
07/17/2013  11:49:00       15.037      110.829      -11.783       56.108       66.557       42.893     3148.162     4429.883     1839.777        1.103        0.471      111.844       39.851        0.127      346.921       25.517      865.479
07/17/2013  11:50:00      -34.996       38.981       11.285       33.645       27.967       32.307     1131.969      782.159     1043.763        0.291        0.148       52.385       25.384        0.235      347.529       26.566      865.467
07/17/2013  11:51:00      -72.198       27.746       -5.535       37.457       33.266       24.940     1403.062     1106.607      622.023        0.457        0.157       77.346       15.569        0.041      346.860       25.411      865.461
07/17/2013  11:52:00       11.137       51.826       25.265       30.110       55.975       34.792      906.632     3133.228     1210.479        0.435        0.263       53.010       34.699        0.428      347.600       26.688      865.450
07/17/2013  11:53:00       -7.023       45.067       26.355       32.876       37.013       28.009     1080.805     1369.950      784.502        0.300        0.162       45.611       23.050        0.255      347.872       27.158      865.445
07/17/2013  11:54:00      -32.116       97.473       15.664       39.372       59.625       41.517     1550.155     3555.164     1723.623        0.880        0.341      102.628       30.092        0.086      347.497       26.510      865.433
07/17/2013  11:55:00      -51.244       67.549        3.504       57.670       48.053       37.868     3325.787     2309.090     1433.969        0.713        0.353       84.787       39.100        0.213      347.451       26.431      865.447
07/17/2013  11:56:00       10.211      253.875      -29.679       52.889       63.272       30.953     2797.266     4003.375      958.064        3.660        0.388      254.080       20.437        0.006      347.172       25.946      865.433
07/17/2013  11:57:00      -13.905      234.129      -29.598       42.180       51.124       30.312     1779.167     2613.686      918.813        3.060        0.266      234.541       28.184        0.014      346.947       25.558      865.439
07/17/2013  11:58:00      -50.214      168.081      -17.234       29.652       56.949       33.402      879.227     3243.153     1115.703        1.815        0.262      175.422       21.022        0.014      347.162       25.931      865.436
07/17/2013  11:59:00      -43.436       23.232       12.600       39.020       26.167       32.384     1522.564      684.711     1048.710        0.292        0.163       49.258       29.462        0.358      347.371       26.293      865.438
07/17/2013  12:00:00        0.793       12.706       13.171       43.484       29.814       23.386     1890.837      888.890      546.890        0.183        0.166       12.731       14.624        1.320      347.706       26.870      865.419
07/17/2013  12:01:00      -35.426        5.126       26.475       47.245       51.067       35.755     2232.099     2607.808     1278.413        0.405        0.306       35.795       26.035        0.529      348.069       27.498      865.406
07/17/2013  12:02:00      -73.975      -12.402       28.823       81.908       83.921       42.846     6708.928     7042.748     1835.770        1.102        0.779       75.007       57.673        0.591      347.768       26.977      865.413
07/17/2013  12:03:00      -66.670      -39.133        9.907       59.540       33.872       29.309     3544.989     1147.339      859.037        0.581        0.278       77.306       24.717        0.102      347.612       26.707      865.410
07/17/2013  12:04:00      -53.231      -44.448        5.586       55.330       51.456       32.062     3061.459     2647.682     1027.988        0.579        0.337       69.348       26.350        0.144      347.440       26.411      865.422
07/17/2013  12:05:00      -54.168      -21.973       -2.055       26.568       24.238       14.567      705.875      587.500      212.192        0.246        0.075       58.455       13.563        0.054      347.344       26.246      865.423
07/17/2013  12:06:00      -19.570       17.444        8.826       53.031       26.416       24.473     2812.266      697.803      598.930        0.244        0.205       26.216       22.271        0.722      347.774       26.988      865.423
07/17/2013  12:07:00      -34.989       -7.401        5.369       35.599       31.202       30.766     1267.296      973.564      946.563        0.225        0.159       35.763       25.481        0.508      347.795       27.023      865.405
07/17/2013  12:08:00      -13.569      -15.601       16.281       41.141       37.591       29.536     1692.614     1413.092      872.371        0.233        0.199       20.676       24.105        1.359      347.806       27.042      865.403
07/17/2013  12:09:00      -37.941      -87.343       17.332       41.135       50.577       52.127     1692.120     2557.984     2717.193        0.817        0.348       95.228       22.125        0.054      347.492       26.500      865.391
07/17/2013  12:10:00        0.481       55.228       85.898       40.944       62.907       33.286     1676.386     3957.326     1107.972        0.858        0.337       55.230       31.507        0.325      347.738       26.925      865.378
07/17/2013  12:11:00       32.294        5.981       27.048       37.146       35.065       34.104     1379.809     1229.524     1163.088        0.279        0.189       32.843       31.910        0.944      347.324       26.210      865.373
07/17/2013  12:12:00       54.171       35.621       34.546       32.420       42.667       44.538     1051.066     1820.500     1983.593        0.513        0.243       64.834       29.401        0.206      347.395       26.333      865.354
07/17/2013  12:13:00       -9.119       42.242      -19.632       35.242       35.712       25.133     1242.006     1275.318      631.661        0.270        0.157       43.215       20.892        0.234      347.277       26.130      865.339
07/17/2013  12:14:00        0.259       41.324       33.533       41.061       48.968       28.471     1686.009     2397.860      810.584        0.386        0.245       41.325       21.155        0.262      348.131       27.604      865.315
07/17/2013  12:15:00       -9.851       46.331       19.813       27.544       41.808       26.783      758.652     1747.946      717.343        0.293        0.161       47.366       23.355        0.243      348.265       27.836      865.300
07/17/2013  12:16:00      -22.724       38.020       17.352       38.913       48.610       23.476     1514.228     2362.900      551.103        0.334        0.221       44.294       26.100        0.347      348.074       27.506      865.275
07/17/2013  12:17:00      -50.594       33.750       -1.326       30.675       28.690       35.400      940.938      823.126     1253.160        0.336        0.151       60.818       21.966        0.130      347.832       27.087      865.280
07/17/2013  12:18:00      -88.811        2.010        2.522       44.325       41.321       30.046     1964.669     1707.426      902.770        0.624        0.229       88.834       27.011        0.092      347.769       26.977      865.274
07/17/2013  12:19:00     -124.483     -101.776       -4.469       81.406       51.924       32.478     6626.892     2696.147     1054.804        1.812        0.519      160.793       31.647        0.039      347.441       26.412      865.266
07/17/2013  12:20:00     -151.228     -117.315       14.526      128.312       74.176       57.897    16463.886     5502.126     3352.043        3.108        1.266      191.397       63.608        0.110      347.851       27.117      865.246
07/17/2013  12:21:00     -173.383      -53.117        2.956       99.873       81.245       47.746     9974.538     6600.736     2279.671        2.587        0.943      181.337       41.994        0.054      347.761       26.962      865.244
07/17/2013  12:22:00      -86.852      -10.260      -11.021       23.631       16.379       17.724      558.408      268.258      314.124        0.446        0.057       87.456       12.226        0.020      347.218       26.028      865.246
07/17/2013  12:23:00      -71.685       -8.766        4.589       64.542       51.340       29.552     4165.695     2635.760      873.302        0.645        0.384       72.219       29.512        0.167      347.956       27.302      865.233
07/17/2013  12:24:00     -104.767     -115.017        6.862       91.912       70.801       38.854     8447.742     5012.821     1509.603        1.961        0.749      155.580       33.355        0.046      347.745       26.936      865.229
07/17/2013  12:25:00     -154.114      -89.170        4.866       84.283       59.477       35.447     7103.641     3537.460     1256.462        2.181        0.595      178.052       28.607        0.026      347.511       26.531      865.215
07/17/2013  12:26:00      -99.408      -49.372       -6.795       47.663       38.414       22.444     2271.737     1475.613      503.742        0.831        0.213      110.994       15.773        0.020      347.527       26.562      865.204
07/17/2013  12:27:00     -140.527      -64.913       -1.979       70.232       64.123       31.848     4932.500     4111.751     1014.296        1.701        0.503      154.795       41.379        0.071      347.618       26.716      865.186
07/17/2013  12:28:00     -155.960      -86.778        5.464       67.379       62.794       41.667     4539.935     3943.059     1736.131        2.105        0.511      178.477       34.341        0.037      347.571       26.635      865.183
07/17/2013  12:29:00     -150.128      -70.754       -8.104       53.046       49.116       34.113     2813.915     2412.412     1163.682        1.700        0.320      165.965       26.349        0.025      347.449       26.425      865.173
07/17/2013  12:30:00     -170.493      -63.710      -13.665       42.616       59.929       30.470     1816.109     3591.452      928.429        1.982        0.317      182.008       24.445        0.018      347.329       26.219      865.164
07/17/2013  12:31:00      -83.961      -32.068        1.650       58.166       24.350       21.260     3383.262      592.920      451.990        0.625        0.221       89.876       26.766        0.089      347.627       26.733      865.154
07/17/2013  12:32:00      -30.442      -61.610        7.723       36.893       38.008       25.404     1361.095     1444.583      645.371        0.412        0.173       68.721       23.819        0.120      347.870       27.153      865.152
07/17/2013  12:33:00      -32.735       32.605      -10.156       27.201       35.951       25.206      739.873     1292.507      635.332        0.245        0.133       46.202       20.415        0.195      347.643       26.762      865.139
07/17/2013  12:34:00      -58.072       19.478       12.478       83.845       39.187       32.058     7029.990     1535.594     1027.734        0.675        0.480       61.251       41.916        0.468      348.499       28.240      865.121
07/17/2013  12:35:00     -131.070      -37.977       -6.756       74.446       84.203       37.669     5542.271     7090.070     1418.988        1.636        0.703      136.461       35.321        0.067      347.964       27.314      865.104
07/17/2013  12:36:00      -12.823       17.291       18.350       31.956       19.485       36.872     1021.208      379.657     1359.553        0.178        0.138       21.527       27.795        1.667      348.430       28.122      865.101
07/17/2013  12:37:00      -33.686       10.075       16.742       29.853       30.798       25.371      891.210      948.509      643.667        0.200        0.124       35.161       19.387        0.304      348.226       27.768      865.086
07/17/2013  12:38:00      -14.141       17.449       33.999       32.939       24.409       20.115     1085.010      595.785      404.622        0.187        0.104       22.460       16.811        0.560      348.726       28.633      865.066
07/17/2013  12:39:00      -77.110       26.541        6.196       62.733       51.552       28.250     3935.460     2657.623      798.042        0.704        0.370       81.550       28.156        0.119      348.271       27.845      865.058
07/17/2013  12:40:00      -43.412       -6.496       -1.221       20.479       32.939       24.163      419.397     1084.965      583.860        0.201        0.104       43.895       15.962        0.132      348.114       27.575      865.044
07/17/2013  12:41:00      -37.221      -31.485       14.570       65.188       38.176       33.873     4249.505     1457.398     1147.360        0.472        0.343       48.752       35.625        0.534      348.427       28.115      865.041
07/17/2013  12:42:00      -19.364      -69.615       -4.994       38.167       39.618       24.401     1456.730     1569.551      595.398        0.443        0.181       72.258       16.488        0.052      347.921       27.242      865.034
07/17/2013  12:43:00      -51.803      -60.721        4.536       64.356       41.058       33.363     4141.701     1685.791     1113.102        0.666        0.347       79.816       30.454        0.146      348.016       27.406      865.021
07/17/2013  12:44:00      -47.145      -19.127        6.192       38.801       38.750       29.792     1505.539     1501.541      887.543        0.326        0.195       50.878       26.865        0.279      348.272       27.848      865.010
07/17/2013  12:45:00      -47.580      -44.968        2.485       53.636       33.890       27.552     2876.843     1148.517      759.097        0.454        0.239       65.467       19.706        0.091      347.998       27.374      865.014
07/17/2013  12:46:00      -47.281      -22.662       -0.289       31.213       17.294       19.752      974.221      299.068      390.161        0.221        0.083       52.432       14.848        0.080      348.006       27.389      865.003
07/17/2013  12:47:00      -40.867       12.399       23.975       57.031       35.930       54.571     3252.582     1290.953     2978.005        0.496        0.376       42.707       51.081        1.431      348.297       27.893      864.993
07/17/2013  12:48:00     -102.635       82.195       -5.860       75.414       64.792       55.081     5687.205     4197.946     3033.875        1.512        0.646      131.491       59.364        0.204      348.306       27.905      864.976
07/17/2013  12:49:00      -66.266      127.429       -9.978       49.308       54.537       36.077     2431.300     2974.293     1301.515        1.372        0.335      143.629       33.351        0.054      348.159       27.652      864.969
07/17/2013  12:50:00      -18.158       49.518        8.628       35.854       46.353       33.444     1285.502     2148.621     1118.482        0.370        0.228       52.742       28.254        0.287      348.560       28.347      864.961
07/17/2013  12:51:00       18.362       26.735       35.412       23.153       17.842       14.300      536.067      318.336      204.479        0.168        0.053       32.433        7.890        0.059      348.713       28.609      864.956
07/17/2013  12:52:00      -61.336       37.400        5.323       47.624       34.188       33.424     2268.028     1168.788     1117.173        0.487        0.228       71.840       34.218        0.227      348.319       27.930      864.933
07/17/2013  12:53:00       23.109        6.205       10.716       24.586       29.222       24.653      604.474      853.939      607.774        0.138        0.103       23.928       12.932        0.292      348.519       28.276      864.909
07/17/2013  12:54:00        1.675       40.030       72.772       38.220       51.586       41.374     1460.802     2661.163     1711.824        0.637        0.292       40.065       36.696        0.839      348.815       28.786      864.883
07/17/2013  12:55:00       40.155       32.366       57.479       64.289       72.780       43.993     4133.090     5296.858     1935.382        0.866        0.568       51.574       38.353        0.553      348.492       28.227      864.875
07/17/2013  12:56:00       57.307       89.685        7.678       60.262       66.738       47.362     3631.515     4453.983     2243.172        1.086        0.516      106.431       33.087        0.097      348.328       27.943      864.871
07/17/2013  12:57:00       71.945      125.693        2.210       77.717       81.993       49.914     6039.991     6722.826     2491.415        1.811        0.763      144.827       45.824        0.100      348.384       28.039      864.854
07/17/2013  12:58:00      114.538      101.857       26.262       63.461       56.891       59.380     4027.325     3236.615     3525.950        1.748        0.539      153.277       38.112        0.062      348.533       28.297      864.842
07/17/2013  12:59:00       71.800       60.611       37.308       53.947       51.358       43.935     2910.331     2637.675     1930.279        0.885        0.374       93.962       13.263        0.020      348.559       28.344      864.827
07/17/2013  13:00:00       68.109       39.054       18.321       72.659       47.629       34.654     5279.340     2268.526     1200.934        0.762        0.437       78.512       22.662        0.083      348.736       28.650      864.812
07/17/2013  13:01:00       17.567       86.865        6.415       42.062       61.092       30.265     1769.233     3732.271      915.983        0.716        0.321       88.624       26.514        0.090      348.426       28.114      864.800
07/17/2013  13:02:00      -19.931       97.476       -6.663       28.373       58.262       34.368      805.000     3394.406     1181.190        0.766        0.269       99.493       32.135        0.104      348.584       28.388      864.791
07/17/2013  13:03:00       61.634       34.839       17.633       72.685       53.960       39.248     5283.045     2911.711     1540.367        0.753        0.487       70.799       23.607        0.111      348.838       28.826      864.763
07/17/2013  13:04:00       24.133       69.289        4.082       44.332       40.820       33.846     1965.365     1666.247     1145.537        0.509        0.239       73.372       25.276        0.119      348.561       28.348      864.750
07/17/2013  13:05:00      -37.083        2.222       -0.442       67.704       36.444       25.021     4583.788     1328.139      626.072        0.396        0.327       37.149       23.823        0.411      348.840       28.830      864.740
07/17/2013  13:06:00      -22.171      109.372        3.510       87.152      108.737       45.838     7595.484    11823.701     2101.131        1.699        1.076      111.597       45.882        0.169      348.684       28.560      864.723
07/17/2013  13:07:00       57.207      119.612       -2.146       64.980       66.709       48.469     4222.463     4450.036     2349.242        1.430        0.551      132.588       37.442        0.080      348.607       28.426      864.703
07/17/2013  13:08:00        2.961       22.352       15.384       45.445       43.991       37.707     2065.269     1935.248     1421.794        0.308        0.271       22.547       25.747        1.304      349.257       29.552      864.691
07/17/2013  13:09:00       21.318       83.588       -5.761       51.803       83.143       37.810     2683.501     6912.748     1429.599        0.925        0.551       86.264       50.054        0.337      348.862       28.868      864.679
07/17/2013  13:10:00        1.746      195.062      -27.451       55.422       64.766       44.562     3071.619     4194.670     1985.754        2.403        0.463      195.070       46.613        0.057      348.427       28.113      864.676
07/17/2013  13:11:00      -29.940      151.689      -11.759       34.383       55.604       36.321     1182.209     3091.810     1319.186        1.482        0.280      154.615       34.830        0.051      348.443       28.143      864.664
07/17/2013  13:12:00      -32.848      113.719       -1.108       29.218       62.881       31.566      853.712     3953.988      996.396        0.991        0.290      118.368       30.414        0.066      348.813       28.784      864.657
07/17/2013  13:13:00      -24.549      115.529        2.360       36.208       59.333       37.961     1311.014     3520.426     1441.047        1.011        0.314      118.108       40.880        0.120      348.976       29.067      864.652
07/17/2013  13:14:00      111.947       91.858        0.423       92.873       54.447       44.179     8625.308     2964.440     1951.812        1.725        0.677      144.810       23.289        0.026      348.789       28.741      864.638
07/17/2013  13:15:00      184.624      100.086       10.345       57.566       41.781       36.924     3313.879     1745.644     1363.404        2.532        0.321      210.007       25.735        0.015      348.232       27.777      864.637
07/17/2013  13:16:00       87.623       77.169       -0.277       55.867       49.843       39.318     3121.088     2484.344     1545.942        1.039        0.358      116.760       24.860        0.045      348.500       28.240      864.635
07/17/2013  13:17:00       15.081       71.564       -2.124       46.980       49.018       36.380     2207.100     2402.758     1323.496        0.564        0.297       73.135       33.309        0.207      348.572       28.367      864.644
07/17/2013  13:18:00      -13.472       82.478        3.893       39.689       59.210       32.817     1575.237     3505.823     1076.986        0.658        0.308       83.571       30.751        0.135      349.018       29.138      864.651
07/17/2013  13:19:00       15.859       50.778       12.803       41.364       49.309       34.702     1710.966     2431.384     1204.237        0.417        0.267       53.197       28.993        0.297      348.912       28.954      864.641
07/17/2013  13:20:00       40.186      -11.776        4.291       49.473       60.235       31.470     2447.584     3628.200      990.385        0.442        0.353       41.876       35.190        0.706      348.867       28.877      864.644
07/17/2013  13:21:00       17.389      -23.980       29.265       29.582       56.803       28.267      875.102     3226.573      799.021        0.332        0.245       29.622       32.475        1.202      348.968       29.052      864.638
07/17/2013  13:22:00       22.676      -38.420       16.402       29.269       42.809       30.903      856.689     1832.601      954.974        0.295        0.182       44.613       17.460        0.153      348.988       29.087      864.618
07/17/2013  13:23:00       72.623      -47.548       18.503       75.579      102.162       57.265     5712.245    10437.165     3279.263        1.365        0.971       86.804       67.033        0.596      348.367       28.013      864.606
07/17/2013  13:24:00       41.521      -12.239       68.937       59.685       76.720       61.567     3562.250     5886.019     3790.436        0.993        0.662       43.288       61.558        2.022      348.967       29.050      864.583
07/17/2013  13:25:00       69.490     -109.349        5.169       62.431       68.733       38.372     3897.675     4724.202     1472.383        1.345        0.505      129.560       32.715        0.064      348.467       28.183      864.567
07/17/2013  13:26:00       35.189      -60.235       11.816       58.156       69.461       30.947     3382.162     4824.771      957.698        0.708        0.458       69.760       35.388        0.257      348.838       28.827      864.560
07/17/2013  13:27:00        1.230     -124.935        8.356       45.978       54.816       32.498     2113.932     3004.760     1056.096        1.093        0.309      124.941       30.483        0.060      349.080       29.245      864.560
07/17/2013  13:28:00        4.569       -9.169       15.287       31.731       41.876       27.948     1006.861     1753.606      781.063        0.194        0.177       10.244       18.874        3.394      348.927       28.981      864.538
07/17/2013  13:29:00        8.976      -49.758        8.862       33.047       29.754       32.152     1092.133      885.330     1033.751        0.282        0.151       50.562        5.959        0.014      349.207       29.465      864.534
07/17/2013  13:30:00       -5.912      -82.083       27.818       63.741       66.735       42.716     4062.950     4453.556     1824.699        0.894        0.517       82.296       36.071        0.192      349.283       29.597      864.541
07/17/2013  13:31:00      -63.968      -78.276        5.991       82.918       72.481       45.154     6875.389     5253.469     2038.929        1.221        0.708      101.089       50.509        0.250      349.118       29.311      864.528
07/17/2013  13:32:00      -68.521      -50.421        2.477       43.660       49.253       29.580     1906.183     2425.866      874.965        0.622        0.260       85.073       27.183        0.102      348.819       28.794      864.522
07/17/2013  13:33:00      -92.865      -97.080      -10.910       55.645       36.147       31.882     3096.339     1306.625     1016.442        1.179        0.271      134.344       30.337        0.051      348.673       28.541      864.519
07/17/2013  13:34:00      -42.330      -26.452       20.454       68.855       53.246       29.571     4741.016     2835.085      874.451        0.568        0.423       49.915       32.782        0.431      349.104       29.289      864.502
07/17/2013  13:35:00      -42.186      -45.574       11.464       59.717       45.720       33.651     3566.158     2090.360     1132.380        0.539        0.339       62.102       25.981        0.175      349.226       29.500      864.491
07/17/2013  13:36:00      -64.233      -42.041       12.615       45.694       41.958       35.983     2087.928     1760.511     1294.743        0.560        0.257       76.768       32.420        0.178      348.929       28.985      864.499
07/17/2013  13:37:00        1.661       -1.417      -11.318       61.179       55.307       39.883     3742.901     3058.834     1590.627        0.426        0.420        2.183       26.405      146.329      348.543       28.315      864.466
07/17/2013  13:38:00      -11.550       14.533       -3.503       40.160       28.061       22.986     1612.861      787.427      528.335        0.164        0.146       18.564       20.391        1.207      348.899       28.932      864.436
07/17/2013  13:39:00      -23.062       19.616       18.032       31.398       30.933       24.766      985.860      956.866      613.331        0.190        0.128       30.276       17.145        0.321      349.557       30.073      864.437
07/17/2013  13:40:00      -89.493     -150.421        5.043       78.122      113.319       30.067     6103.027    12841.238      903.998        2.525        0.992      175.030       31.919        0.033      348.843       28.832      864.431
07/17/2013  13:41:00     -173.562     -129.239        1.778      106.886       83.353       44.900    11424.677     6947.689     2015.969        3.360        1.019      216.394       39.714        0.034      348.899       28.929      864.400
07/17/2013  13:42:00     -224.228      -77.331       -0.659       81.733       86.049       40.338     6680.330     7404.516     1627.176        3.598        0.786      237.189       39.614        0.028      348.718       28.614      864.405
07/17/2013  13:43:00     -157.016       21.353      -13.984       59.900       75.388       32.497     3587.951     5683.359     1056.045        1.781        0.516      158.462       23.740        0.022      348.766       28.700      864.403
07/17/2013  13:44:00     -168.984      -15.903       -8.468       81.343       46.934       34.852     6616.630     2202.765     1214.670        1.946        0.502      169.731       39.216        0.053      348.870       28.879      864.384
07/17/2013  13:45:00     -141.913       -5.818       -8.288      103.799       61.300       38.932    10774.151     3757.698     1515.709        1.814        0.802      142.032       49.989        0.124      348.932       28.987      864.381
07/17/2013  13:46:00     -145.614      199.900      -17.704       62.841       79.249       51.500     3949.051     6280.444     2652.254        3.718        0.644      247.312       35.684        0.021      348.921       28.966      864.383
07/17/2013  13:47:00      -60.951       61.492       -6.619       62.710       64.521       43.556     3932.560     4162.975     1897.130        0.876        0.500       86.581       37.839        0.191      349.415       29.826      864.379
07/17/2013  13:48:00        0.270       16.812       16.343       74.546       88.819       53.543     5557.147     7888.841     2866.852        0.843        0.816       16.814       48.334        8.264      349.131       29.333      864.375
07/17/2013  13:49:00      -40.829      -19.302       28.515       63.222       42.770       39.987     3996.995     1829.247     1598.961        0.514        0.371       45.162       29.895        0.438      349.440       29.869      864.366
07/17/2013  13:50:00      -74.073      -11.766       12.916       53.899       45.342       31.023     2905.092     2055.878      962.446        0.586        0.296       75.001       23.690        0.100      349.123       29.319      864.370
07/17/2013  13:51:00      -19.822       24.087       53.367       34.470       30.550       31.650     1188.161      933.296     1001.743        0.347        0.156       31.195       24.562        0.620      349.387       29.777      864.364
07/17/2013  13:52:00        3.213       30.604       40.929       19.374       27.801       20.078      375.336      772.913      403.128        0.209        0.078       30.772       12.434        0.163      349.153       29.373      864.351
07/17/2013  13:53:00       15.744       52.166        7.984       41.180       52.371       27.982     1695.799     2742.753      782.966        0.413        0.261       54.490       27.728        0.259      348.862       28.868      864.328
07/17/2013  13:54:00       -1.295       38.737       24.061       49.875       36.407       27.187     2487.510     1325.487      739.152        0.332        0.228       38.758       20.694        0.285      349.477       29.933      864.314
07/17/2013  13:55:00      -25.402      -76.271       -5.005       39.603       77.028       28.403     1568.402     5933.257      806.744        0.740        0.415       80.390       20.661        0.066      349.100       29.280      864.309
07/17/2013  13:56:00      -53.344     -146.792       10.926       76.715       89.008       37.725     5885.209     7922.365     1423.207        1.987        0.762      156.184       43.407        0.077      348.970       29.052      864.302
07/17/2013  13:57:00      -87.358     -113.095        4.716       79.419       60.068       33.117     6307.398     3608.212     1096.767        1.573        0.551      142.905       34.586        0.059      348.949       29.017      864.281
07/17/2013  13:58:00     -271.246     -136.996      -13.210       91.977       95.851       53.486     8459.699     9187.327     2860.773        5.651        1.025      303.879       46.408        0.023      348.941       29.002      864.263
07/17/2013  13:59:00     -101.066     -131.360        0.193       81.808       79.101       44.128     6692.562     6257.040     1947.314        2.118        0.745      165.740       43.473        0.069      348.958       29.033      864.266
07/17/2013  14:00:00     -159.071      -80.910       -6.658      158.277       98.518       51.955    25051.522     9705.742     2699.332        3.467        1.873      178.466       60.794        0.116      349.045       29.184      864.234
07/17/2013  14:01:00     -120.123        4.264       21.620      125.901       73.059       52.885    15850.963     5337.603     2796.841        1.945        1.199      120.198       65.159        0.294      349.374       29.753      864.240
07/17/2013  14:02:00      -93.580     -196.940       -3.803       74.791       81.655       37.892     5593.653     6667.487     1435.790        3.062        0.685      218.043       31.624        0.021      349.007       29.116      864.250
07/17/2013  14:03:00     -133.505      -90.089        9.584       78.159       86.275       44.847     6108.809     7443.358     2011.292        2.079        0.778      161.057       32.523        0.041      349.017       29.135      864.240
07/17/2013  14:04:00     -207.648     -122.423       -4.112       77.076       62.786       42.737     5940.749     3942.130     1826.425        3.491        0.585      241.050       42.870        0.032      348.905       28.939      864.226
07/17/2013  14:05:00     -161.825     -145.160        2.787      116.053       87.407       43.943    13468.375     7640.007     1931.030        3.515        1.152      217.390       50.481        0.054      348.990       29.086      864.225
07/17/2013  14:06:00      -55.715     -109.127       -3.443       49.144       44.314       28.957     2415.153     1963.769      838.536        1.012        0.261      122.526       16.879        0.019      348.946       29.012      864.223
07/17/2013  14:07:00      -55.996     -193.227      -14.001       59.793       73.360       35.148     3575.188     5381.753     1235.411        2.543        0.510      201.177       30.860        0.024      348.876       28.890      864.221
07/17/2013  14:08:00      -57.008     -137.914      -21.979       72.509       55.621       48.815     5257.572     3093.749     2382.933        1.674        0.537      149.233       30.716        0.042      349.333       29.683      864.193
07/17/2013  14:09:00     -165.655      -84.829      -13.876       81.872       72.966       43.247     6703.065     5324.060     1870.310        2.436        0.695      186.112       21.075        0.013      349.468       29.915      864.219
07/17/2013  14:10:00     -159.130      -80.280       -2.389       72.036       46.284       34.754     5189.186     2142.235     1207.851        2.015        0.427      178.234       33.055        0.034      348.924       28.976      864.225
07/17/2013  14:11:00     -103.112      -75.470      -12.695       38.540       26.776       21.049     1485.343      716.933      443.051        0.957        0.132      127.780       18.574        0.021      348.753       28.680      864.211
07/17/2013  14:12:00      -23.468     -150.996        5.229       59.518      110.069       33.059     3542.391    12115.198     1092.910        2.006        0.838      152.809       38.592        0.064      348.911       28.952      864.193
07/17/2013  14:13:00      -46.667     -107.686       11.516       68.032       81.322       33.367     4628.375     6613.209     1113.390        1.313        0.618      117.363       31.516        0.072      349.223       29.492      864.180
07/17/2013  14:14:00     -110.287      -97.754       -4.512       59.583       72.118       37.576     3550.167     5201.008     1411.934        1.595        0.508      147.373       28.425        0.037      349.021       29.142      864.177
07/17/2013  14:15:00      -22.015      -35.696       20.069       55.065       94.148       43.066     3032.200     8863.798     1854.704        0.795        0.688       41.939       27.551        0.432      349.429       29.851      864.163
07/17/2013  14:16:00     -105.455       14.866       -5.533       50.981       50.876       41.467     2599.096     2588.328     1719.524        0.914        0.345      106.498       31.338        0.087      349.443       29.874      864.155
07/17/2013  14:17:00      -64.700       10.941       16.540       80.672       69.849       36.972     6507.983     4878.927     1366.901        0.866        0.638       65.618       42.749        0.424      349.401       29.804      864.139
07/17/2013  14:18:00      -43.023      110.806        3.267       67.778       67.992       46.772     4593.848     4622.925     2187.654        1.277        0.570      118.865       44.721        0.142      349.563       30.083      864.129
07/17/2013  14:19:00      -93.626       77.630      -30.180       33.098       92.157       43.338     1095.487     8492.853     1878.192        1.358        0.573      121.624       49.493        0.166      348.916       28.960      864.130
07/17/2013  14:20:00      -54.828       12.105      -24.789       49.731       46.886       25.316     2473.207     2198.324      640.877        0.454        0.266       56.148       30.125        0.288      348.864       28.872      864.127
07/17/2013  14:21:00        4.636       16.192       19.437       39.228       30.702       25.893     1538.862      942.610      670.433        0.191        0.158       16.843       14.720        0.764      348.985       29.082      864.091
07/17/2013  14:22:00      -71.067       35.469      -12.876       38.459       36.432       25.704     1479.096     1327.311      660.692        0.497        0.173       79.426       21.434        0.073      349.488       29.953      864.084
07/17/2013  14:23:00     -143.749       56.800      -10.151       87.451       99.932       56.738     7647.646     9986.502     3219.242        2.242        1.043      154.565       57.523        0.139      349.687       30.294      864.079
07/17/2013  14:24:00      -79.350      117.985      -17.293       61.065       55.579       40.481     3728.905     3089.072     1638.719        1.448        0.423      142.186       36.786        0.067      349.006       29.117      864.081
07/17/2013  14:25:00      -59.457      138.921        0.924       53.477       69.081       47.004     2859.806     4772.185     2209.416        1.634        0.492      151.110       44.437        0.086      349.296       29.619      864.056
07/17/2013  14:26:00     -157.316      185.149      -36.652       56.053       56.939       38.273     3141.979     3242.005     1464.819        3.411        0.392      242.958       34.858        0.021      349.105       29.285      864.052
07/17/2013  14:27:00     -116.161      109.950      -16.608       67.808       53.708       39.401     4597.874     2884.518     1552.425        1.744        0.452      159.945       37.879        0.056      349.213       29.475      864.043
07/17/2013  14:28:00      -48.906      123.650        5.258       61.369       75.347       44.831     3766.111     5677.117     2009.797        1.458        0.573      132.970       36.547        0.076      349.479       29.936      864.018
07/17/2013  14:29:00      -65.595      203.114       -1.288       71.293      111.163       55.552     5082.714    12357.155     3086.069        3.304        1.026      213.443       57.481        0.073      349.330       29.676      863.998
07/17/2013  14:30:00     -104.532      175.524      -10.934       61.538       49.797       37.773     3786.952     2479.708     1426.778        2.477        0.385      204.292       32.451        0.025      349.468       29.914      864.004
07/17/2013  14:31:00     -104.517      143.341      -18.983       74.580       58.903       49.200     5562.199     3469.541     2420.653        2.164        0.573      177.399       51.447        0.084      349.464       29.909      864.006
07/17/2013  14:32:00      -55.892      129.909       -3.302       44.383       50.462       44.262     1969.807     2546.444     1959.124        1.324        0.324      141.422       36.079        0.065      349.264       29.566      863.998
07/17/2013  14:33:00       12.520       42.248       33.172       29.292       33.809       28.924      858.012     1143.018      836.586        0.294        0.142       44.064       22.845        0.269      349.719       30.354      863.974
07/17/2013  14:34:00      -15.617       58.715       19.263       49.492       43.308       31.867     2449.425     1875.616     1015.497        0.470        0.267       60.756       22.820        0.141      349.637       30.211      863.966
07/17/2013  14:35:00      -39.721       21.510       14.344       60.858       34.598       34.523     3703.708     1197.025     1191.812        0.417        0.305       45.171       32.274        0.510      349.875       30.625      863.954
07/17/2013  14:36:00     -145.472       -3.389      -16.549       50.976       40.397       30.457     2598.545     1631.905      927.614        1.330        0.258      145.511       22.497        0.024      349.441       29.870      863.941
07/17/2013  14:37:00     -190.011       40.407      -26.638       40.685       58.699       26.919     1655.254     3445.519      724.644        2.213        0.291      194.260       21.211        0.012      349.230       29.504      863.945
07/17/2013  14:38:00     -183.406       70.641      -23.461       43.326       40.921       25.052     1877.173     1674.496      627.624        2.168        0.209      196.539       12.300        0.004      349.100       29.280      863.959
07/17/2013  14:39:00      -89.096       52.278      -18.108       37.321       58.757       20.525     1392.844     3452.393      421.290        0.813        0.263      103.300       19.552        0.036      349.251       29.543      863.967
07/17/2013  14:40:00       24.052     -106.456      -21.967       45.180      103.606       33.855     2041.256    10734.262     1146.154        1.316        0.696      109.140       41.660        0.146      349.107       29.293      863.959
07/17/2013  14:41:00      119.342     -107.521       17.485       50.211      118.744       73.293     2521.136    14100.169     5371.849        2.405        1.100      160.634       83.919        0.273      349.143       29.353      863.937
07/17/2013  14:42:00       60.980        1.606       45.974       49.706       34.095       36.063     2470.667     1162.462     1300.543        0.538        0.247       61.001       23.686        0.151      349.323       29.667      863.934
07/17/2013  14:43:00       45.317       -9.720       36.813       32.004       31.454       34.922     1024.244      989.332     1219.533        0.337        0.162       46.348       16.642        0.129      349.168       29.398      863.917
07/17/2013  14:44:00        7.035       16.206       40.996       28.284       33.529       19.718      799.967     1124.221      388.786        0.215        0.116       17.667        7.503        0.180      349.498       29.971      863.906
07/17/2013  14:45:00      111.309       95.894       51.120       34.115       25.871       34.577     1163.843      669.314     1195.587        1.361        0.151      146.919       10.999        0.006      348.967       29.049      863.901
07/17/2013  14:46:00       75.637       55.194       19.324       32.045       21.701       27.135     1026.864      470.914      736.324        0.569        0.112       93.634        5.107        0.003      349.100       29.278      863.901
07/17/2013  14:47:00      -53.668      -14.534       -7.043       76.882       32.847       18.727     5910.878     1078.907      350.685        0.524        0.367       55.601       10.824        0.038      349.513       29.996      863.894
07/17/2013  14:48:00     -130.886      -31.325      -11.602       34.528       46.054       25.139     1192.208     2120.965      631.947        1.110        0.197      134.582       14.700        0.012      349.382       29.768      863.861
07/17/2013  14:49:00      -66.529      -12.713       10.879       45.647       35.818       24.682     2083.617     1282.894      609.224        0.434        0.199       67.733       24.189        0.128      350.053       30.933      863.825
07/17/2013  14:50:00       -3.429        3.089       36.078       35.339       44.655       22.932     1248.855     1994.076      525.895        0.255        0.188        4.615       27.216       34.777      350.045       30.919      863.807
07/17/2013  14:51:00      -14.108       74.502        4.501       39.003       40.274       24.927     1521.244     1621.957      621.361        0.477        0.188       75.826       26.024        0.118      349.622       30.185      863.802
07/17/2013  14:52:00      -38.665       77.924       -3.218       27.230       53.678       25.812      741.490     2881.351      666.273        0.593        0.214       86.990       27.536        0.100      349.720       30.356      863.803
07/17/2013  14:53:00      -37.757       50.010       -6.172       45.424       47.532       26.413     2063.318     2259.295      697.663        0.449        0.251       62.662       26.018        0.172      349.922       30.706      863.798
07/17/2013  14:54:00       -2.199       21.295       10.156       19.291       37.728       21.791      372.131     1423.429      474.857        0.142        0.114       21.408        7.123        0.111      350.045       30.921      863.768
07/17/2013  14:55:00      -37.141      106.093       -3.836       41.997       64.836       39.821     1763.709     4203.643     1585.743        1.010        0.378      112.406       42.065        0.140      349.877       30.628      863.764
07/17/2013  14:56:00       61.020      -16.507        8.577       60.781       69.569       38.328     3694.367     4839.834     1469.011        0.703        0.500       63.214       30.235        0.229      349.614       30.171      863.784
07/17/2013  14:57:00       12.200      -46.420        8.021       27.503       42.570       27.086      756.408     1812.232      733.640        0.283        0.165       47.997       14.040        0.086      349.485       29.948      863.789
07/17/2013  14:58:00      -32.317      -32.755       -2.276       45.785       49.373       25.496     2096.242     2437.700      650.035        0.365        0.259       46.014       18.168        0.156      349.898       30.664      863.790
07/17/2013  14:59:00      -75.414     -103.405      -10.304       53.309       53.729       28.780     2841.891     2886.796      828.307        1.152        0.328      127.984       18.920        0.022      349.761       30.425      863.808
07/17/2013  15:00:00      -59.342      -77.745       14.595       63.115       68.799       38.998     3983.453     4733.289     1520.823        1.001        0.512       97.805       45.779        0.219      350.045       30.919      863.810
07/17/2013  15:01:00      -50.575      -72.734      -12.229       49.736       71.337       32.576     2473.678     5088.927     1061.179        0.831        0.431       88.589       30.415        0.118      349.760       30.424      863.819
07/17/2013  15:02:00      -65.997     -161.099      -16.356       55.690       71.417       37.108     3101.322     5100.417     1376.975        2.008        0.479      174.093       24.926        0.020      349.397       29.792      863.853
07/17/2013  15:03:00      -12.717      -73.195       -2.778       48.020       72.239       30.821     2305.895     5218.485      949.939        0.700        0.424       74.292       29.590        0.159      349.429       29.851      863.840
07/17/2013  15:04:00       23.508     -105.853       12.423       87.240       79.798       34.860     7610.886     6367.692     1215.199        1.355        0.760      108.432       43.628        0.162      349.532       30.029      863.822
07/17/2013  15:05:00       40.141      -88.341        8.054       47.989       69.294       38.025     2302.899     4801.689     1445.868        0.901        0.428       97.033       35.857        0.137      349.532       30.031      863.818
07/17/2013  15:06:00      -62.681      -15.525       11.774       52.742       49.334       35.070     2781.766     2433.858     1229.921        0.538        0.322       64.575       39.967        0.383      349.889       30.648      863.807
07/17/2013  15:07:00      -40.910        6.525       -4.160       50.113       30.652       23.708     2511.321      939.530      562.062        0.287        0.201       41.427       16.957        0.168      349.570       30.095      863.784
07/17/2013  15:08:00       91.308      -23.530       12.523       31.849       25.151       24.197     1014.377      632.578      585.517        0.564        0.112       94.291        7.779        0.007      349.174       29.409      863.778
07/17/2013  15:09:00       73.494       22.536       38.366       54.853       24.114       35.517     3008.845      581.492     1261.477        0.612        0.243       76.871       17.345        0.051      349.259       29.556      863.771
07/17/2013  15:10:00       32.881      -11.951       13.600       26.479       25.008       19.858      701.153      625.416      394.340        0.156        0.086       34.986        8.134        0.054      349.494       29.963      863.763
07/17/2013  15:11:00       34.279      -55.926       27.344       64.061       85.324       51.581     4103.820     7280.157     2660.584        0.954        0.702       65.595       45.581        0.483      349.453       29.891      863.747
07/17/2013  15:12:00      -54.220     -136.518        2.961       48.784       81.645       29.384     2379.884     6665.926      863.420        1.575        0.495      146.891       28.171        0.037      349.630       30.198      863.747
07/17/2013  15:13:00     -113.211     -100.282       -3.127       81.160       78.248       61.535     6586.895     6122.816     3786.555        1.969        0.825      151.239       57.377        0.144      349.835       30.553      863.738
07/17/2013  15:14:00     -148.880      -31.183      -12.740       31.723       35.362       28.966     1006.325     1250.453      839.046        1.320        0.155      152.111       19.766        0.017      349.860       30.599      863.720
07/17/2013  15:15:00     -119.568      -23.285       -4.081       53.935       40.491       24.870     2908.960     1639.545      618.509        1.001        0.258      121.814       24.980        0.042      350.083       30.986      863.702
07/17/2013  15:16:00       -8.010      -36.116       10.743       64.500       44.580       32.214     4160.290     1987.401     1037.718        0.433        0.359       36.994       18.685        0.255      350.212       31.212      863.704
07/17/2013  15:17:00       63.485      -36.934       18.253       58.490       52.462       43.783     3421.060     2752.251     1916.977        0.691        0.405       73.447       45.820        0.389      349.612       30.168      863.707
07/17/2013  15:18:00      108.192     -107.891        3.231       78.925       99.048       53.559     6229.168     9810.437     2868.595        2.113        0.945      152.794       56.705        0.138      349.753       30.413      863.705
07/17/2013  15:19:00       91.747     -113.479       16.510       80.820      100.573       48.771     6531.867    10114.859     2378.590        2.029        0.951      145.928       59.651        0.167      349.833       30.548      863.699
07/17/2013  15:20:00       44.830       44.697       21.214       40.666       43.077       31.533     1653.726     1855.606      994.343        0.448        0.225       63.305       20.180        0.102      349.326       29.671      863.688
07/17/2013  15:21:00       20.744       23.023       -5.629       28.026       60.033       20.132      785.466     3603.982      405.303        0.289        0.240       30.990       23.978        0.599      349.474       29.927      863.665
07/17/2013  15:22:00      -62.429      -70.858        7.548       74.288       72.363       32.170     5518.776     5236.356     1034.894        1.038        0.590       94.436       29.972        0.101      350.019       30.875      863.658
07/17/2013  15:23:00       33.860       -0.453       48.632       53.687       63.709       40.150     2882.321     4058.871     1612.009        0.603        0.428       33.863       41.607        1.510      350.035       30.903      863.643
07/17/2013  15:24:00       61.799        1.843      102.114       80.639      156.535       87.170     6502.694    24503.192     7598.552        2.642        1.930       61.827      102.281        2.737      349.929       30.717      863.618
07/17/2013  15:25:00      158.018       88.431       73.768       87.288       99.719       71.010     7619.258     9943.927     5042.399        3.041        1.130      181.080       31.540        0.030      349.541       30.044      863.621
07/17/2013  15:26:00       83.141       43.489       33.346       74.294       89.696       57.412     5519.599     8045.381     3296.143        1.339        0.843       93.828       39.423        0.177      349.856       30.591      863.622
07/17/2013  15:27:00       45.453     -102.186       24.336       62.777       99.168       52.873     3940.976     9834.366     2795.505        1.483        0.829      111.839       58.291        0.272      350.194       31.178      863.617
07/17/2013  15:28:00       83.149       34.175       77.843      106.900       75.409       57.567    11427.512     5686.462     3313.947        1.728        1.021       89.898       65.042        0.523      349.825       30.537      863.595
07/17/2013  15:29:00       72.145      -28.113       37.867       77.146       70.673       56.880     5951.451     4994.640     3235.384        1.080        0.709       77.429       49.313        0.406      349.691       30.305      863.575
07/17/2013  15:30:00       49.980       -6.940       27.816       65.137       86.783       43.225     4242.790     7531.308     1868.434        0.848        0.682       50.459       49.040        0.945      349.698       30.317      863.602
07/17/2013  15:31:00      -45.238     -143.521        4.496       55.692       89.749       49.511     3101.566     8054.803     2451.342        1.813        0.680      150.482       23.083        0.024      349.947       30.747      863.618
07/17/2013  15:32:00      -25.272      -81.973        4.451       49.102       70.905       34.888     2411.032     5027.572     1217.168        0.802        0.433       85.780       33.462        0.152      350.033       30.896      863.613
07/17/2013  15:33:00       65.529     -113.930       13.351       56.780       94.321       56.124     3223.981     8896.538     3149.891        1.636        0.764      131.431       54.950        0.175      349.920       30.702      863.589
07/17/2013  15:34:00       49.659     -141.411       -3.984       57.328       74.071       46.334     3286.497     5486.457     2146.844        1.670        0.546      149.877       38.118        0.065      349.876       30.624      863.587
07/17/2013  15:35:00       25.687        8.721       54.957       69.854       98.269       56.860     4879.645     9656.789     3233.098        1.076        0.888       27.127       65.777        5.880      349.707       30.332      863.566
07/17/2013  15:36:00       58.048      -66.774       36.729       79.534       87.605       44.757     6325.735     7674.686     2003.192        1.259        0.800       88.477       50.512        0.326      349.863       30.603      863.563
07/17/2013  15:37:00       26.096        5.021       46.711       54.203       62.752       41.155     2937.959     3937.799     1693.767        0.573        0.428       26.575       42.171        2.518      349.934       30.727      863.542
07/17/2013  15:38:00       60.895      -36.473       54.219       87.465      112.352       84.670     7650.100    12622.947     7168.943        1.770        1.372       70.982       83.093        1.370      349.958       30.769      863.522
07/17/2013  15:39:00      102.266     -211.229      -34.678       90.835      101.526       57.784     8250.990    10307.594     3339.019        3.908        1.095      234.682       52.182        0.049      349.699       30.316      863.547
07/17/2013  15:40:00       54.857     -130.195       -4.871       63.923       93.840       55.741     4086.154     8806.022     3107.045        1.799        0.800      141.280       52.542        0.138      349.764       30.431      863.555
07/17/2013  15:41:00       40.784       39.050       30.671       46.509       56.636       37.459     2163.089     3207.677     1403.150        0.545        0.339       56.464       29.252        0.268      349.576       30.106      863.515
07/17/2013  15:42:00      -20.812       21.810        1.954       29.596       32.812       22.818      875.947     1076.640      520.666        0.169        0.124       30.147       15.411        0.261      349.993       30.830      863.481
07/17/2013  15:43:00       14.682       41.533       21.885       33.348       33.200       29.801     1112.062     1102.235      888.080        0.276        0.155       44.052       27.770        0.397      350.086       30.991      863.473
07/17/2013  15:44:00       20.409       15.109        8.808       20.672       17.586       22.055      427.345      309.274      486.409        0.097        0.061       25.393       10.842        0.182      350.265       31.301      863.461
07/17/2013  15:45:00       -6.363       23.638       10.189       29.031       17.549       18.860      842.817      307.954      355.682        0.110        0.075       24.479       13.165        0.289      350.362       31.470      863.440
07/17/2013  15:46:00       13.577      -27.561       32.260       47.528       50.584       33.762     2258.952     2558.702     1139.845        0.397        0.298       30.724       10.944        0.127      350.062       30.949      863.443
07/17/2013  15:47:00       13.056      -70.246       14.187       43.142       60.853       35.037     1861.194     3703.087     1227.589        0.605        0.340       71.449       24.143        0.114      350.102       31.018      863.441
07/17/2013  15:48:00        5.869       -3.946       54.523       51.357       53.600       39.477     2637.566     2872.938     1558.427        0.504        0.353        7.072       37.181       27.637      350.070       30.963      863.412
07/17/2013  15:49:00      -39.030      -86.524       -3.577       75.995       88.975       47.249     5775.215     7916.572     2232.468        1.247        0.796       94.920       36.579        0.149      350.518       31.741      863.420
07/17/2013  15:50:00      -86.016      -77.665       29.158       99.898       74.158       52.493     9979.514     5499.388     2755.489        1.625        0.912      115.890       48.241        0.173      350.527       31.756      863.433
07/17/2013  15:51:00      -48.774      -62.758       -4.927       69.298       55.773       35.751     4802.240     3110.614     1278.136        0.776        0.460       79.483       24.915        0.098      350.417       31.567      863.424
07/17/2013  15:52:00      -44.685     -162.077       -3.662       64.844       82.408       50.103     4204.802     6791.037     2510.331        2.089        0.675      168.124       42.931        0.065      350.384       31.507      863.430
07/17/2013  15:53:00       41.601      -99.004        2.433       74.550       71.338       47.660     5557.661     5089.173     2271.442        1.223        0.646      107.389       29.475        0.075      350.133       31.073      863.432
07/17/2013  15:54:00      -50.740      -24.374       11.955       82.359       58.656       43.301     6783.019     3440.567     1874.966        0.770        0.605       56.290       34.695        0.380      350.653       31.977      863.416
07/17/2013  15:55:00      -28.801      -34.712        5.212       61.277       75.595       33.628     3754.826     5714.542     1130.812        0.633        0.530       45.104       33.866        0.564      350.428       31.585      863.409
07/17/2013  15:56:00       43.373      -89.132       11.898       48.088       82.926       41.617     2312.428     6876.711     1731.993        1.044        0.546       99.125       47.909        0.234      350.059       30.941      863.399
07/17/2013  15:57:00       55.632      -69.049       21.992       48.465       93.689       38.460     2348.821     8777.692     1479.147        1.047        0.630       88.672       52.382        0.349      349.989       30.823      863.389
07/17/2013  15:58:00       29.831     -104.646        6.800       37.028       39.165       31.069     1371.058     1533.921      965.285        0.788        0.194      108.815       18.097        0.028      350.063       30.951      863.373
07/17/2013  15:59:00      -14.359     -102.159       12.600       44.450      116.144       41.270     1975.773    13489.458     1703.201        1.398        0.858      103.163       55.600        0.290      350.376       31.495      863.376
07/17/2013  16:00:00        6.756      -49.348       24.971       62.101       69.655       49.107     3856.550     4851.881     2411.524        0.711        0.556       49.808       46.385        0.867      350.369       31.484      863.349
07/17/2013  16:01:00      -76.104     -187.014       -2.637       62.674       45.861       44.612     3928.086     2103.246     1990.227        2.440        0.401      201.906       16.425        0.007      350.009       30.854      863.343
07/17/2013  16:02:00      -61.646      -97.494        6.342       52.169       94.705       48.639     2721.638     8969.120     2365.724        1.370        0.703      115.349       55.959        0.235      350.283       31.333      863.306
07/17/2013  16:03:00       26.049     -127.467       -0.520       56.388       64.437       53.665     3179.577     4152.119     2879.984        1.357        0.511      130.102       44.386        0.116      350.185       31.162      863.315
07/17/2013  16:04:00       90.678     -125.245       -6.378       48.329       68.187       34.408     2335.707     4649.476     1183.891        1.606        0.408      154.625       34.964        0.051      349.972       30.791      863.299
07/17/2013  16:05:00       45.524     -194.328       -9.056       55.311       91.956       40.741     3059.288     8455.927     1659.827        2.654        0.659      199.589       19.939        0.010      350.030       30.891      863.303
07/17/2013  16:06:00       -0.009     -155.047      -19.070       54.320       82.585       38.404     2950.668     6820.217     1474.888        1.782        0.562      155.047       32.018        0.043      350.014       30.862      863.289
07/17/2013  16:07:00       71.053     -191.464      -28.454       84.524       90.617       52.046     7144.231     8211.422     2708.761        3.029        0.903      204.223       34.345        0.028      350.073       30.965      863.244
07/17/2013  16:08:00        0.142     -107.624      -15.725      122.244       61.837       49.576    14943.631     3823.794     2457.814        1.652        1.061      107.624       47.278        0.193      350.532       31.765      863.200
07/17/2013  16:09:00     -161.474      -36.503       10.363       63.259       59.438       36.578     4001.709     3532.904     1337.919        1.819        0.444      165.548       32.615        0.039      350.382       31.504      863.195
07/17/2013  16:10:00      -81.947        7.458      -10.763       39.095       21.010       24.089     1528.392      441.434      580.260        0.472        0.128       82.286        8.980        0.012      350.022       30.881      863.178
07/17/2013  16:11:00      -55.873        3.811       13.834       34.580       30.743       33.334     1195.799      945.148     1111.150        0.329        0.163       56.003       23.921        0.182      350.206       31.198      863.149
07/17/2013  16:12:00       -2.836       27.352       -8.390       49.576       46.820       34.778     2457.783     2192.081     1209.503        0.334        0.293       27.499        8.643        0.099      349.970       30.790      863.134
07/17/2013  16:13:00      -41.958      -23.897       -5.815       47.440       30.197       20.161     2250.557      911.830      406.482        0.297        0.178       48.286       16.971        0.124      350.584       31.856      863.118
07/17/2013  16:14:00      143.263     -239.549      -36.130      157.478      154.496      100.118    24799.318    23868.876    10023.689        6.894        2.935      279.120       98.340        0.124      350.287       31.337      863.091
07/17/2013  16:15:00      135.755     -127.133       32.212      107.893      154.990      104.018    11640.809    24021.922    10819.693        4.105        2.324      185.990      113.515        0.373      350.328       31.409      863.077
07/17/2013  16:16:00      128.299     -245.269      -22.384       90.558      101.756       55.155     8200.783    10354.195     3042.085        4.935        1.080      276.799       33.065        0.014      350.292       31.343      863.085
07/17/2013  16:17:00       -0.798      -95.131        1.237       88.006       56.476       38.069     7745.006     3189.527     1449.220        1.072        0.619       95.134       28.500        0.090      350.711       32.078      863.079
07/17/2013  16:18:00      -24.491      -81.446        8.579       74.939       79.811       38.923     5615.856     6369.855     1514.989        1.040        0.675       85.049       32.818        0.149      350.602       31.888      863.078
07/17/2013  16:19:00       57.455      -92.683        4.291       63.205       66.159       40.511     3994.896     4376.973     1641.116        1.096        0.501      109.047       12.750        0.014      350.299       31.360      863.074
07/17/2013  16:20:00       26.035      -29.406       23.602       36.005       39.787       38.983     1296.352     1583.038     1519.638        0.325        0.220       39.275       34.610        0.777      350.255       31.285      863.062
07/17/2013  16:21:00       64.179      -87.113       10.601       55.115       51.172       32.452     3037.703     2618.604     1053.132        0.926        0.335      108.202       31.971        0.087      350.168       31.133      863.050
07/17/2013  16:22:00      -99.775       -4.403        3.075       41.660       34.178       29.032     1735.568     1168.105      842.834        0.686        0.187       99.872       24.173        0.059      350.599       31.884      863.042
07/17/2013  16:23:00      -52.780      -57.693        8.084       61.595       57.933       36.447     3793.883     3356.224     1328.365        0.733        0.424       78.194       22.258        0.081      350.447       31.620      863.031
07/17/2013  16:24:00      -23.012       47.040       22.692       51.980       47.487       31.175     2701.933     2255.006      971.903        0.459        0.296       52.367       14.213        0.074      350.289       31.346      863.010
07/17/2013  16:25:00        0.189        7.460       19.234       38.744       30.798       24.849     1501.070      948.540      617.464        0.175        0.153        7.463       22.072        8.748      349.742       30.395      863.003
07/17/2013  16:26:00      -18.955      -30.436        5.687       28.643       31.748       30.570      820.416     1007.942      934.514        0.204        0.138       35.856       22.107        0.380      350.518       31.742      862.985
07/17/2013  16:27:00       47.590       14.151       29.123       33.263       33.542       29.729     1106.400     1125.089      883.820        0.321        0.156       49.649       19.393        0.153      349.304       29.635      862.981
07/17/2013  16:28:00       55.134      -24.545       18.128       69.064       73.458       38.422     4769.850     5396.109     1476.245        0.780        0.582       60.351       38.130        0.399      350.032       30.896      862.974
07/17/2013  16:29:00       83.387      -29.740       72.554       93.374      134.372       82.449     8718.739    18055.817     6797.894        2.333        1.679       88.531       84.856        0.919      350.240       31.256      862.932
07/17/2013  16:30:00      -45.930      -16.940       67.721       70.628       76.843       59.461     4988.306     5904.913     3535.643        1.070        0.721       48.954       63.187        1.666      350.899       32.405      862.903
07/17/2013  16:31:00       32.967      -79.797       17.373       53.924       78.080       43.519     2907.777     6096.472     1893.888        0.932        0.545       86.339       45.614        0.279      350.960       32.510      862.934
07/17/2013  16:32:00       -0.495      -38.848       22.879       51.397       46.992       34.195     2641.640     2208.252     1169.281        0.402        0.301       38.851       26.030        0.449      351.100       32.755      862.937
07/17/2013  16:33:00      -43.295      -45.004        8.235       95.263       56.869       48.760     9075.060     3234.027     2377.490        0.932        0.734       62.449       27.507        0.194      350.454       31.630      862.931
07/17/2013  16:34:00       45.607      -94.808        9.013       71.449       98.899       43.333     5105.012     9780.933     1877.740        1.395        0.838      105.208       41.033        0.152      350.240       31.257      862.926
07/17/2013  16:35:00       45.464      -43.721       57.986       89.988       82.004       62.107     8097.785     6724.660     3857.305        1.301        0.934       63.076       42.033        0.444      350.423       31.575      862.908
07/17/2013  16:36:00      -91.181      -25.432       16.575       63.982       51.390       36.089     4093.695     2640.919     1302.387        0.863        0.402       94.661       34.447        0.132      351.184       32.903      862.916
07/17/2013  16:37:00      -33.740      -43.877       16.969       57.688       96.990       39.255     3327.940     9407.091     1540.959        0.881        0.714       55.349       35.970        0.422      350.704       32.065      862.902
07/17/2013  16:38:00     -137.234      -69.683        8.474       87.982       69.211       37.095     7740.822     4790.179     1376.071        1.883        0.695      153.912       39.872        0.067      350.498       31.706      862.886
07/17/2013  16:39:00      -19.665      -82.266       12.143       63.560       77.559       65.064     4039.813     6015.385     4233.288        1.079        0.714       84.584       41.430        0.240      350.623       31.924      862.883
07/17/2013  16:40:00       91.994     -203.634      -19.974       66.961       91.546       58.669     4483.740     8380.643     3442.022        3.331        0.815      223.450       39.114        0.031      350.385       31.507      862.879
07/17/2013  16:41:00       70.711     -181.717       -2.443      120.154      110.791       63.081    14436.976    12274.698     3979.221        3.435        1.535      194.990       72.168        0.137      350.382       31.503      862.864
07/17/2013  16:42:00       19.497      -68.236       20.078       63.010       61.403       66.328     3970.295     3770.269     4399.358        0.879        0.607       70.967       36.056        0.258      350.456       31.635      862.846
07/17/2013  16:43:00      123.479     -132.913        5.630       93.556      127.159       67.824     8752.727    16169.496     4600.151        3.123        1.476      181.419       80.553        0.197      350.364       31.471      862.835
07/17/2013  16:44:00       56.290        7.454       83.766       75.151       82.033       72.782     5647.690     6729.365     5297.235        1.395        0.884       56.781       61.252        1.164      350.217       31.220      862.814
07/17/2013  16:45:00       50.754      -48.995       15.979       64.435       91.313       52.553     4151.867     8338.006     2761.766        1.024        0.763       70.544       62.258        0.779      350.276       31.322      862.798
07/17/2013  16:46:00       80.539     -138.257       14.538       64.984      128.293       68.565     4222.903    16459.073     4701.096        2.559        1.269      160.005       66.656        0.174      350.266       31.300      862.792
07/17/2013  16:47:00       69.412      -20.913       69.703       82.644      103.877       64.769     6830.010    10790.409     4194.972        1.596        1.091       72.494       69.278        0.913      350.238       31.256      862.781
07/17/2013  16:48:00       68.115       12.012       45.410       67.566       71.751       41.752     4565.200     5148.221     1743.221        0.915        0.573       69.166       48.424        0.490      350.128       31.064      862.774
07/17/2013  16:49:00      131.205       58.078       29.689       84.269       64.860       53.099     7101.340     4206.831     2819.504        1.780        0.706      143.484       39.124        0.074      350.314       31.384      862.756
07/17/2013  16:50:00       85.792       24.091       20.704       86.526       52.330       44.565     7486.752     2738.379     1986.017        1.029        0.611       89.110       42.555        0.228      350.162       31.123      862.738
07/17/2013  16:51:00       21.467     -107.469       11.577       62.291      103.923       59.655     3880.185    10799.909     3558.684        1.519        0.912      109.592       38.780        0.125      350.425       31.578      862.735
07/17/2013  16:52:00       15.195      -40.754       -1.594       32.101       68.399       24.280     1030.445     4678.468      589.497        0.410        0.315       43.495       19.218        0.195      350.378       31.498      862.760
07/17/2013  16:53:00      -15.369       30.980       -1.262       20.280       24.437       20.472      411.295      597.160      419.116        0.131        0.071       34.582       12.832        0.138      350.466       31.653      862.735
07/17/2013  16:54:00      -18.219       -9.741       -2.089       52.176       36.021       26.928     2722.379     1297.482      725.104        0.259        0.237       20.660       18.111        0.769      350.886       32.382      862.738
07/17/2013  16:55:00       45.982      -35.165       32.360       53.753       58.307       47.733     2889.410     3399.648     2278.470        0.648        0.428       57.888       40.835        0.498      350.351       31.451      862.718
07/17/2013  16:56:00       16.453      -69.141       13.726       54.477       74.375       67.477     2967.724     5531.572     4553.187        0.914        0.653       71.071       47.938        0.455      350.368       31.481      862.697
07/17/2013  16:57:00      -20.308      -28.232       -0.201       43.955       48.639       29.269     1932.002     2365.777      856.684        0.318        0.258       34.778       27.356        0.619      350.785       32.207      862.692
07/17/2013  16:58:00       73.661     -173.265        5.619       66.414       51.479       34.944     4410.837     2650.084     1221.068        2.188        0.414      188.272       21.587        0.013      350.713       32.080      862.700
07/17/2013  16:59:00      145.321     -222.434       -3.569       45.691       67.000       32.516     2087.700     4489.065     1057.304        3.912        0.382      265.697       17.393        0.004      350.584       31.852      862.710
07/17/2013  17:00:00      -52.767      -90.305        1.269       56.660       68.412       40.109     3210.393     4680.267     1608.723        1.022        0.475      104.591       22.571        0.047      350.694       32.048      862.723
07/17/2013  17:01:00       -6.433     -211.041      -13.962      110.888       75.265       45.153    12296.245     5664.831     2038.779        3.238        1.000      211.139       39.452        0.035      350.476       31.666      862.710
07/17/2013  17:02:00      -29.163      -49.381       -6.025       94.767       41.654       41.774     8980.728     1735.037     1745.098        0.789        0.623       57.350       38.372        0.448      350.515       31.736      862.708
07/17/2013  17:03:00       76.384      -91.630       17.645       43.273       64.358       42.322     1872.547     4141.994     1791.190        1.117        0.390      119.292       35.169        0.087      350.451       31.625      862.702
07/17/2013  17:04:00       84.972      -90.888       21.362       60.104       70.917       49.061     3612.532     5029.214     2406.979        1.349        0.552      124.422       45.294        0.133      350.632       31.939      862.699
07/17/2013  17:05:00       21.310      -47.240        6.798       45.727       67.258       36.472     2090.929     4523.648     1330.221        0.534        0.397       51.824       33.724        0.423      350.512       31.732      862.696
07/17/2013  17:06:00       35.051      -58.634       16.869       70.507       63.817       46.736     4971.220     4072.618     2184.224        0.809        0.561       68.312       32.792        0.230      350.441       31.606      862.685
07/17/2013  17:07:00      -37.315       15.145        2.272       70.689       41.723       26.904     4996.936     1740.801      723.809        0.454        0.373       40.272       31.478        0.611      350.415       31.564      862.665
07/17/2013  17:08:00       97.949       42.931       28.508       47.937       61.724       50.914     2297.951     3809.886     2592.252        1.047        0.435      106.944       43.880        0.168      349.680       30.288      862.679
07/17/2013  17:09:00       78.099        9.508       65.210      116.443      167.458       74.655    13558.878    28042.265     5573.385        2.880        2.359       78.676       91.427        1.350      350.144       31.090      862.620
07/17/2013  17:10:00       -2.570     -305.125      -27.128      101.875       90.229       61.408    10378.572     8141.354     3770.888        5.806        1.115      305.136       36.515        0.014      350.680       32.021      862.602
07/17/2013  17:11:00      -13.511     -152.387        8.686       96.686       83.988       56.060     9348.191     7054.014     3142.748        2.151        0.977      152.985       42.509        0.077      350.751       32.146      862.680
07/17/2013  17:12:00      -22.072     -107.548       17.321       50.318       77.754       26.380     2531.941     6045.609      695.901        1.081        0.464      109.789       23.094        0.044      350.804       32.239      862.697
07/17/2013  17:13:00     -163.337      -46.673        0.016       43.758       51.054       22.652     1914.793     2606.492      513.098        1.694        0.252      169.875       16.874        0.010      350.759       32.159      862.699
07/17/2013  17:14:00     -132.098      -29.060       -7.619       48.112       42.108       24.875     2314.786     1773.058      618.783        1.153        0.235      135.256       12.790        0.009      350.612       31.906      862.702
07/17/2013  17:15:00     -109.551       -1.051      -12.293       30.465       31.482       23.976      928.146      991.146      574.866        0.732        0.125      109.556       16.140        0.022      350.811       32.251      862.706
07/17/2013  17:16:00      -76.669      -23.081       -6.737       40.757       35.603       20.676     1661.113     1267.543      427.478        0.491        0.168       80.068       21.387        0.071      350.818       32.263      862.711
07/17/2013  17:17:00     -105.029       16.489      -15.947       32.036       34.912       16.230     1026.312     1218.866      263.398        0.703        0.125      106.315        9.401        0.008      350.916       32.434      862.716
07/17/2013  17:18:00      -76.791      110.512      -11.668       79.566       92.835       38.981     6330.738     8618.346     1519.502        1.735        0.823      134.572       50.073        0.138      350.776       32.189      862.720
07/17/2013  17:19:00     -151.457       20.654      -26.653       45.700       57.251       30.773     2088.507     3277.669      947.006        1.519        0.316      152.859       25.183        0.027      350.778       32.194      862.707
07/17/2013  17:20:00     -106.190       65.773      -17.757       58.117       69.717       24.592     3377.568     4860.524      604.750        1.238        0.442      124.910       22.034        0.031      350.682       32.026      862.688
07/17/2013  17:21:00      -38.872       91.611       -6.524       43.884       64.992       30.941     1925.779     4223.999      957.326        0.853        0.355       99.517       33.054        0.110      350.599       31.883      862.687
07/17/2013  17:22:00      -52.834       38.473       -4.630       65.677       67.843       28.956     4313.429     4602.656      838.476        0.702        0.488       65.357       26.572        0.165      350.653       31.977      862.682
07/17/2013  17:23:00     -112.187       53.898       -7.780       89.195      109.932       55.190     7955.763    12085.107     3045.982        1.931        1.154      124.463       38.662        0.096      350.817       32.261      862.664
07/17/2013  17:24:00     -246.919        0.263      -33.493       99.148      104.217       51.817     9830.326    10861.124     2684.952        4.273        1.169      246.919       30.193        0.015      350.785       32.203      862.655
07/17/2013  17:25:00     -213.098     -131.818       -1.210      113.295       74.451       58.153    12835.665     5542.924     3381.744        4.227        1.088      250.572       45.639        0.033      350.677       32.016      862.661
07/17/2013  17:26:00     -164.698      -48.519       -6.616       74.062       60.440       37.272     5485.235     3653.006     1389.236        2.002        0.526      171.696       29.229        0.029      350.674       32.011      862.672
07/17/2013  17:27:00     -168.416      -39.109      -10.783       54.249       48.290       28.421     2942.941     2331.903      807.767        1.804        0.304      172.897       14.064        0.007      350.673       32.010      862.667
07/17/2013  17:28:00      -14.273        6.912       16.306       72.161       52.462       39.389     5207.214     2752.229     1551.485        0.501        0.476       15.858       25.586        2.603      350.572       31.835      862.672
07/17/2013  17:29:00       26.284       13.484       44.737       55.175       47.205       38.501     3044.289     2228.268     1482.356        0.481        0.338       29.541       39.383        1.777      349.933       30.724      862.665
07/17/2013  17:30:00     -142.898      -20.998      -19.532       54.812       37.432       23.718     3004.391     1401.160      562.538        1.310        0.248      144.432       21.783        0.023      350.678       32.020      862.666
07/17/2013  17:31:00      -95.531       65.064        0.024       87.264      101.371       55.453     7614.994    10276.141     3075.016        1.716        1.048      115.583       50.309        0.189      350.705       32.067      862.656
07/17/2013  17:32:00     -203.251      -76.788      -14.582      122.221      145.315       65.681    14938.087    21116.583     4314.055        4.389        2.018      217.273       48.696        0.050      350.785       32.204      862.628
07/17/2013  17:33:00     -211.166       47.378      -14.122      117.022      116.111       56.489    13694.114    13481.732     3190.964        3.870        1.518      216.416       44.877        0.043      350.732       32.109      862.627
07/17/2013  17:34:00     -214.182       53.627      -37.297      138.567      112.326       68.900    19200.884    12617.155     4747.191        4.335        1.828      220.793       60.970        0.076      350.609       31.898      862.663
07/17/2013  17:35:00     -321.076      -21.692      -25.414      146.297       89.429       60.446    21402.912     7997.482     3653.685        6.862        1.653      321.808       69.930        0.047      350.621       31.918      862.635
07/17/2013  17:36:00     -271.859       15.135      -28.988      134.543       87.434       49.533    18101.693     7644.653     2453.519        5.158        1.410      272.280       34.042        0.016      350.702       32.056      862.634
07/17/2013  17:37:00     -359.185      -37.854      -42.744      159.107      104.335       50.637    25315.080    10885.879     2564.086        8.551        1.938      361.174       52.377        0.021      350.526       31.753      862.646
07/17/2013  17:38:00     -373.162      -91.169      -43.899      155.192       98.912       59.390    24084.505     9783.552     3527.147        9.343        1.870      384.138       57.479        0.022      350.573       31.834      862.634
07/17/2013  17:39:00     -351.313     -144.940       -6.742      127.604       92.893       62.130    16282.657     8629.020     3860.141        8.662        1.439      380.038       66.725        0.031      350.539       31.774      862.624
07/17/2013  17:40:00     -125.363       11.393       32.616      143.621      101.282       64.571    20627.102    10258.026     4169.373        2.597        1.753      125.879       69.829        0.308      350.574       31.837      862.615
07/17/2013  17:41:00      -79.658      231.129      -31.275      109.591       76.579       41.666    12010.272     5864.352     1736.028        4.017        0.981      244.471       51.963        0.045      350.433       31.591      862.641
07/17/2013  17:42:00     -153.813      111.421      -30.300       98.510       62.958       52.519     9704.212     3963.655     2758.258        2.671        0.821      189.929       55.336        0.085      350.601       31.885      862.631
07/17/2013  17:43:00       -1.844      350.769      -45.688       72.495       89.147       37.330     5255.483     7947.219     1393.561        6.986        0.730      350.774       42.162        0.014      350.558       31.806      862.633
07/17/2013  17:44:00       46.764      238.088      -18.037       69.566      124.431       63.312     4839.439    15483.146     4008.447        4.176        1.217      242.637       69.019        0.081      350.503       31.712      862.631
07/17/2013  17:45:00       12.383      136.496       -6.317       55.511      104.545       49.179     3081.456    10929.585     2418.531        1.762        0.821      137.056       58.436        0.182      350.652       31.974      862.619
07/17/2013  17:46:00       69.704      145.423      -21.221       56.704       93.154       41.389     3215.316     8677.666     1713.054        2.003        0.680      161.265       46.170        0.082      350.442       31.608      862.607
07/17/2013  17:47:00      139.512      179.904       -9.140       84.757       79.273       73.066     7183.722     6284.230     5338.589        3.536        0.940      227.660       57.691        0.064      350.369       31.480      862.608
07/17/2013  17:48:00      122.047      103.720       11.381       88.698       57.476       41.410     7867.400     3303.502     1714.822        1.933        0.644      160.166       27.239        0.029      350.396       31.525      862.596
07/17/2013  17:49:00      -47.804      131.451      -22.446       45.566       40.845       29.286     2076.292     1668.354      857.684        1.233        0.230      139.873       24.762        0.031      350.432       31.592      862.606
07/17/2013  17:50:00      -70.013      101.560      -16.019       49.187       78.364       35.652     2419.336     6140.975     1271.050        1.265        0.492      123.354       32.866        0.071      350.584       31.857      862.606
07/17/2013  17:51:00     -130.410       59.675      -12.642       95.349       66.889       45.355     9091.360     4474.076     2057.071        1.817        0.781      143.415       47.524        0.110      350.684       32.029      862.590
07/17/2013  17:52:00     -111.566      196.493      -28.308       84.900      107.339       43.010     7208.000    11521.727     1849.858        3.621        1.029      225.957       34.019        0.023      350.682       32.024      862.599
07/17/2013  17:53:00      -91.270      163.652      -17.700       52.528       91.938       36.197     2759.198     8452.633     1310.253        2.397        0.626      187.382       32.857        0.031      350.730       32.108      862.593
07/17/2013  17:54:00      -17.894      248.068      -24.655       53.644       77.914       43.081     2877.714     6070.583     1855.954        3.663        0.540      248.713       40.083        0.026      350.510       31.724      862.587
07/17/2013  17:55:00       24.476      420.868      -56.118       69.296      121.132       51.834     4801.931    14673.006     2686.758       10.152        1.108      421.579       54.291        0.017      350.349       31.445      862.576
07/17/2013  17:56:00       55.602      349.075      -31.651      102.379      176.818       88.531    10481.560    31264.460     7837.651        8.776        2.479      353.475      101.439        0.082      350.363       31.469      862.562
07/17/2013  17:57:00       37.197      303.614      -37.179       77.772      138.875       63.547     6048.561    19286.321     4038.175        6.215        1.469      305.884       65.039        0.045      350.363       31.470      862.545
07/17/2013  17:58:00      -29.351      192.668      -22.570      107.094      145.605       51.015    11469.232    21200.951     2602.542        3.688        1.764      194.891       49.412        0.064      350.529       31.758      862.552
07/17/2013  17:59:00      -89.090      121.785       -7.523       93.238      109.274       52.867     8693.268    11940.777     2794.895        2.312        1.171      150.893       58.284        0.149      350.654       31.977      862.557
07/17/2013  18:00:00     -190.445      -55.016       -6.787      114.285       67.862       41.493    13060.986     4605.204     1721.700        2.936        0.969      198.232       48.412        0.060      350.879       32.368      862.544
07/17/2013  18:01:00     -103.229      -80.699       10.937      128.588       75.892       56.798    16534.966     5759.664     3226.026        2.140        1.276      131.029       64.158        0.240      350.764       32.168      862.546
07/17/2013  18:02:00        3.390       31.038       14.149       37.794       61.830       31.134     1428.424     3822.946      969.329        0.370        0.311       31.223       29.855        0.914      350.465       31.649      862.552
07/17/2013  18:03:00       -6.342       81.396       16.090       29.523       49.531       30.622      871.579     2453.283      937.679        0.559        0.213       81.643       18.584        0.052      350.355       31.459      862.559
07/17/2013  18:04:00      -62.050       66.267       -4.434       44.357       62.931       32.761     1967.505     3960.340     1073.288        0.763        0.350       90.782       29.259        0.104      350.776       32.191      862.570
07/17/2013  18:05:00      -39.437      100.505      -13.167       39.786       46.327       29.287     1582.890     2146.174      857.708        0.821        0.229      107.965       28.199        0.068      350.578       31.846      862.586
07/17/2013  18:06:00      -76.750       48.703      -11.414       66.977       46.336       41.130     4485.959     2147.059     1691.709        0.836        0.416       90.899       44.156        0.236      350.806       32.242      862.587
07/17/2013  18:07:00     -186.450      -53.394       -2.542      137.595       96.502       60.072    18932.258     9312.540     3608.612        3.473        1.593      193.944       62.344        0.103      350.647       31.964      862.595
07/17/2013  18:08:00     -336.267      -84.763      -40.582      123.858       75.245       46.653    15340.844     5661.817     2176.521        7.254        1.159      346.786       48.859        0.020      350.651       31.970      862.586
07/17/2013  18:09:00     -290.892      -90.083      -12.005      108.815       81.280       49.181    11840.800     6606.410     2418.766        5.687        1.043      304.521       54.362        0.032      350.581       31.848      862.596
07/17/2013  18:10:00     -232.465       55.836      -28.227       88.991       84.469       43.649     7919.437     7135.037     1905.261        3.745        0.848      239.077       49.081        0.042      350.593       31.870      862.599
07/17/2013  18:11:00     -162.261       49.453      -19.353       89.165       96.662       51.518     7950.313     9343.587     2654.111        2.454        0.997      169.629       45.130        0.071      350.626       31.928      862.594
07/17/2013  18:12:00      -84.288        4.982       -2.725       74.219       92.575       49.982     5508.475     8570.074     2498.213        1.185        0.829       84.435       19.486        0.053      350.822       32.271      862.594
07/17/2013  18:13:00     -269.796      -77.340      -19.280      122.165       81.858       51.176    14924.218     6700.740     2618.971        5.169        1.212      280.662       56.472        0.040      350.671       32.005      862.602
07/17/2013  18:14:00     -150.728      -16.406       -8.747      117.070       75.652       54.201    13705.421     5723.178     2937.733        2.271        1.118      151.618       50.727        0.112      350.739       32.123      862.613
07/17/2013  18:15:00     -189.015      -88.972       -6.188       71.578       70.006       38.416     5123.347     4900.852     1475.796        2.759        0.575      208.908       38.319        0.034      350.662       31.987      862.627
07/17/2013  18:16:00     -212.004      -83.343      -19.912       41.697       59.793       35.661     1738.627     3575.222     1271.720        2.944        0.329      227.797       21.143        0.009      350.615       31.908      862.620
07/17/2013  18:17:00     -169.550      -64.543       -7.972      113.585       85.396       45.102    12901.450     7292.457     2034.188        2.760        1.111      181.420       55.999        0.095      350.687       32.033      862.636
07/17/2013  18:18:00     -340.566     -126.975       -6.393      141.618      144.557       70.570    20055.665    20896.767     4980.119        8.903        2.297      363.467       52.618        0.021      350.712       32.075      862.634
07/17/2013  18:19:00     -323.228      -68.818      -36.073      165.587      120.253       70.010    27419.002    14460.772     4901.416        7.864        2.339      330.472       83.981        0.065      350.653       31.973      862.665
07/17/2013  18:20:00     -280.746      -98.467      -20.283       92.372       98.195       45.826     8532.494     9642.197     2100.034        5.460        1.014      297.513       30.970        0.011      350.587       31.855      862.683
07/17/2013  18:21:00     -208.558     -100.331       -7.789      119.034       92.298       56.789    14169.140     8518.958     3225.030        3.976        1.296      231.436       44.216        0.036      350.461       31.639      862.684
07/17/2013  18:22:00     -163.866        9.298      -13.806       64.325       88.519       46.242     4137.767     7835.672     2138.361        2.062        0.706      164.130       27.630        0.028      350.519       31.740      862.714
07/17/2013  18:23:00     -215.783      -23.082      -25.727      150.686       87.967       50.367    22706.123     7738.128     2536.807        4.036        1.649      217.014       50.449        0.054      350.540       31.777      862.719
07/17/2013  18:24:00     -279.831       42.443      -35.893      142.308       73.675       59.079    20251.632     5428.035     3490.383        5.528        1.459      283.031       68.076        0.058      350.516       31.736      862.722
07/17/2013  18:25:00     -156.421       91.152      -28.704       98.218      156.762       64.713     9646.819    24574.389     4187.829        3.600        1.920      181.042       70.208        0.150      350.518       31.739      862.730
07/17/2013  18:26:00     -146.078      224.802      -39.877       77.051      112.729       53.592     5936.794    12707.786     2872.113        4.749        1.076      268.094       58.141        0.047      350.370       31.482      862.775
07/17/2013  18:27:00     -150.418       27.466      -14.201       87.986      153.768       49.175     7741.617    23644.462     2418.158        2.869        1.690      152.906       48.896        0.102      350.560       31.813      862.750
07/17/2013  18:28:00     -208.159      344.779      -43.549      106.145      130.015       71.353    11266.720    16903.828     5091.276        9.867        1.663      402.744       64.135        0.025      350.346       31.439      862.802
07/17/2013  18:29:00     -203.472      214.947      -39.307      100.938      124.189       60.727    10188.552    15422.815     3687.770        5.922        1.465      295.978       59.741        0.041      350.385       31.508      862.802
07/17/2013  18:30:00     -327.714       -8.841      -36.971      146.645      115.995       62.100    21504.741    13454.955     3856.357        7.382        1.941      327.833       49.328        0.023      350.469       31.654      862.811
07/17/2013  18:31:00     -350.787       46.082      -35.422      120.345      124.669       65.990    14482.866    15542.337     4354.631        8.040        1.719      353.801       52.406        0.022      350.402       31.536      862.804
07/17/2013  18:32:00     -288.259      -37.050      -12.992      168.249      111.558       67.782    28307.753    12445.077     4594.338        6.498        2.267      290.630       76.292        0.069      350.478       31.669      862.805
07/17/2013  18:33:00     -349.637      -56.228      -41.760      139.536      150.861       61.725    19470.307    22759.162     3809.967        8.659        2.302      354.129       36.800        0.011      350.352       31.450      862.807
07/17/2013  18:34:00     -176.273        7.887      -11.316      124.702      128.007       58.797    15550.474    16385.877     3457.142        3.332        1.770      176.450       43.286        0.060      350.388       31.513      862.807
07/17/2013  18:35:00     -153.945        6.454      -24.127       81.427       86.187       50.634     6630.430     7428.207     2563.771        2.047        0.831      154.080       41.185        0.071      350.495       31.699      862.809
07/17/2013  18:36:00     -289.902      -48.856      -33.424      115.735      114.504       62.291    13394.683    13111.065     3880.226        5.896        1.519      293.990       53.298        0.033      350.350       31.446      862.811
07/17/2013  18:37:00     -250.304      -50.735      -28.423      148.562      131.810       61.280    22070.785    17373.890     3755.179        5.461        2.160      255.394       54.334        0.045      350.323       31.400      862.808
07/17/2013  18:38:00     -171.890      175.149      -35.727      122.434      105.574       59.583    14989.974    11145.933     3550.147        4.559        1.484      245.404       73.258        0.089      350.379       31.497      862.850
07/17/2013  18:39:00     -188.834      249.684      -39.310      103.412      106.763       58.136    10694.081    11398.303     3379.813        6.250        1.274      313.050       61.560        0.039      350.273       31.313      862.868
07/17/2013  18:40:00     -177.566      188.747      -33.887      101.369      111.267       56.185    10275.727    12380.449     3156.745        4.705        1.291      259.143       54.785        0.045      350.325       31.402      862.874
07/17/2013  18:41:00     -263.573       89.420      -25.460      139.079       95.514       59.319    19342.856     9122.906     3518.782        5.504        1.599      278.328       41.133        0.022      350.296       31.352      862.874
07/17/2013  18:42:00     -218.563      134.500      -30.230      110.549      129.440       72.324    12221.030    16754.781     5230.829        5.048        1.710      256.632       57.553        0.050      350.335       31.420      862.860
07/17/2013  18:43:00     -214.228      114.941      -32.556      123.241      126.577       82.979    15188.315    16021.746     6885.578        4.912        1.905      243.115       56.908        0.055      350.282       31.328      862.856
07/17/2013  18:44:00     -235.037       24.200       -7.812      155.209      123.808       74.669    24089.784    15328.356     5575.475        5.043        2.250      236.279       72.195        0.093      350.283       31.331      862.865
07/17/2013  18:45:00     -185.527       51.548      -32.741      152.052      156.923      102.742    23119.709    24624.893    10555.860        4.821        2.915      192.555       87.078        0.205      350.218       31.216      862.864
07/17/2013  18:46:00     -278.454      164.959      -51.612      181.896      143.782       85.790    33086.149    20673.174     7359.932        8.425        3.056      323.648       82.165        0.064      350.163       31.122      862.884
07/17/2013  18:47:00     -326.458      356.399      -77.704      143.909      137.704       85.439    20709.834    18962.522     7299.907       14.329        2.349      483.317       84.721        0.031      350.053       30.931      862.898
07/17/2013  18:48:00     -182.933      194.431      -18.445      106.071      127.678       57.489    11251.089    16301.607     3304.996        5.123        1.543      266.961       37.291        0.020      350.158       31.112      862.894
07/17/2013  18:49:00     -187.336      252.459      -53.715      113.922      156.823       59.487    12978.131    24593.432     3538.691        7.140        2.056      314.373       63.755        0.041      350.081       30.978      862.893
07/17/2013  18:50:00     -183.218      166.790      -49.282       98.508      138.240       65.560     9703.761    19110.424     4298.170        4.846        1.656      247.766       58.322        0.055      350.215       31.212      862.897
07/17/2013  18:51:00     -257.195      187.084      -50.961      138.381      108.468       69.615    19149.223    11765.282     4846.255        6.975        1.788      318.041       65.184        0.042      350.173       31.139      862.940
07/17/2013  18:52:00     -138.303      142.241      -22.482      111.358      122.636       56.614    12400.590    15039.580     3205.155        3.525        1.532      198.394       40.096        0.041      350.127       31.059      862.943
07/17/2013  18:53:00     -175.075      327.471      -35.141      136.405      211.845       81.439    18606.250    44878.193     6632.251       10.461        3.506      371.333       83.391        0.050      350.079       30.975      862.945
07/17/2013  18:54:00     -257.424      352.462      -54.282      106.850      159.593       79.273    11416.968    25469.922     6284.220       11.830        2.159      436.459       63.906        0.021      350.058       30.938      862.944
07/17/2013  18:55:00     -230.623      205.709      -33.348      152.035      155.630       76.580    23114.664    24220.561     5864.420        7.490        2.660      309.036       81.660        0.070      350.102       31.014      862.989
07/17/2013  18:56:00     -124.246      142.577       -6.188       91.965      126.626       50.595     8457.565    16034.267     2559.883        3.142        1.353      189.118       54.068        0.082      350.087       30.989      862.993
07/17/2013  18:57:00     -197.759      190.335      -26.511      130.839      148.573       72.107    17118.860    22074.078     5199.429        6.021        2.220      274.474       72.598        0.070      350.057       30.936      862.985
07/17/2013  18:58:00     -231.808      253.276      -45.587      108.547      118.234       62.980    11782.552    13979.297     3966.460        7.484        1.486      343.342       63.503        0.034      350.083       30.979      862.993
07/17/2013  18:59:00     -194.401      138.361      -22.264       97.817      179.455       70.336     9568.173    32204.178     4947.128        5.207        2.336      238.612       58.972        0.061      350.107       31.023      863.009
07/17/2013  19:00:00     -202.311       47.953      -26.363      126.075      127.619       75.722    15894.960    16286.624     5733.754        4.091        1.896      207.917       46.382        0.050      350.123       31.052      863.015
07/17/2013  19:01:00     -100.150       70.419      -10.466       86.280      117.274       67.372     7444.238    13753.223     4538.965        2.041        1.287      122.429       63.394        0.268      350.140       31.082      863.028
07/17/2013  19:02:00     -163.079      249.661      -21.840      120.942      211.296       82.715    14627.042    44645.835     6841.735        7.775        3.306      298.204       87.866        0.087      350.051       30.928      863.033
07/17/2013  19:03:00     -177.850      225.298      -28.896      109.915      172.175       73.478    12081.329    29644.389     5399.031        6.517        2.356      287.036       63.640        0.049      349.963       30.775      863.027
07/17/2013  19:04:00     -226.332      208.495      -44.262      129.548      174.116       94.616    16782.576    30316.376     8952.096        7.634        2.803      307.727      103.020        0.112      349.951       30.753      863.030
07/17/2013  19:05:00     -212.610      292.426      -44.052      121.809      130.316       74.884    14837.444    16982.193     5607.551        8.503        1.871      361.547       79.480        0.048      349.947       30.745      863.037
07/17/2013  19:06:00     -250.285      269.612      -42.835      138.367      181.272       80.113    19145.481    32859.702     6418.145        9.778        2.921      367.877       68.094        0.034      349.973       30.793      863.033
07/17/2013  19:07:00     -182.581      260.920      -35.895      102.601      116.078       65.727    10526.937    13474.154     4320.018        6.551        1.416      318.457       59.522        0.035      349.985       30.812      863.025
07/17/2013  19:08:00     -297.607      293.581      -62.927      153.970      148.740       96.223    23706.697    22123.582     9258.805       11.689        2.754      418.043       98.511        0.056      349.893       30.652      863.046
07/17/2013  19:09:00     -228.271      262.601      -45.597      108.518      117.834       63.368    11776.246    13884.796     4015.477        7.641        1.484      347.947       56.431        0.026      349.857       30.589      863.024
07/17/2013  19:10:00     -158.983      182.997      -30.919       84.590      210.687       68.529     7155.526    44389.091     4696.292        5.797        2.812      242.412       72.470        0.089      349.916       30.691      863.015
07/17/2013  19:11:00     -123.595       84.973       -0.029       91.061      100.804       53.916     8292.067    10161.378     2906.924        2.192        1.068      149.987       41.583        0.077      349.994       30.829      863.030
07/17/2013  19:12:00     -100.151      149.912      -16.695       75.002      139.931       66.944     5625.370    19580.737     4481.556        3.123        1.484      180.288       45.235        0.063      349.967       30.783      863.052
07/17/2013  19:13:00     -145.758      190.035       -7.066       96.927      132.182       66.080     9394.836    17472.083     4366.516        4.431        1.562      239.497       54.548        0.052      349.952       30.754      863.059
07/17/2013  19:14:00     -208.069      120.645      -10.386      136.818      131.706       91.235    18719.273    17346.421     8323.852        5.116        2.219      240.516       74.163        0.095      349.989       30.820      863.047
07/17/2013  19:15:00     -322.420       50.909      -39.893      113.882      137.453       81.665    12969.165    18893.216     6669.097        7.333        1.927      326.415       69.260        0.045      349.918       30.695      863.055
07/17/2013  19:16:00     -240.387       -0.971      -36.506      170.083      129.037       76.709    28928.217    16650.585     5884.297        5.528        2.573      240.389       41.521        0.030      349.920       30.699      863.066
07/17/2013  19:17:00      -89.772      128.325        1.316       82.450       90.510       64.390     6797.931     8192.105     4146.015        2.183        0.957      156.609       54.952        0.123      349.920       30.701      863.088
07/17/2013  19:18:00     -227.049      208.221      -46.037      101.883      159.268       72.475    10380.085    25366.414     5252.569        6.900        2.050      308.070       68.963        0.050      349.902       30.668      863.091
07/17/2013  19:19:00     -204.029      123.745      -27.737       97.190       81.483       46.998     9445.876     6639.431     2208.796        3.800        0.915      238.622       27.554        0.013      349.921       30.701      863.083
07/17/2013  19:20:00     -257.100      112.437      -34.497      145.778      134.956       79.393    21251.351    18213.096     6303.223        6.284        2.288      280.611       83.547        0.089      349.887       30.642      863.108
07/17/2013  19:21:00     -248.520      143.620      -28.492      127.043      171.894       90.646    16139.994    29547.691     8216.614        6.854        2.695      287.035       87.965        0.094      349.827       30.538      863.127
07/17/2013  19:22:00     -283.508      206.450      -42.690      165.717      137.562       82.098    27461.963    18923.403     6740.077        8.896        2.656      350.711       77.309        0.049      349.755       30.411      863.118
07/17/2013  19:23:00     -155.855       17.332      -22.768      133.038      121.988       65.020    17698.998    14881.112     4227.537        3.095        1.840      156.816       59.497        0.144      349.807       30.503      863.108
07/17/2013  19:24:00     -295.734      -52.294      -28.602      133.832      130.528       72.912    17910.890    17037.619     5316.135        6.563        2.013      300.322       62.908        0.044      349.704       30.323      863.112
07/17/2013  19:25:00     -257.985      104.142      -37.229      133.941      124.164       55.438    17940.121    15416.612     3073.371        5.760        1.822      278.212       38.466        0.019      349.663       30.252      863.112
07/17/2013  19:26:00     -222.436       42.869      -27.154      104.844      160.794       75.775    10992.344    25854.852     5741.827        4.731        2.129      226.530       43.678        0.037      349.664       30.254      863.106
07/17/2013  19:27:00     -276.569      -46.834      -23.520      145.136      147.824       83.438    21064.477    21851.993     6961.945        6.455        2.494      280.506       67.871        0.059      349.616       30.173      863.116
07/17/2013  19:28:00     -293.358       48.484      -26.741      148.017      176.626       95.470    21909.168    31196.850     9114.574        7.566        3.111      297.337      100.001        0.113      349.595       30.135      863.124
07/17/2013  19:29:00     -249.279       63.562      -14.910      199.754      112.998       89.091    39901.854    12768.522     7937.203        6.349        3.030      257.255       94.442        0.135      349.582       30.113      863.136
07/17/2013  19:30:00     -238.758       57.912      -40.855      182.310      139.626       86.982    33236.865    19495.373     7565.938        6.115        3.015      245.681       97.009        0.156      349.607       30.158      863.143
07/17/2013  19:31:00     -255.584       59.137      -25.164      156.079      129.142       67.615    24360.636    16677.629     4571.723        5.752        2.280      262.337       58.802        0.050      349.553       30.062      863.144
07/17/2013  19:32:00     -256.190       95.504      -36.085      173.113      162.339       73.264    29968.111    26353.860     5367.614        6.886        3.084      273.412       75.481        0.076      349.525       30.014      863.145
07/17/2013  19:33:00     -243.910       60.322      -48.696      127.814      161.894       74.321    16336.525    26209.681     5523.666        5.678        2.403      251.258       51.552        0.042      349.471       29.920      863.146
07/17/2013  19:34:00     -205.217      -28.021      -19.871       92.697      137.362       76.110     8592.689    18868.204     5792.740        3.827        1.663      207.121       58.754        0.080      349.493       29.959      863.166
07/17/2013  19:35:00     -254.460      122.590      -59.916      127.186      186.868       79.953    16176.373    34919.544     6392.511        7.042        2.874      282.450       66.259        0.055      349.482       29.939      863.180
07/17/2013  19:36:00     -263.475      109.011      -47.515      159.587      133.996       76.591    25468.011    17954.816     5866.193        6.641        2.464      285.136       80.431        0.080      349.446       29.875      863.167
07/17/2013  19:37:00     -315.853      131.982      -54.140      144.939      138.899       89.244    21007.336    19292.915     7964.482        8.418        2.413      342.319       89.274        0.068      349.447       29.877      863.184
07/17/2013  19:38:00     -175.462       34.136      -22.825       97.588      155.238       76.366     9523.466    24098.841     5831.806        3.596        1.973      178.752       52.235        0.085      349.449       29.882      863.182
07/17/2013  19:39:00     -287.105       88.082      -35.616      115.946      150.448       69.567    13443.456    22634.551     4839.562        6.618        2.046      300.313       61.906        0.042      349.425       29.837      863.186
07/17/2013  19:40:00     -241.148       52.024      -43.176      156.879      118.221       65.240    24611.055    13976.180     4256.243        5.277        2.142      246.695       69.393        0.079      349.405       29.805      863.205
07/17/2013  19:41:00     -183.169      -40.399       -4.833      152.140      141.739       69.135    23146.429    20090.000     4779.709        4.160        2.401      187.571       63.735        0.115      349.369       29.743      863.213
07/17/2013  19:42:00     -373.429       -6.367      -42.392      183.084      135.235       82.234    33519.922    18288.516     6762.399        9.992        2.929      373.484       72.455        0.038      349.311       29.640      863.218
07/17/2013  19:43:00     -122.929      -27.093        0.667      146.817       90.503       70.524    21555.345     8190.712     4973.681        2.528        1.736      125.879       59.368        0.222      349.305       29.634      863.216
07/17/2013  19:44:00     -216.343      -78.788      -23.220      133.017      115.921       67.639    17693.622    13437.627     4575.071        4.462        1.785      230.243       57.477        0.062      349.277       29.585      863.229
07/17/2013  19:45:00     -188.939      -27.764        5.717      149.302      110.937       71.673    22291.119    12307.063     5137.015        3.811        1.987      190.968       71.248        0.139      349.261       29.557      863.213
07/17/2013  19:46:00     -226.286      -40.425      -23.732      153.408       99.737       53.910    23534.056     9947.424     2906.339        4.489        1.819      229.868       42.490        0.034      349.208       29.465      863.217
07/17/2013  19:47:00     -145.095      -73.050       11.455      126.824       90.213       58.963    16084.407     8138.367     3476.662        2.710        1.385      162.446       63.522        0.153      349.158       29.379      863.240
07/17/2013  19:48:00     -237.537      -20.933       10.128      140.715      125.885       89.653    19800.637    15847.017     8037.589        5.032        2.184      238.458       92.928        0.152      349.158       29.377      863.223
07/17/2013  19:49:00     -358.010      -39.881      -34.412      147.407      104.429       66.597    21728.901    10905.342     4435.110        8.400        1.853      360.224       70.965        0.039      349.119       29.308      863.225
07/17/2013  19:50:00     -183.915      -43.349      -10.464      145.392      111.843       70.198    21138.911    12508.868     4927.715        3.719        1.929      188.954       62.993        0.111      349.093       29.265      863.227
07/17/2013  19:51:00     -203.028      -34.563      -14.892      139.172       89.623       60.902    19368.907     8032.224     3708.995        3.687        1.556      205.949       50.037        0.059      349.066       29.218      863.220
07/17/2013  19:52:00     -190.634       18.048      -24.562      131.052      104.928       66.003    17174.591    11009.875     4356.410        3.490        1.627      191.487       60.238        0.099      349.022       29.141      863.220
07/17/2013  19:53:00     -409.580      -36.305      -25.649      189.909      118.311       67.368    36065.325    13997.520     4538.396       11.216        2.730      411.186       60.835        0.022      348.951       29.018      863.234
07/17/2013  19:54:00     -306.041      -74.153      -24.270      134.439      106.285       55.766    18073.755    11296.414     3109.877        6.611        1.624      314.897       33.761        0.011      348.930       28.985      863.238
07/17/2013  19:55:00     -278.537      -75.833       -1.429      175.565      134.715       67.729    30823.208    18148.020     4587.153        6.844        2.678      288.676       67.608        0.055      348.882       28.900      863.242
07/17/2013  19:56:00     -425.487      -71.849      -34.765      159.347      161.389       79.683    25391.497    26046.564     6349.359       12.259        2.889      431.510       78.938        0.033      348.926       28.977      863.241
07/17/2013  19:57:00     -296.295      -60.483      -16.397      136.858      113.636       59.298    18730.038    12913.083     3516.292        6.343        1.758      302.405       53.219        0.031      348.881       28.896      863.237
07/17/2013  19:58:00     -421.330     -128.831      -44.639      105.258      124.639       57.339    11079.280    15534.875     3287.753       11.300        1.495      440.586       48.034        0.012      348.892       28.915      863.244
07/17/2013  19:59:00     -255.085        2.152      -29.364      116.516      128.184       62.123    13575.972    16431.013     3859.281        4.989        1.693      255.094       54.210        0.045      348.882       28.898      863.254
07/17/2013  20:00:00     -389.165      -50.419      -27.115      143.205      118.994       65.699    20507.569    14159.650     4316.317        9.685        1.949      392.418       58.166        0.022      348.875       28.886      863.258
07/17/2013  20:01:00     -428.714      -50.366      -36.550      103.096      145.374       54.878    10628.782    21133.546     3011.545       11.121        1.739      431.662       51.459        0.014      348.843       28.829      863.259
07/17/2013  20:02:00     -247.071      -83.369      -17.820      116.331       92.023       55.704    13532.962     8468.249     3102.896        4.670        1.255      260.758       56.968        0.048      348.809       28.772      863.256
07/17/2013  20:03:00     -351.448      -25.704      -33.479      133.516       96.752       62.943    17826.566     9360.893     3961.805        7.822        1.557      352.387       41.247        0.014      348.837       28.821      863.278
07/17/2013  20:04:00     -281.337      -59.078      -14.084      125.402       99.730       58.709    15725.751     9946.067     3446.784        5.597        1.456      287.473       66.099        0.053      348.742       28.657      863.301
07/17/2013  20:05:00     -390.996      -52.188      -37.026      111.373      101.021       60.224    12403.967    10205.232     3626.975        9.160        1.312      394.464       39.208        0.010      348.756       28.682      863.314
07/17/2013  20:06:00     -340.882      -51.996      -30.537      164.022      102.598       51.787    26903.227    10526.306     2681.884        7.997        2.006      344.825       58.699        0.029      348.776       28.715      863.324
07/17/2013  20:07:00     -265.579      -55.572      -12.208      102.161       79.782       49.434    10436.846     6365.157     2443.735        4.650        0.962      271.330       52.737        0.038      348.720       28.620      863.354
07/17/2013  20:08:00     -160.072      -51.094       -1.352       84.963       73.957       46.973     7218.739     5469.626     2206.464        2.156        0.745      168.029       39.933        0.056      348.731       28.639      863.368
07/17/2013  20:09:00      -81.846       -1.744        9.707       96.294       56.661       51.741     9272.556     3210.458     2677.104        1.098        0.758       81.865       52.704        0.414      348.690       28.570      863.391
07/17/2013  20:10:00     -124.777      -26.475      -10.361       78.706       87.401       50.078     6194.589     7638.925     2507.829        1.636        0.817      127.555       29.581        0.054      348.708       28.602      863.416
07/17/2013  20:11:00     -132.467       33.184      -13.198       98.642       71.818       48.183     9730.276     5157.880     2321.606        1.801        0.860      136.560       48.422        0.126      348.696       28.580      863.426
07/17/2013  20:12:00      -93.971       60.114      -22.635       71.433       61.824       39.288     5102.714     3822.175     1543.513        1.171        0.523      111.553       18.851        0.029      348.705       28.596      863.445
07/17/2013  20:13:00     -131.923       34.908      -21.202       41.333       53.222       35.065     1708.444     2832.534     1229.566        1.242        0.289      136.463       24.949        0.033      348.732       28.644      863.460
07/17/2013  20:14:00     -151.280       35.447      -25.242       59.253       82.333       37.911     3510.888     6778.727     1437.273        1.825        0.586      155.377       33.446        0.046      348.684       28.557      863.476
07/17/2013  20:15:00     -100.694      -10.801       -0.356       68.361       66.236       39.152     4673.232     4387.223     1532.916        1.042        0.530      101.271       37.220        0.135      348.613       28.436      863.484
07/17/2013  20:16:00      -66.072       25.875       12.192       92.265       59.475       53.618     8512.759     3537.225     2874.866        1.005        0.746       70.958       55.396        0.609      348.615       28.439      863.482
07/17/2013  20:17:00     -199.372      -49.220      -28.724       56.323       49.396       36.954     3172.247     2439.950     1365.610        2.499        0.349      205.358       23.826        0.013      348.609       28.428      863.489
07/17/2013  20:18:00     -134.779      -11.419      -23.179       56.406       62.688       29.599     3181.628     3929.825      876.108        1.341        0.399      135.262       20.691        0.023      348.612       28.434      863.494
07/17/2013  20:19:00      -95.745      -26.786       -5.898       82.241       75.461       36.830     6763.559     5694.375     1356.445        1.186        0.691       99.421       42.142        0.180      348.524       28.282      863.490
07/17/2013  20:20:00     -107.588       30.263       -9.294       69.888      104.291       48.340     4884.369    10876.589     2336.728        1.533        0.905      111.763       40.217        0.129      348.520       28.274      863.492
07/17/2013  20:21:00     -160.713      -37.764      -14.805      115.839       64.219       36.483    13418.647     4124.082     1331.034        2.317        0.944      165.090       30.928        0.035      348.551       28.327      863.495
07/17/2013  20:22:00     -170.925      -73.106        1.728       96.824       92.742       48.450     9374.964     8601.067     2347.404        2.744        1.016      185.903       49.769        0.072      348.494       28.229      863.480
07/17/2013  20:23:00      -75.332       55.622       -0.666       56.159       84.120       37.874     3153.877     7076.182     1434.406        1.021        0.583       93.641       35.091        0.140      348.409       28.081      863.476
07/17/2013  20:24:00     -144.974      -19.283      -27.858       54.865       71.275       38.229     3010.134     5080.161     1461.471        1.586        0.478      146.251       25.208        0.030      348.512       28.261      863.482
07/17/2013  20:25:00     -229.409      -49.147      -14.896       97.564       65.645       48.431     9518.755     4309.241     2345.600        3.572        0.809      234.614       49.438        0.044      348.462       28.172      863.485
07/17/2013  20:26:00     -271.791      -37.925      -21.358       75.326       95.262       44.093     5673.946     9074.823     1944.192        4.623        0.835      274.425       36.722        0.018      348.487       28.214      863.496
07/17/2013  20:27:00     -211.731      -72.194      -11.533       80.612       83.703       42.792     6498.233     7006.117     1831.145        3.275        0.767      223.701       42.222        0.036      348.448       28.150      863.515
07/17/2013  20:28:00     -224.422      -58.734       -6.104       99.601       69.381       38.688     9920.326     4813.761     1496.754        3.504        0.812      231.981       43.587        0.035      348.410       28.084      863.535
07/17/2013  20:29:00     -214.307      -43.379       -1.430       92.940       79.016       48.021     8637.818     6243.567     2305.982        3.250        0.859      218.653       53.064        0.059      348.394       28.054      863.538
07/17/2013  20:30:00     -255.661      -52.452      -10.153       97.249       92.465       49.597     9457.322     8549.711     2459.870        4.434        1.023      260.986       52.111        0.040      348.421       28.102      863.549
07/17/2013  20:31:00     -155.889      -48.253        3.188       87.882       69.177       39.958     7723.209     4785.464     1596.649        2.037        0.705      163.186       33.801        0.043      348.443       28.140      863.557
07/17/2013  20:32:00     -192.503      -81.464       -0.153       62.959       69.894       35.674     3963.859     4885.211     1272.623        2.691        0.506      209.031       34.090        0.027      348.433       28.123      863.575
07/17/2013  20:33:00     -286.467      -91.945      -10.909      117.605       97.808       51.571    13830.853     9566.413     2659.536        5.834        1.303      300.861       55.484        0.034      348.460       28.169      863.578
07/17/2013  20:34:00     -166.612      -26.840        8.493       69.859       56.048       40.722     4880.246     3141.420     1658.302        1.911        0.484      168.760       38.916        0.053      348.344       27.970      863.600
07/17/2013  20:35:00     -154.895      -25.349       -0.596       96.802       55.376       40.033     9370.542     3066.526     1602.620        1.933        0.702      156.956       43.829        0.078      348.319       27.926      863.611
07/17/2013  20:36:00     -167.571      -67.426        5.967       69.845       54.471       42.525     4878.332     2967.090     1808.336        2.116        0.483      180.628       36.695        0.041      348.340       27.962      863.612
07/17/2013  20:37:00     -240.188      -43.062      -10.006      104.830       63.594       39.633    10989.409     4044.192     1570.738        3.812        0.830      244.017       42.900        0.031      348.398       28.063      863.612
07/17/2013  20:38:00     -196.572      -78.742       -5.573       80.951       69.106       38.493     6553.069     4775.638     1481.732        2.884        0.641      211.756       27.725        0.017      348.363       28.002      863.622
07/17/2013  20:39:00     -191.174      -19.383        1.783      120.829       68.184       45.199    14599.527     4649.000     2042.908        2.910        1.065      192.154       53.460        0.077      348.328       27.942      863.628
07/17/2013  20:40:00     -201.207      -68.271        0.655      151.879       94.694       59.693    23067.333     8967.000     3563.231        4.036        1.780      212.473       73.951        0.121      348.269       27.840      863.639
07/17/2013  20:41:00     -219.552      -75.592       -9.583      102.393       88.441       54.036    10484.406     7821.874     2919.869        3.761        1.061      232.201       53.765        0.054      348.337       27.957      863.650
07/17/2013  20:42:00     -113.582      -61.208        1.910       80.668       64.854       33.404     6507.285     4206.086     1115.820        1.424        0.591      129.025       39.988        0.096      348.320       27.929      863.670
07/17/2013  20:43:00      -39.242      -27.459        9.754       65.205       59.496       37.779     4251.674     3539.762     1427.279        0.580        0.461       47.895       34.067        0.506      348.279       27.860      863.678
07/17/2013  20:44:00     -203.224     -122.070        4.553      110.610       78.376       50.350    12234.478     6142.804     2535.133        3.856        1.046      237.068       53.728        0.051      348.309       27.905      863.689
07/17/2013  20:45:00     -279.041     -131.060       -4.611      106.227       67.382       54.996    11284.192     4540.378     3024.525        5.695        0.942      308.287       54.359        0.031      348.336       27.953      863.695
07/17/2013  20:46:00     -197.099     -158.567       -3.766      128.955       83.442       56.175    16629.349     6962.521     3155.630        4.537        1.337      252.966       72.596        0.082      348.275       27.849      863.703
07/17/2013  20:47:00     -172.018     -113.505       -5.989       94.876      104.860       57.281     9001.491    10995.519     3281.126        3.289        1.164      206.091       49.863        0.059      348.242       27.792      863.716
07/17/2013  20:48:00     -193.862     -108.767       -2.250      112.683       99.239       57.484    12697.553     9848.302     3304.417        3.763        1.293      222.290       58.553        0.069      348.235       27.780      863.725
07/17/2013  20:49:00     -301.105     -188.928      -16.687      155.144      107.002       71.348    24069.635    11449.466     5090.594        8.362        2.030      355.469       83.055        0.055      348.257       27.817      863.732
07/17/2013  20:50:00     -317.175       20.563      -15.802      130.654       79.614       52.209    17070.474     6338.336     2725.818        6.370        1.307      317.841       56.574        0.032      348.208       27.734      863.759
07/17/2013  20:51:00     -210.959      -46.346       -6.770       94.188       71.760       35.656     8871.286     5149.430     1271.325        3.099        0.765      215.990       30.044        0.019      348.160       27.650      863.771
07/17/2013  20:52:00     -227.586      -85.493       -1.787      173.799      110.327       62.273    30206.036    12171.953     3877.929        5.267        2.313      243.115       72.624        0.089      348.178       27.682      863.760
07/17/2013  20:53:00     -312.439     -105.032      -26.818      128.197      129.567       48.571    16434.540    16787.617     2359.102        7.247        1.779      329.620       59.098        0.032      348.143       27.620      863.766
07/17/2013  20:54:00     -267.222       -3.523        1.848      217.242      130.721       81.683    47194.024    17087.862     6672.165        7.117        3.548      267.245       95.803        0.129      348.042       27.447      863.761
07/17/2013  20:55:00     -189.569      -36.536       -5.503      132.920       82.207       61.704    17667.732     6758.033     3807.429        3.276        1.412      193.058       69.613        0.130      348.049       27.459      863.777
07/17/2013  20:56:00     -325.673      -22.993      -12.817      167.353      100.535       79.436    28007.062    10107.382     6310.095        7.558        2.221      326.484       92.292        0.080      348.055       27.468      863.788
07/17/2013  20:57:00     -271.642      -10.113      -15.033      111.968       84.706       49.953    12536.915     7175.053     2495.314        4.816        1.110      271.830       47.411        0.030      348.071       27.495      863.806
07/17/2013  20:58:00     -358.234     -109.610      -23.955      200.477      126.412       73.233    40191.196    15979.958     5363.089       10.121        3.077      374.628       94.341        0.063      348.046       27.453      863.821
07/17/2013  20:59:00     -242.775      -45.675        3.097      149.454      122.659       70.578    22336.522    15045.353     4981.257        5.169        2.118      247.034       81.403        0.109      348.020       27.408      863.831
07/17/2013  21:00:00     -201.529      -54.747       -0.577      156.434      104.520       63.403    24471.649    10924.460     4019.916        4.151        1.971      208.833       65.660        0.099      348.008       27.388      863.863
07/17/2013  21:01:00     -231.035      -97.435      -12.818      122.251      133.694       48.211    14945.348    17874.164     2324.338        4.908        1.757      250.740       57.778        0.053      348.014       27.398      863.893
07/17/2013  21:02:00     -320.251      -75.284      -14.749      131.839       88.179       54.167    17381.576     7775.570     2934.054        6.826        1.405      328.981       62.868        0.037      347.984       27.346      863.926
07/17/2013  21:03:00     -291.485      -30.537      -26.905      143.875      106.678       57.938    20700.108    11380.238     3356.799        6.102        1.772      293.081       59.326        0.041      347.973       27.327      863.947
07/17/2013  21:04:00     -292.089      -12.437      -28.703       96.636       77.126       50.165     9338.553     5948.486     2516.524        5.205        0.890      292.354       46.620        0.025      347.966       27.315      863.986
07/17/2013  21:05:00     -281.651       15.156      -10.357      149.358      120.294       53.277    22307.904    14470.592     2838.402        5.963        1.981      282.059       60.366        0.046      347.932       27.255      864.009
07/17/2013  21:06:00     -379.359       72.873      -20.568      151.610      114.601       64.138    22985.532    13133.324     4113.686        9.493        2.012      386.295       54.222        0.020      347.949       27.287      864.027
07/17/2013  21:07:00     -147.958       23.817      -24.059       58.713       69.389       31.358     3447.165     4814.852      983.321        1.614        0.462      149.863       21.020        0.020      347.932       27.257      864.083
07/17/2013  21:08:00     -118.291       10.856        2.517       86.694       54.882       41.347     7515.794     3012.021     1709.546        1.317        0.612      118.789       43.920        0.137      347.908       27.216      864.114
07/17/2013  21:09:00      -65.280       29.884       -4.742       42.289       46.245       28.328     1788.399     2138.633      802.496        0.495        0.236       71.795       15.291        0.045      347.871       27.154      864.137
07/17/2013  21:10:00     -143.917      129.323       -8.978       86.728       92.401       57.349     7521.761     8538.024     3288.910        2.843        0.967      193.485       53.264        0.076      347.817       27.058      864.155
07/17/2013  21:11:00      -90.057      140.050      -15.109       46.092       52.362       31.991     2124.481     2741.789     1023.434        1.692        0.294      166.507       25.790        0.024      347.764       26.969      864.183
07/17/2013  21:12:00      -97.498      153.225      -19.370       49.404       77.125       38.774     2440.769     5948.281     1503.399        2.162        0.495      181.614       29.928        0.027      347.733       26.914      864.197
07/17/2013  21:13:00     -133.203      181.773      -32.086       63.518       61.018       37.154     4034.572     3723.191     1380.456        3.047        0.457      225.354       30.623        0.018      347.761       26.959      864.193
07/17/2013  21:14:00      -75.442      189.790      -22.222       41.090       60.524       33.012     1688.418     3663.167     1089.790        2.432        0.322      204.234       30.587        0.022      347.762       26.964      864.191
07/17/2013  21:15:00     -110.847      177.724      -22.112       70.285       63.659       47.112     4939.992     4052.488     2219.531        2.778        0.561      209.458       38.062        0.033      347.683       26.827      864.183
07/17/2013  21:16:00     -197.441      159.183      -24.697      104.406      117.865       59.352    10900.609    13892.075     3522.633        4.662        1.416      253.618       49.101        0.037      347.729       26.906      864.210
07/17/2013  21:17:00     -154.727      224.933      -32.254       66.233       97.069       52.424     4386.838     9422.390     2748.261        4.606        0.828      273.011       43.431        0.025      347.734       26.914      864.219
07/17/2013  21:18:00     -176.127       95.289      -23.584       88.969      102.289       59.646     7915.485    10463.118     3557.688        3.129        1.097      200.252       58.374        0.085      347.793       27.017      864.224
07/17/2013  21:19:00      -95.810       94.608       -3.798       69.655       64.476       36.965     4851.830     4157.171     1366.409        1.426        0.519      134.649       27.913        0.043      347.744       26.934      864.234
07/17/2013  21:20:00     -141.807      158.110      -29.932       49.873       75.712       34.847     2487.343     5732.280     1214.331        2.772        0.472      212.387       29.335        0.019      347.829       27.078      864.261
07/17/2013  21:21:00     -184.943      165.983      -37.151       74.921       85.832       45.871     5613.182     7367.205     2104.158        3.911        0.754      248.504       46.913        0.036      347.954       27.294      864.293
07/17/2013  21:22:00     -115.710      231.563      -27.450       84.651       66.114       38.311     7165.793     4371.067     1467.738        4.038        0.650      258.863       32.500        0.016      347.772       26.979      864.273
07/17/2013  21:23:00      -96.490      274.544      -44.488       58.415       95.448       36.683     3412.366     9110.318     1345.643        5.026        0.693      291.006       14.834        0.003      347.880       27.166      864.286
07/17/2013  21:24:00     -107.041      100.420      -15.908       76.136       75.317       38.158     5796.649     5672.718     1456.066        1.736        0.646      146.771       39.277        0.072      347.710       26.874      864.327
07/17/2013  21:25:00     -125.438      121.434      -26.325       63.597       63.163       46.714     4044.530     3989.529     2182.191        2.069        0.511      174.588       23.549        0.018      347.655       26.780      864.340
07/17/2013  21:26:00     -180.507      184.937      -33.482       91.493      149.075       50.558     8370.899    22223.424     2556.135        5.052        1.658      258.427       56.526        0.048      347.744       26.931      864.360
07/17/2013  21:27:00     -122.195       90.132      -16.661       59.506       84.903       37.500     3540.978     7208.467     1406.225        1.774        0.608      151.840       27.497        0.033      347.728       26.907      864.384
07/17/2013  21:28:00     -151.524      225.872      -14.694      117.112      127.545       64.359    13715.278    16267.757     4142.085        5.415        1.706      271.989       65.718        0.058      347.678       26.817      864.395
07/17/2013  21:29:00     -177.590      184.943      -30.904      103.952      100.076       54.685    10805.981    10015.245     2990.427        4.525        1.191      256.402       53.963        0.044      347.716       26.883      864.413
07/17/2013  21:30:00     -142.430      139.897      -19.861       91.645      118.752       47.883     8398.802    14102.024     2292.779        3.252        1.240      199.643       61.485        0.095      347.686       26.833      864.422
07/17/2013  21:31:00      -84.671       51.679        0.311       66.590       58.019       30.436     4434.205     3366.188      926.355        0.928        0.436       99.196       24.687        0.062      347.737       26.924      864.422
07/17/2013  21:32:00     -126.662      -24.154      -15.224       73.789       92.606       30.555     5444.858     8575.829      933.587        1.590        0.748      128.944       29.035        0.051      347.737       26.921      864.443
07/17/2013  21:33:00     -232.575       99.678      -34.801       75.105       87.897       54.526     5640.736     7725.927     2973.097        4.079        0.817      253.035       24.546        0.009      347.528       26.558      864.493
07/17/2013  21:34:00     -161.139      152.609      -26.306       68.453       84.369       43.350     4685.859     7118.065     1879.213        3.181        0.684      221.935       42.594        0.037      347.370       26.286      864.509
07/17/2013  21:35:00     -132.400       79.091       -9.886       82.878       80.142       45.163     6868.687     6422.719     2039.676        1.960        0.767      154.224       44.868        0.085      347.318       26.198      864.508
07/17/2013  21:36:00     -164.263       74.512      -32.786       52.859       87.103       45.451     2794.107     7587.015     2065.795        2.303        0.622      180.373       34.916        0.037      347.391       26.324      864.500
07/17/2013  21:37:00     -182.080      -33.805      -10.442       72.302       77.645       36.200     5227.576     6028.693     1310.437        2.348        0.628      185.191        9.281        0.003      347.291       26.151      864.516
07/17/2013  21:38:00     -232.921       -2.063      -28.127      103.388       87.665       42.224    10689.023     7685.150     1782.841        3.760        1.008      232.930       41.383        0.032      347.203       25.999      864.540
07/17/2013  21:39:00     -149.505       64.804      -19.566       87.947       73.808       43.525     7734.617     5447.616     1894.416        2.100        0.754      162.946       44.789        0.076      347.148       25.906      864.545
07/17/2013  21:40:00     -170.025       74.911       -5.308       93.777       57.454       42.422     8794.173     3300.921     1799.659        2.422        0.695      185.796       36.202        0.038      347.141       25.893      864.553
07/17/2013  21:41:00     -160.411       37.634      -17.445      108.695      114.218       56.873    11814.496    13045.762     3234.587        2.777        1.405      164.766       44.384        0.073      347.259       26.095      864.556
07/17/2013  21:42:00     -224.621      -27.415      -26.867       90.605       90.992       47.948     8209.316     8279.617     2298.981        3.535        0.939      226.288       31.872        0.020      347.311       26.185      864.553
07/17/2013  21:43:00     -325.332      -36.706      -42.625      112.400      124.493       69.757    12633.663    15498.422     4866.050        7.099        1.650      327.396       52.820        0.026      347.457       26.437      864.545
07/17/2013  21:44:00     -276.745       84.745      -53.120       91.206      141.596       54.594     8318.495    20049.440     2980.534        5.896        1.567      289.430       45.811        0.025      347.322       26.203      864.558
07/17/2013  21:45:00     -264.636      -72.104      -21.031      130.780      125.115       58.530    17103.513    15653.647     3425.725        5.592        1.809      274.283       62.090        0.051      347.300       26.166      864.539
07/17/2013  21:46:00     -310.924      -82.504      -22.990      144.711      121.393       65.711    20941.244    14736.197     4317.920        7.199        2.000      321.684       68.244        0.045      347.308       26.180      864.544
07/17/2013  21:47:00     -251.507      -15.634      -26.087      118.865      109.284       49.174    14128.974    11943.048     2418.065        4.633        1.425      251.992       54.730        0.047      347.231       26.047      864.557
07/17/2013  21:48:00     -393.203      -37.811      -19.778      139.363      102.892       63.799    19422.101    10586.722     4070.372        9.525        1.704      395.017       67.673        0.029      347.209       26.009      864.572
07/17/2013  21:49:00     -278.064      -30.202      -12.750      100.991       81.950       49.157    10199.095     6715.861     2416.454        4.886        0.967      279.699       43.810        0.025      347.180       25.957      864.574
07/17/2013  21:50:00     -281.488       -4.393       -9.454      165.954       83.582       59.479    27540.834     6985.925     3537.719        5.870        1.903      281.522       74.949        0.071      347.207       26.006      864.575
07/17/2013  21:51:00     -339.646      -98.568       -7.268      142.848      118.376       60.438    20405.451    14012.993     3652.725        8.159        1.904      353.660       71.442        0.041      347.344       26.243      864.569
07/17/2013  21:52:00     -255.723      -30.221       -3.946      141.989       76.557       59.411    20160.872     5860.987     3529.715        4.793        1.478      257.503       72.454        0.079      347.290       26.150      864.584
07/17/2013  21:53:00     -259.442      -11.099      -10.706      128.103       91.499       51.615    16410.298     8372.073     2664.095        4.749        1.372      259.679       62.127        0.057      347.246       26.072      864.606
07/17/2013  21:54:00     -261.965      -73.368      -10.669       98.396      103.913       58.505     9681.726    10797.840     3422.883        4.901        1.195      272.045       54.384        0.040      347.286       26.143      864.635
07/17/2013  21:55:00     -267.968       13.447      -24.049       91.981       59.115       43.967     8460.448     3494.591     1933.072        4.322        0.694      268.305       46.088        0.030      347.305       26.175      864.645
07/17/2013  21:56:00     -244.926       21.266      -20.562       61.429       63.891       33.450     3773.555     4082.050     1118.896        3.492        0.449      245.847       23.977        0.010      347.288       26.143      864.661
07/17/2013  21:57:00     -164.478      -42.701       -9.754      126.572       75.475       48.238    16020.575     5696.485     2326.919        2.650        1.202      169.931       65.157        0.147      347.290       26.149      864.648
07/17/2013  21:58:00     -160.428      -75.571      -10.663       74.785       58.087       42.074     5592.804     3374.120     1770.259        2.115        0.537      177.336       32.296        0.033      347.185       25.968      864.658
07/17/2013  21:59:00     -202.810       25.075       -7.328       71.816       60.676       34.836     5157.526     3681.556     1213.576        2.593        0.503      204.355       35.885        0.031      347.236       26.056      864.641
07/17/2013  22:00:00      -89.850       37.381        0.509       62.931       42.426       25.184     3960.314     1800.000      634.236        0.793        0.320       97.316       21.043        0.047      347.160       25.929      864.645
07/17/2013  22:01:00      -79.011       16.651      -17.184       39.402       34.200       19.516     1552.502     1169.620      380.862        0.496        0.155       80.746       18.253        0.051      347.183       25.969      864.657
07/17/2013  22:02:00      -70.182       61.263      -10.513       37.517       31.755       17.283     1407.496     1008.360      298.716        0.575        0.136       93.159       18.403        0.039      346.963       25.590      864.665
07/17/2013  22:03:00      -74.150      145.191      -19.480       46.872       59.287       31.520     2196.967     3514.975      993.512        1.683        0.335      163.030       29.226        0.032      346.877       25.439      864.688
07/17/2013  22:04:00     -161.129      102.671      -30.486       44.809       43.591       29.882     2007.876     1900.142      892.959        2.112        0.240      191.060       21.566        0.013      346.991       25.636      864.699
07/17/2013  22:05:00      -91.196      125.664      -16.728       48.519       59.318       32.882     2354.079     3518.648     1081.204        1.567        0.348      155.268       31.729        0.042      346.935       25.538      864.732
07/17/2013  22:06:00     -110.087      119.517      -21.192       39.919       61.213       29.921     1593.537     3746.996      895.286        1.654        0.312      162.491       27.610        0.029      346.956       25.575      864.750
07/17/2013  22:07:00     -120.500      150.935      -29.212       72.097       61.018       39.681     5198.004     3723.165     1574.617        2.432        0.525      193.137       40.218        0.043      346.956       25.575      864.756
07/17/2013  22:08:00     -189.986      101.106      -25.328       62.557       86.641       36.682     3913.433     7506.697     1345.585        2.986        0.638      215.214       38.934        0.033      346.981       25.617      864.770
07/17/2013  22:09:00     -150.442       96.020      -30.750       62.429       55.718       43.670     3897.442     3104.515     1907.099        2.085        0.445      178.473       41.506        0.054      346.954       25.571      864.768
07/17/2013  22:10:00     -154.237      199.121      -32.306       75.634       81.647       43.754     5720.576     6666.314     1914.442        3.939        0.715      251.869       40.425        0.026      346.898       25.474      864.762
07/17/2013  22:11:00     -144.148      191.860      -34.021       43.452       49.864       30.618     1888.077     2486.453      937.474        3.203        0.266      239.976       25.164        0.011      346.848       25.387      864.758
07/17/2013  22:12:00     -155.411      117.294      -29.213       45.907       43.668       29.364     2107.486     1906.885      862.246        2.182        0.244      194.706       24.114        0.015      346.882       25.447      864.734
07/17/2013  22:13:00      -73.881      -11.164       -3.998       45.219       49.426       22.009     2044.739     2442.972      484.376        0.528        0.249       74.720       16.711        0.050      346.839       25.374      864.733
07/17/2013  22:14:00     -118.207      -32.752      -14.150       52.206       40.945       24.443     2725.504     1676.455      597.438        1.012        0.250      122.661       21.530        0.031      346.854       25.401      864.724
07/17/2013  22:15:00      -51.234       -0.225        2.803       28.350       29.271       18.113      803.742      856.797      328.087        0.231        0.099       51.234       15.073        0.087      346.744       25.213      864.734
07/17/2013  22:16:00      -57.583        5.386       -6.467       26.368       22.499       19.530      695.265      506.184      381.415        0.248        0.079       57.834       16.150        0.078      346.816       25.335      864.745
07/17/2013  22:17:00      -88.204       13.108       -9.250       28.707       30.083       19.665      824.070      905.002      386.709        0.508        0.106       89.173        8.933        0.010      346.836       25.369      864.759
07/17/2013  22:18:00     -126.477      142.096      -35.475       63.975       75.452       38.367     4092.785     5693.025     1472.016        2.435        0.563      190.231       39.646        0.043      346.881       25.445      864.782
07/17/2013  22:19:00      -73.587      118.813      -17.967       39.105       60.073       31.796     1529.214     3608.763     1010.973        1.300        0.307      139.755       31.196        0.050      346.853       25.398      864.778
07/17/2013  22:20:00     -116.615      172.390      -39.551       87.559       87.360       43.601     7666.513     7631.776     1901.035        3.104        0.860      208.128       46.573        0.050      347.046       25.730      864.757
07/17/2013  22:21:00      -85.889       52.430       -5.963       51.499       64.377       34.268     2652.116     4144.412     1174.286        0.906        0.399      100.627       28.712        0.081      347.016       25.679      864.755
07/17/2013  22:22:00      -96.148        3.828       -3.898       67.464       78.851       30.431     4551.394     6217.499      926.039        1.048        0.585       96.224       21.375        0.049      346.948       25.563      864.759
07/17/2013  22:23:00     -139.222      -55.290       -4.255       65.868       54.150       36.842     4338.558     2932.255     1357.347        1.554        0.431      149.799       37.633        0.063      346.688       25.113      864.760
07/17/2013  22:24:00     -157.119      -15.079      -15.682       55.091       39.048       27.659     3035.068     1524.723      765.016        1.524        0.266      157.841       29.914        0.036      346.744       25.212      864.763
07/17/2013  22:25:00     -147.511      -40.898       -0.306       54.634       50.049       28.570     2984.882     2504.940      816.228        1.487        0.315      153.075       29.433        0.037      346.668       25.080      864.751
07/17/2013  22:26:00     -131.644      -23.059      -18.600       45.408       30.754       24.424     2061.921      945.822      596.515        1.091        0.180      133.648       21.812        0.027      346.634       25.023      864.749
07/17/2013  22:27:00      -85.311       -0.940       -6.212       43.808       40.394       23.837     1919.148     1631.637      568.204        0.572        0.206       85.316       23.424        0.075      346.684       25.110      864.760
07/17/2013  22:28:00     -144.779      -43.276      -23.960       36.481       39.032       29.178     1330.881     1523.470      851.367        1.356        0.185      151.108       15.071        0.010      346.756       25.232      864.764
07/17/2013  22:29:00     -197.590      -59.941      -14.192       28.363       37.585       14.548      804.454     1412.634      211.648        2.263        0.121      206.482       11.570        0.003      346.720       25.167      864.770
07/17/2013  22:30:00     -200.142      -57.801      -15.705       61.934       41.972       33.761     3835.792     1761.657     1139.809        2.519        0.337      208.322       37.077        0.032      346.668       25.078      864.774
07/17/2013  22:31:00     -194.017      -48.744      -15.066       58.770       48.994       31.638     3453.916     2400.442     1000.950        2.355        0.343      200.046       29.926        0.022      346.700       25.133      864.763
07/17/2013  22:32:00     -141.043      -23.842      -11.361       65.447       63.595       20.763     4283.278     4044.292      431.122        1.467        0.438      143.044       16.457        0.013      346.712       25.156      864.754
07/17/2013  22:33:00     -172.620      -67.820       -0.757       83.471       94.475       40.335     6967.333     8925.522     1626.875        2.596        0.876      185.464       39.539        0.045      346.769       25.252      864.753
07/17/2013  22:34:00     -233.627      -49.698      -13.260       61.581       42.615       30.489     3792.198     1816.051      929.567        3.188        0.327      238.855       32.437        0.018      346.808       25.319      864.740
07/17/2013  22:35:00     -162.227      -52.795       -5.955       70.427       52.028       30.174     4959.970     2706.934      910.443        1.886        0.429      170.602       30.724        0.032      346.711       25.154      864.737
07/17/2013  22:36:00     -152.809      -30.418       -2.135      108.672       44.287       41.337    11809.521     1961.321     1708.774        1.988        0.774      155.807       55.832        0.128      346.783       25.278      864.733
07/17/2013  22:37:00     -123.819      -41.013        2.473       87.146       70.434       39.687     7594.421     4961.007     1575.081        1.557        0.707      130.435       47.803        0.134      346.737       25.198      864.721
07/17/2013  22:38:00     -267.445      -59.449      -19.516       95.392       56.026       41.479     9099.603     3138.900     1720.486        4.470        0.698      273.973       41.190        0.023      346.787       25.281      864.711
07/17/2013  22:39:00     -157.350      -40.236        4.951       65.558       72.571       35.655     4297.828     5266.485     1271.244        1.862        0.542      162.413       34.501        0.045      346.644       25.036      864.719
07/17/2013  22:40:00     -212.386      -64.758      -18.646       71.753       61.129       36.834     5148.520     3736.776     1356.726        2.994        0.512      222.039       31.615        0.020      346.695       25.126      864.714
07/17/2013  22:41:00     -200.439      -74.508       -6.069       99.465       90.489       46.209     9893.264     8188.306     2135.303        3.299        1.011      213.839       52.841        0.061      346.605       24.970      864.709
07/17/2013  22:42:00     -207.971      -59.617       -4.915       85.324       66.449       43.317     7280.263     4415.469     1876.396        3.020        0.679      216.347       48.921        0.051      346.620       24.995      864.710
07/17/2013  22:43:00     -122.557      -65.830        1.808       80.256       57.395       32.671     6441.058     3294.205     1067.369        1.508        0.540      139.118       23.370        0.028      346.622       25.001      864.692
07/17/2013  22:44:00     -300.042      -72.954       -4.684      126.856       68.318       54.516    16092.558     4667.341     2972.003        5.955        1.187      308.784       61.585        0.040      346.708       25.146      864.683
07/17/2013  22:45:00     -188.586      -84.061       -8.140      121.675       78.043       45.785    14804.823     6090.671     2096.274        3.284        1.150      206.472       56.827        0.076      346.720       25.167      864.687
07/17/2013  22:46:00     -256.667     -109.860      -11.348       76.408       77.354       47.158     5838.135     5983.580     2223.852        4.606        0.702      279.190       45.525        0.027      346.756       25.228      864.685
07/17/2013  22:47:00     -213.504      -88.437      -20.925      127.832       84.141       53.477    16341.141     7079.690     2859.786        4.006        1.314      231.095       57.401        0.062      346.773       25.260      864.686
07/17/2013  22:48:00     -228.936      -27.793       -8.277       97.959       75.330       53.910     9596.004     5674.616     2906.269        3.571        0.909      230.617       54.304        0.055      346.754       25.225      864.702
07/17/2013  22:49:00     -244.038      -41.958       -3.178       82.020       65.836       50.033     6727.214     4334.375     2503.273        3.744        0.678      247.619       46.416        0.035      346.744       25.208      864.692
07/17/2013  22:50:00     -181.239      -58.916        4.914      102.485       75.541       48.623    10503.086     5706.420     2364.171        2.745        0.929      190.575       51.210        0.072      346.747       25.215      864.689
07/17/2013  22:51:00     -253.818      -31.547       -5.663       99.642       94.120       44.917     9928.578     8858.560     2017.577        4.312        1.040      255.771       50.764        0.039      346.770       25.253      864.719
07/17/2013  22:52:00     -203.909      -53.780      -10.558       75.375       66.491       38.139     5681.363     4421.043     1454.562        2.807        0.578      210.882       29.528        0.020      346.780       25.271      864.730
07/17/2013  22:53:00     -330.318      -60.645       -9.169      101.927       68.276       45.149    10389.028     4661.583     2038.451        6.498        0.854      335.839       46.552        0.019      346.849       25.388      864.740
07/17/2013  22:54:00     -197.311      -59.213       -3.731       88.102       73.717       46.618     7761.979     5434.227     2173.222        2.891        0.768      206.005       50.171        0.059      346.784       25.279      864.770
07/17/2013  22:55:00     -194.543      -31.776        0.730      107.809      111.035       42.921    11622.838    12328.800     1842.245        3.232        1.290      197.121       41.030        0.043      346.762       25.240      864.773
07/17/2013  22:56:00     -266.655      -80.807       -3.920      108.481       80.252       44.847    11768.074     6440.323     2011.255        4.893        1.011      278.630       34.601        0.015      346.779       25.268      864.784
07/17/2013  22:57:00     -258.505      -69.249      -11.001       82.100       71.053       44.797     6740.435     5048.567     2006.808        4.277        0.690      267.620       46.201        0.030      346.769       25.251      864.803
07/17/2013  22:58:00     -262.804     -116.544      -18.726       87.981       83.203       37.266     7740.641     6922.675     1388.791        4.952        0.803      287.486       36.452        0.016      346.774       25.259      864.805
07/17/2013  22:59:00     -115.881      -58.414        5.624       75.662       69.096       37.579     5724.811     4774.243     1412.166        1.439        0.596      129.771       43.107        0.110      346.666       25.077      864.804
07/17/2013  23:00:00      -67.732      -46.338        0.119       64.972       47.750       22.646     4221.413     2280.046      512.845        0.687        0.351       82.066       26.422        0.104      346.627       25.011      864.814
07/17/2013  23:01:00     -105.241      -42.551        2.772       76.900       63.204       39.975     5913.614     3994.795     1597.962        1.220        0.575      113.518       35.459        0.098      346.631       25.016      864.827
07/17/2013  23:02:00     -142.972      -45.413        3.639       73.727       67.414       37.002     5435.685     4544.660     1369.160        1.693        0.567      150.011       38.675        0.066      346.624       25.005      864.853
07/17/2013  23:03:00      -84.028      -37.853       34.303      134.051       75.524       60.850    17969.646     5703.884     3702.718        1.852        1.369       92.161       75.573        0.672      346.641       25.034      864.864
07/17/2013  23:04:00      -73.379      -66.199       30.184      108.224       71.868       45.501    11712.513     5164.954     2070.363        1.481        0.947       98.827       54.254        0.301      346.663       25.072      864.865
07/17/2013  23:05:00     -178.960     -174.434       -0.004      129.262       94.979       64.956    16708.628     9021.064     4219.322        4.620        1.497      249.908       70.357        0.079      346.812       25.326      864.878
07/17/2013  23:06:00     -197.275      -95.731       -2.129      114.217       79.899       61.316    13045.548     6383.783     3759.698        3.563        1.159      219.276       65.730        0.090      346.793       25.293      864.900
07/17/2013  23:07:00     -106.771      -82.120        6.120       77.150       82.716       52.023     5952.093     6841.865     2706.419        1.684        0.775      134.699       51.995        0.149      346.797       25.301      864.922
07/17/2013  23:08:00       -0.861      -19.008       -2.064       35.837       41.403       28.469     1284.326     1714.191      810.478        0.209        0.190       19.028       18.514        0.947      346.675       25.094      864.940
07/17/2013  23:09:00       30.506       53.769       -8.671       31.733       54.927       29.174     1007.005     3016.957      851.120        0.439        0.244       61.820       23.289        0.142      346.522       24.830      864.955
07/17/2013  23:10:00       73.725       23.747        4.763       51.951       22.745       15.949     2698.896      517.330      254.357        0.475        0.174       77.455       12.560        0.026      346.434       24.677      864.980
07/17/2013  23:11:00      112.360       18.880       11.352       40.607       37.132       24.272     1648.965     1378.769      589.130        0.836        0.181      113.935       13.794        0.015      346.498       24.789      864.987
07/17/2013  23:12:00       79.673       38.547       56.074       95.671       59.534       39.322     9152.925     3544.259     1546.192        1.261        0.712       88.508       32.582        0.136      346.558       24.891      864.966
07/17/2013  23:13:00       20.952       28.350       39.078       21.784       22.435       12.756      474.542      503.322      162.726        0.195        0.057       35.252       10.312        0.086      346.436       24.680      864.986
07/17/2013  23:14:00       54.690       40.548        1.856       23.385       18.168       16.689      546.875      330.061      278.518        0.290        0.058       68.082        6.711        0.010      346.328       24.496      865.003
07/17/2013  23:15:00       46.409       41.671       31.786       39.612       27.737       20.824     1569.102      769.347      433.651        0.384        0.139       62.372       13.416        0.046      346.302       24.451      865.005
07/17/2013  23:16:00      138.280       91.618       49.940       45.050       39.636       46.451     2029.460     1571.034     2157.720        1.788        0.288      165.877       32.487        0.038      346.531       24.846      865.004
07/17/2013  23:17:00       95.311       66.053       12.831       39.340       35.153       29.073     1547.650     1235.718      845.247        0.862        0.181      115.962       14.266        0.015      346.364       24.559      865.032
07/17/2013  23:18:00       65.154       59.057        1.170       50.066       38.621       28.840     2506.623     1491.568      831.728        0.628        0.241       87.936       12.912        0.022      346.358       24.549      865.037
07/17/2013  23:19:00       95.614       53.973        7.083       27.690       24.790       20.467      766.731      614.540      418.892        0.695        0.090      109.796       15.831        0.021      346.337       24.514      865.044
07/17/2013  23:20:00       86.977       51.430        4.685       29.831       33.422       20.519      889.870     1117.040      421.019        0.633        0.121      101.045       14.305        0.020      346.190       24.260      865.066
07/17/2013  23:21:00      115.404       68.421       26.427       41.010       35.177       34.781     1681.839     1237.451     1209.726        1.141        0.206      134.162       17.151        0.016      346.000       23.934      865.071
07/17/2013  23:22:00      192.386      112.685       20.957       29.694       20.017       17.943      881.720      400.697      321.951        2.588        0.080      222.958        9.049        0.002      346.137       24.163      865.072
07/17/2013  23:23:00      174.973       58.152       11.332       52.952       52.049       35.609     2803.908     2709.091     1268.019        2.045        0.339      184.383       15.777        0.007      346.131       24.157      865.057
07/17/2013  23:24:00       41.238       27.840       46.393       59.426       38.146       34.106     3531.411     1455.091     1163.240        0.539        0.307       49.756       34.736        0.487      345.982       23.904      865.062
07/17/2013  23:25:00        5.370       55.938       76.051       33.702       36.201       17.950     1135.813     1310.487      322.210        0.585        0.138       56.195       18.998        0.114      345.843       23.665      865.068
07/17/2013  23:26:00       30.674       52.731       65.749       44.061       44.895       31.712     1941.330     2015.565     1005.651        0.650        0.248       61.004       32.803        0.289      346.136       24.166      865.073
07/17/2013  23:27:00        6.257       19.165       47.604       25.267       37.853       33.238      638.422     1432.865     1104.746        0.292        0.159       20.160       33.327        2.733      346.385       24.595      865.104
07/17/2013  23:28:00       40.909       57.102       54.083       42.208       28.574       29.989     1781.488      816.474      899.357        0.568        0.175       70.244       28.345        0.163      346.228       24.324      865.117
07/17/2013  23:29:00       84.862       46.905       24.284       29.359       34.487       24.590      861.953     1189.342      604.676        0.632        0.133       96.963       15.777        0.026      346.386       24.595      865.113
07/17/2013  23:30:00       68.391       54.385       20.045       21.343       20.102       29.684      455.529      404.079      881.141        0.489        0.087       87.379       18.140        0.043      346.302       24.452      865.114
07/17/2013  23:31:00       30.902       24.944       23.175       18.563       19.166       12.741      344.570      367.334      162.323        0.149        0.044       39.713        6.555        0.027      346.187       24.255      865.121
07/17/2013  23:32:00       -0.902      -13.102        1.981       16.502       12.118       12.823      272.325      146.851      164.440        0.038        0.029       13.133       12.727        0.939      346.233       24.334      865.132
07/17/2013  23:33:00       15.267       -1.428        7.006       12.434        8.184        9.183      154.593       66.972       84.327        0.029        0.015       15.333        8.379        0.299      346.171       24.225      865.142
07/17/2013  23:34:00       11.732       23.568       20.226       17.186       18.842       15.259      295.371      355.015      232.840        0.099        0.044       26.327        6.239        0.056      346.062       24.039      865.125
07/17/2013  23:35:00       27.806       40.580       24.067       21.431       13.237       17.003      459.308      175.220      289.115        0.196        0.046       49.192       16.112        0.107      345.849       23.672      865.116
07/17/2013  23:36:00       47.220       37.587       22.326       21.796        9.602       16.811      475.065       92.201      282.610        0.250        0.042       60.353       14.278        0.056      345.720       23.452      865.127
07/17/2013  23:37:00       37.212       -7.266        4.770       20.227       23.651       14.872      409.124      559.354      221.181        0.132        0.059       37.915       17.503        0.213      345.845       23.665      865.136
07/17/2013  23:38:00      -11.728      -28.294       -5.574       22.925       12.277        7.315      525.543      150.724       53.505        0.085        0.036       30.628        3.943        0.017      346.100       24.101      865.146
07/17/2013  23:39:00      -30.632      -24.197       -9.852       14.889        7.271        6.914      221.691       52.871       47.805        0.097        0.016       39.036        6.014        0.024      346.264       24.387      865.165
07/17/2013  23:40:00      -38.184       -1.556       -7.916       16.932       24.251       13.364      286.686      588.110      178.609        0.129        0.053       38.216       11.966        0.098      346.009       23.949      865.164
07/17/2013  23:41:00      -53.005        2.599      -11.918       16.600       14.726        7.277      275.548      216.864       52.951        0.175        0.027       53.068        4.393        0.007      345.974       23.889      865.154
07/17/2013  23:42:00      -25.312       -9.339        2.504       11.796       10.681        7.229      139.134      114.082       52.264        0.052        0.015       26.980        6.071        0.051      345.938       23.826      865.153
07/17/2013  23:43:00      -14.172       -5.469       -4.351       11.468        6.210        5.606      131.505       38.565       31.423        0.023        0.010       15.191        2.831        0.035      345.920       23.795      865.157
07/17/2013  23:44:00      -29.386       -6.187       -4.256        8.307        8.702        4.858       69.000       75.723       23.604        0.054        0.008       30.030        1.503        0.003      346.035       23.993      865.165
07/17/2013  23:45:00      -29.628      -11.333       -3.634       12.183       10.234        6.149      148.421      104.734       37.808        0.066        0.015       31.721        3.578        0.013      345.979       23.896      865.168
07/17/2013  23:46:00      -15.105        5.588       -1.979        5.942       12.040        4.624       35.312      144.967       21.385        0.023        0.010       16.106        5.733        0.127      345.892       23.748      865.176
07/17/2013  23:47:00      -18.800       16.130       -3.761       13.887        6.970        3.289      192.837       48.577       10.815        0.044        0.013       24.771        3.779        0.023      346.302       24.448      865.192
07/17/2013  23:48:00      -55.052       10.356       -4.650       19.416       16.213        7.627      376.991      262.845       58.173        0.193        0.035       56.017        7.130        0.016      346.049       24.017      865.195
07/17/2013  23:49:00      -61.487      -31.724        3.934       32.452       22.212       12.854     1053.148      493.394      165.236        0.326        0.086       69.188       15.824        0.052      345.823       23.629      865.187
07/17/2013  23:50:00      -27.052      -38.056        8.959       38.509       17.753       13.624     1482.978      315.167      185.617        0.212        0.099       46.692       15.064        0.104      346.053       24.024      865.172
07/17/2013  23:51:00      -23.892       21.555        9.045       38.123       39.021       18.534     1453.383     1522.676      343.519        0.222        0.166       32.178       15.885        0.244      345.934       23.819      865.173
07/17/2013  23:52:00      -68.076       33.739      -13.898       30.180       12.890       10.733      910.834      166.160      115.191        0.358        0.060       75.978        6.037        0.006      346.111       24.124      865.167
07/17/2013  23:53:00      -88.436       43.338       -4.006       29.443       32.674       19.793      866.907     1067.615      391.766        0.602        0.116       98.484       19.848        0.041      345.969       23.880      865.178
07/17/2013  23:54:00      -94.359        9.652      -10.191       54.363       42.895       22.582     2955.318     1840.013      509.939        0.720        0.265       94.852       27.354        0.083      346.160       24.207      865.176
07/17/2013  23:55:00      -45.340       45.971        2.608       28.231       25.035       16.884      797.001      626.731      285.055        0.294        0.085       64.568        8.186        0.016      346.101       24.107      865.163
07/17/2013  23:56:00     -132.078       22.680      -10.287       47.723       51.025       30.554     2277.493     2603.502      933.542        1.194        0.291      134.012       27.284        0.041      346.136       24.166      865.167
07/17/2013  23:57:00     -139.637      -50.217        1.614       66.231       43.551       30.461     4386.539     1896.729      927.900        1.462        0.361      148.392       25.342        0.029      346.009       23.947      865.167
07/17/2013  23:58:00     -138.948      -30.337       -7.593       39.984       41.397       27.583     1598.741     1713.673      760.837        1.218        0.204      142.222       13.734        0.009      346.049       24.015      865.168
07/17/2013  23:59:00     -119.047      -43.957      -11.405       41.464       46.168       22.861     1719.302     2131.460      522.603        1.030        0.219      126.903       19.794        0.024      346.043       24.007      865.161
